[[{"header":{"parameterUnit":"m.s-1","parameterCategory":1,"la1":31.0,"la2":29.5877,"lo1":-88.7671,"lo2":-86.6584,"dy":0.0162,"dx":0.0185,"nx":115,"ny":88,"refTime":"2023-06-20T06:00:00:Z","depth":0,"parameterNumber":2,"parameterNumberName":"U-component_of_WINDS"},"data":[0.0,0.0,0.0,0.0,0.0,0.0,0.0,0.0,0.0,0.0,0.0,0.0,0.0,0.0,0.0,0.0,0.0,0.0,0.0,0.0,0.0,0.0,0.0,0.0,0.0,0.0,0.0,0.0,0.0,0.0,0.0,0.0,0.0,0.0,0.0,0.0,0.0,0.0,0.0,0.0,0.0,0.0,0.0,0.0,0.0,0.0,0.0,0.0,0.0,0.0,0.0,0.0,0.0,0.0,0.0,0.0,0.0,0.0,0.0,0.0,0.0,0.0,0.0,0.0,0.0,0.0,0.0,0.0,0.0,0.0,0.0,0.0,0.0,0.0,0.0,0.0,0.0,0.0,0.0,0.0,0.0,0.0,0.0,0.0,0.0,0.0,0.0,0.0,0.0,0.0,0.0,0.0,0.0,0.0,0.0,0.0,0.0,0.0,0.0,0.0,0.0,0.0,0.0,0.0,0.0,0.0,0.0,0.0,0.0,0.0,0.0,0.0,0.0,0.0,0.0,0.0,0.0,0.0,0.0,0.0,0.0,0.0,0.0,0.0,0.0,0.0,0.0,0.0,0.0,0.0,0.0,0.0,0.0,0.0,0.0,0.0,0.0,0.0,0.0,0.0,0.0,0.0,0.0,0.0,0.0,0.0,0.0,0.0,0.0,0.0,0.0,0.0,0.0,0.0,0.0,0.0,0.0,0.0,0.0,0.0,0.0,0.0,0.0,0.0,0.0,0.0,0.0,0.0,0.0,0.0,0.0,0.0,0.0,0.0,0.0,0.0,0.0,0.0,0.0,0.0,0.0,0.0,0.0,0.0,0.0,0.0,0.0,0.0,0.0,0.0,0.0,0.0,0.0,0.0,0.0,0.0,0.0,0.0,0.0,0.0,0.0,0.0,0.0,0.0,0.0,0.0,0.0,0.0,0.0,0.0,0.0,0.0,0.0,0.0,0.0,0.0,0.0,0.0,0.0,0.0,0.0,0.0,0.0,0.0,0.0,0.0,0.0,0.0,0.0,0.0,0.0,0.0,0.0,0.0,0.0,0.0,0.0,0.0,0.0,0.0,0.0,0.0,0.0,0.0,0.0,0.0,0.0,0.0,0.0,0.0,0.0,0.0,0.0,0.0,0.0,0.0,0.0,0.0,0.0,0.0,0.0,0.0,0.0,0.0,0.0,0.0,0.0,0.0,0.0,0.0,0.0,0.0,0.0,0.0,0.0,0.0,0.0,0.0,0.0,0.0,0.0,0.0,0.0,0.0,0.0,0.0,0.0,0.0,0.0,0.0,0.0,0.0,0.0,0.0,0.0,0.0,0.0,0.0,0.0,0.0,0.0,0.0,0.0,0.0,0.0,0.0,0.0,0.0,0.0,0.0,0.0,0.0,0.0,0.0,0.0,0.0,0.0,0.0,0.0,0.0,0.0,0.0,0.0,0.0,0.0,0.0,0.0,0.0,0.0,0.0,0.0,0.0,0.0,0.0,0.0,0.0,0.0,0.0,0.0,0.0,0.0,0.0,0.0,0.0,0.0,0.0,0.0,0.0,0.0,0.0,0.0,0.0,0.0,0.0,0.0,0.0,0.0,0.0,0.0,0.0,0.0,0.0,0.0,0.0,0.0,0.0,0.0,0.0,0.0,0.0,0.0,0.0,0.0,0.0,0.0,0.0,0.0,0.0,0.0,0.0,0.0,0.0,0.0,0.0,0.0,0.0,0.0,0.0,0.0,0.0,0.0,0.0,0.0,0.0,0.0,0.0,0.0,0.0,0.0,0.0,0.0,0.0,0.0,0.0,0.0,0.0,0.0,0.0,0.0,0.0,0.0,0.0,0.0,0.0,0.0,0.0,0.0,0.0,0.0,0.0,0.0,0.0,0.0,0.0,0.0,0.0,0.0,0.0,0.0,0.0,0.0,0.0,0.0,0.0,0.0,0.0,0.0,0.0,0.0,0.0,0.0,0.0,0.0,0.0,0.0,0.0,0.0,0.0,0.0,0.0,0.0,0.0,0.0,0.0,0.0,0.0,0.0,0.0,0.0,0.0,0.0,0.0,0.0,0.0,0.0,0.0,0.0,0.0,0.0,0.0,0.0,0.0,0.0,0.0,0.0,0.0,0.0,0.0,0.0,0.0,0.0,0.0,0.0,0.0,0.0,0.0,0.0,0.0,0.0,0.0,0.0,0.0,0.0,0.0,0.0,0.0,0.0,0.0,0.0,0.0,0.0,0.0,0.0,0.0,0.0,0.0,0.0,0.0,0.0,0.0,0.0,0.0,0.0,0.0,0.0,0.0,0.0,0.0,0.0,0.0,0.0,0.0,0.0,0.0,0.0,0.0,0.0,0.0,0.0,0.0,0.0,0.0,0.0,0.0,0.0,0.0,0.0,0.0,0.0,0.0,0.0,0.0,0.0,0.0,0.0,0.0,0.0,0.0,0.0,0.0,0.0,0.0,0.0,0.0,0.0,0.0,0.0,0.0,0.0,0.0,0.0,0.0,0.0,0.0,0.0,0.0,0.0,0.0,0.0,0.0,0.0,0.0,0.0,0.0,0.0,0.0,0.0,0.0,0.0,0.0,0.0,0.0,0.0,0.0,0.0,0.0,0.0,0.0,0.0,0.0,0.0,0.0,0.0,0.0,0.0,0.0,0.0,0.0,0.0,0.0,0.0,0.0,0.0,0.0,0.0,0.0,0.0,0.0,0.0,0.0,0.0,0.0,0.0,0.0,0.0,0.0,0.0,0.0,0.0,0.0,0.0,0.0,0.0,0.0,0.0,0.0,0.0,0.0,0.0,0.0,0.0,0.0,0.0,0.0,0.0,0.0,0.0,0.0,0.0,0.0,0.0,0.0,0.0,0.0,0.0,0.0,0.0,0.0,0.0,0.0,0.0,0.0,0.0,0.0,0.0,0.0,0.0,0.0,0.0,0.0,0.0,0.0,0.0,0.0,0.0,0.0,0.0,0.0,0.0,0.0,0.0,0.0,0.0,0.0,0.0,0.0,0.0,0.0,0.0,0.0,0.0,0.0,0.0,0.0,0.0,0.0,0.0,0.0,0.0,0.0,0.0,0.0,0.0,0.0,0.0,0.0,0.0,0.0,0.0,0.0,0.0,0.0,0.0,0.0,0.0,0.0,0.0,0.0,0.0,0.0,0.0,0.0,0.0,0.0,0.0,0.0,0.0,0.0,0.0,0.0,0.0,0.0,0.0,0.0,0.0,0.0,0.0,0.0,0.0,0.0,0.0,0.0,0.0,0.0,0.0,0.0,0.0,0.0,0.0,0.0,0.0,0.0,0.0,0.0,0.0,0.0,0.0,0.0,0.0,0.0,0.0,0.0,0.0,0.0,0.0,0.0,0.0,0.0,0.0,0.0,0.0,0.0,0.0,0.0,0.0,0.0,0.0,0.0,0.0,0.0,0.0,0.0,0.0,0.0,0.0,0.0,0.0,0.0,0.0,0.0,0.0,0.0,0.0,0.0,0.0,0.0,0.0,0.0,0.0,0.0,0.0,0.0,0.0,0.0,0.0,0.0,0.0,0.0,0.0,0.0,0.0,0.0,0.0,0.0,0.0,0.0,0.0,0.0,0.0,0.0,0.0,0.0,0.0,0.0,0.0,0.0,0.0,0.0,0.0,0.0,0.0,0.0,0.0,0.0,0.0,0.0,0.0,0.0,0.0,0.0,0.0,0.0,0.0,0.0,0.0,0.0,0.0,0.0,0.0,0.0,0.0,0.0,0.0,0.0,0.0,0.0,0.0,0.0,0.0,0.0,0.0,0.0,0.0,0.0,0.0,0.0,0.0,0.0,0.0,0.0,0.0,0.0,0.0,0.0,0.0,0.0,0.0,0.0,0.0,0.0,0.0,0.0,0.0,0.0,0.0,0.0,0.0,0.0,0.0,0.0,0.0,0.0,0.0,0.0,0.0,0.0,0.0,0.0,0.0,0.0,0.0,0.0,0.0,0.0,0.0,0.0,0.0,0.0,0.0,0.0,0.0,0.0,0.0,0.0,0.0,0.0,0.0,0.0,0.0,0.0,0.0,0.0,0.0,0.0,0.0,0.0,0.0,0.0,0.0,0.0,0.0,0.0,0.0,0.0,0.0,0.0,0.0,0.0,0.0,0.0,0.0,0.0,0.0,0.0,0.0,0.0,0.0,0.0,0.0,0.0,0.0,0.0,0.0,0.0,0.0,0.0,0.0,0.0,0.0,0.0,0.0,0.0,0.0,0.0,0.0,0.0,0.0,0.0,0.0,0.0,0.0,0.0,0.0,0.0,0.0,0.0,0.6486,0.0,0.0,0.0,0.0,0.0,0.0,0.0,0.0,0.0,0.0,0.0,0.0,0.0,0.0,0.0,0.0,0.0,0.0,0.0,0.0,0.0,0.0,0.0,0.0,0.0,0.0,0.0,0.0,0.0,0.0,0.0,0.0,0.0,0.0,0.0,0.0,0.0,0.0,0.0,0.0,0.0,0.0,0.0,0.0,0.0,0.0,0.0,0.0,0.0,0.0,0.0,0.0,0.0,0.0,0.0,0.0,0.0,0.0,0.0,0.0,0.0,0.0,0.0,0.0,0.0,0.0,0.0,0.0,0.0,0.0,0.0,0.0,0.0,0.0,0.0,0.0,0.0,0.0,0.0,0.0,0.0,0.0,0.0,0.0,0.0,0.0,0.0,0.0,0.0,0.0,0.0,0.0,0.0,0.0,0.0,0.0,0.0,0.0,0.0,0.0,0.0,0.0,0.0,0.0,0.0,0.0,0.0,0.0,0.0,0.0,0.7152,0.6605,0.6556,0.6362,0.5947,0.0,0.0,0.0,0.0,0.0,0.0,0.0,0.0,0.0,0.0,0.0,0.0,0.0,0.0,0.0,0.0,0.0,0.0,0.0,0.0,0.0,0.0,0.0,0.0,0.0,0.0,0.0,0.0,0.0,0.0,0.0,0.0,0.0,0.0,0.0,0.0,0.0,0.0,0.0,0.0,0.0,0.0,0.0,0.0,0.0,0.0,0.0,0.0,0.0,0.0,0.0,0.0,0.0,0.0,0.0,0.0,0.0,0.0,0.0,0.0,0.0,0.0,0.0,0.0,0.0,0.0,0.0,0.0,0.0,0.0,0.0,0.0,0.0,0.0,0.0,0.0,0.0,0.0,0.0,0.0,0.0,0.0,0.0,0.0,0.0,0.0,0.0,0.0,0.0,0.0,0.0,0.0,0.0,0.0,0.0,0.0,0.0,0.0,0.0,0.0,0.0,0.0,0.0,0.0,0.0,0.0,0.0,0.0,0.0,0.0,0.0,0.0,0.6024,0.5627,0.5213,0.0,0.0,0.0,0.0,0.0,0.0,0.0,0.0,0.0,0.0,0.0,0.0,0.0,0.0,0.0,0.0,0.0,0.0,0.0,0.0,0.0,0.0,0.0,0.0,0.0,0.0,0.0,0.0,0.0,0.0,0.0,0.0,0.0,0.0,0.0,0.0,0.0,0.0,0.0,0.0,0.0,0.0,0.0,0.0,0.0,0.0,0.0,0.0,0.0,0.0,0.0,0.0,0.0,0.0,0.0,0.0,0.0,0.0,0.0,0.0,0.0,0.0,0.0,0.0,0.0,0.0,0.0,0.0,0.0,0.0,0.0,0.0,0.0,0.0,0.0,0.0,0.0,0.0,0.0,0.0,0.0,0.0,0.0,0.0,0.0,0.0,0.0,0.0,0.0,0.0,0.0,0.0,0.0,0.0,0.0,0.0,0.0,0.0,0.0,0.0,0.0,0.0,0.0,0.0,0.0,0.0,0.0,0.0,0.0,0.0,0.5858,0.5935,0.6148,0.0,0.4135,0.0,0.0,0.0,0.0,0.0,0.0,0.0,0.0,0.0,0.0,0.0,0.0,0.0,0.0,0.0,0.0,0.0,0.0,0.0,0.0,0.0,0.0,0.0,0.0,0.0,0.0,0.0,0.0,0.0,0.0,0.0,0.0,0.0,0.0,0.0,0.0,0.0,0.0,0.0,0.0,0.0,0.0,0.0,0.0,0.0,0.0,0.0,0.0,0.0,0.0,0.0,0.0,0.0,0.0,0.0,0.0,0.0,0.0,0.0,0.0,0.0,0.0,0.0,0.0,0.0,0.0,0.0,0.0,0.0,0.0,0.0,0.0,0.0,0.0,0.0,0.0,0.0,0.0,0.0,0.0,0.0,0.0,0.0,0.0,0.0,0.0,0.0,0.0,0.0,0.0,0.0,0.0,0.0,0.0,0.0,0.0,0.0,0.0,0.0,0.0,0.0,0.0,0.0,0.0,0.0,0.0,0.0,0.0,0.0,0.0,0.4885,0.4954,0.4957,0.4688,0.0,0.0,0.0,0.0,0.0,0.0,0.0,0.0,0.0,0.0,0.0,0.0,0.0,0.0,0.0,0.0,0.0,0.0,0.0,0.0,0.0,0.0,0.0,0.0,0.0,0.0,0.0,0.0,0.0,0.0,0.0,0.0,0.0,0.0,0.0,0.0,0.0,0.0,0.0,0.0,0.0,0.0,0.0,0.0,0.0,0.0,0.0,0.0,0.0,0.0,0.0,0.0,0.0,0.0,0.0,0.0,0.0,0.0,0.0,0.0,0.0,0.0,0.0,0.0,0.0,0.0,0.0,0.0,0.0,0.0,0.0,0.0,0.0,0.0,0.0,0.0,0.0,0.0,0.0,0.0,0.0,0.0,0.0,0.0,0.0,0.0,0.0,0.0,0.0,0.0,0.0,0.0,0.0,0.0,0.0,0.0,0.0,0.0,0.0,0.0,0.0,0.0,0.0,0.0,0.0,0.0,0.0,0.0,0.0,0.0,0.4303,0.4303,0.4303,0.4167,0.4167,0.4303,0.0,0.0,0.0,0.0,0.0,0.0,0.0,0.0,0.0,0.0,0.0,0.0,0.0,0.0,0.0,0.0,0.0,0.0,0.0,0.0,0.0,0.0,0.0,0.0,0.0,0.0,0.0,0.0,0.0,0.0,0.0,0.0,0.0,0.0,0.0,0.0,0.0,0.0,0.0,0.0,0.0,0.0,0.0,0.0,0.0,0.0,0.0,0.0,0.0,0.0,0.0,0.0,0.0,0.0,0.0,0.0,0.0,0.0,0.0,0.0,0.0,0.0,0.0,0.0,0.0,0.0,0.0,0.0,0.0,0.0,0.0,0.0,0.0,0.0,0.0,0.0,0.0,0.0,0.0,0.0,0.0,0.0,0.0,0.0,0.0,0.0,0.0,0.0,0.0,0.0,0.0,0.0,0.0,0.0,0.0,0.0,0.0,0.0,0.0,0.0,0.0,0.0,0.0,0.0,0.0,0.0,0.0,0.0,0.43,0.43,0.4303,0.4303,0.4303,0.4303,0.0,0.0,0.0,0.0,0.0,0.0,0.0,0.0,0.0,0.0,0.0,0.0,0.0,0.0,0.0,0.0,0.0,0.0,0.0,0.0,0.0,0.0,0.0,0.0,0.0,0.0,0.0,0.0,0.0,0.0,0.0,0.0,0.0,0.0,0.0,0.0,0.0,0.0,0.0,0.0,0.0,0.0,0.0,0.0,0.0,0.0,0.0,0.0,0.0,0.0,0.0,0.0,0.0,0.0,0.0,0.0,0.0,0.0,0.0,0.0,0.0,0.0,0.0,0.0,0.0,0.0,0.0,0.0,0.0,0.0,0.0,0.0,0.0,0.0,0.0,0.0,0.0,0.0,0.0,0.0,0.0,0.0,0.0,0.0,0.0,0.0,0.0,0.0,0.0,0.0,0.0,0.0,0.0,0.0,0.0,0.0,0.0,0.0,0.0,0.0,0.0,0.0,0.0,0.0,0.0,0.0,0.0,0.0,0.0,0.4183,0.4259,0.4303,0.4303,0.4306,0.4306,0.0,0.0,0.0,0.0,0.0,0.0,0.0,0.0,0.0,0.0,0.0,0.0,0.0,0.0,0.0,0.0,0.0,0.0,0.0,0.0,0.0,0.0,0.0,0.0,0.0,0.0,0.0,0.0,0.0,0.0,0.0,0.0,0.0,0.0,0.0,0.0,0.0,0.0,0.0,0.0,0.0,0.0,0.0,0.0,0.0,0.0,0.0,0.0,0.0,0.0,0.0,0.0,0.0,0.0,0.0,0.0,0.0,0.0,0.0,0.0,0.0,0.0,0.0,0.0,0.0,0.0,0.0,0.0,0.0,0.0,0.0,0.0,0.0,0.0,0.0,0.0,0.0,0.0,0.0,0.0,0.0,0.0,0.0,0.0,0.0,0.0,0.0,0.0,0.0,0.0,0.0,0.0,0.0,0.0,0.0,0.0,0.0,0.0,0.0,0.0,0.0,0.0,0.0,0.0,0.0,0.0,0.0,0.0,0.0,0.4061,0.0,0.427,0.4312,0.432,0.3865,0.0,0.0,0.0,0.0,0.0,0.0,0.0,0.0,0.0,0.0,0.0,0.0,0.0,0.0,0.0,0.0,0.0,0.0,0.0,0.0,0.0,0.0,0.0,0.0,0.0,0.0,0.0,0.0,0.0,0.0,0.0,0.0,0.0,0.0,0.0,0.0,0.0,0.0,0.0,0.0,0.0,0.0,0.0,0.0,0.0,0.0,0.0,0.0,0.0,0.0,0.0,0.0,0.0,0.0,0.0,0.0,0.0,0.0,0.0,0.0,0.0,0.0,0.0,0.0,0.0,0.0,0.0,0.0,0.0,0.0,0.0,0.0,0.0,0.0,0.0,0.0,0.0,0.0,0.0,0.0,0.0,0.0,0.0,0.0,0.0,0.0,0.0,0.0,0.0,0.0,0.0,0.0,0.0,0.0,0.0,0.0,0.0,0.0,0.0,0.0,0.0,0.0,0.0,0.0,0.0,0.0,0.0,0.0,0.3936,0.4072,0.4078,0.408,0.4257,0.4196,0.2935,0.0,0.0,0.0,0.0,0.0,0.0,0.0,0.0,0.0,0.0,0.0,0.0,0.0,0.0,0.0,0.0,0.0,0.0,0.0,0.0,0.0,0.0,0.0,0.0,0.0,0.0,0.0,0.0,0.0,0.0,0.0,0.0,0.0,0.0,0.0,0.0,0.0,0.0,0.0,0.0,0.0,0.0,0.0,0.0,0.0,0.0,0.0,0.0,0.0,0.0,0.0,0.0,0.0,0.0,0.0,0.0,0.0,0.0,0.0,0.0,0.0,0.0,0.0,0.0,0.0,0.0,0.0,0.0,0.0,0.0,0.0,0.0,0.0,0.0,0.0,0.0,0.0,0.0,0.0,0.0,0.0,0.0,0.0,0.0,0.0,0.0,0.0,0.0,0.0,0.0,0.0,0.0,0.0,0.0,0.0,0.0,0.0,0.0,0.0,0.0,0.0,0.0,0.0,0.0,0.0,0.0,0.0,0.0,0.0,0.3711,0.3297,0.2973,0.2744,0.1812,0.184,0.0,0.0,0.0,0.0,0.0,0.0,0.0,0.0,0.0,0.0,0.0,0.0,0.0,0.0,0.0,0.0,0.0,0.0,0.0,0.0,0.0,0.0,0.0,0.0,0.0,0.0,0.0,0.0,0.0,0.0,0.0,0.0,0.0,0.0,0.0,0.0,0.0,0.0,0.0,0.0,0.0,0.0,0.0,0.0,0.0,0.0,0.0,0.0,0.0,0.0,0.0,0.0,0.0,0.0,0.0,0.0,0.0,0.0,0.0,0.0,0.0,0.0,0.0,0.0,0.0,0.0,0.0,0.0,0.0,0.0,0.0,0.0,0.0,0.0,0.0,0.0,0.0,0.0,0.0,0.0,0.0,0.0,0.0,0.0,0.0,0.0,0.0,0.0,0.0,0.0,0.0,0.0,0.0,0.0,0.0,0.0,0.0,0.0,0.0,0.0,0.0,0.0,0.0,0.0,0.0,0.0,0.0,0.0,0.0,0.2534,0.2315,0.2037,0.1633,0.0545,0.0861,0.2538,0.0,0.0,0.0,0.0,0.0,0.0,0.0,0.0,0.0,0.0,0.0,0.0,0.0,0.0,0.0,0.0,0.0,0.0,0.0,0.0,0.0,0.0,0.0,0.0,0.0,0.0,0.0,0.0,0.0,0.0,0.0,0.0,0.0,0.0,0.0,0.0,0.0,0.0,0.0,0.0,0.0,0.0,0.0,0.0,0.0,0.0,0.0,0.0,0.0,0.0,0.0,0.0,0.0,0.0,0.0,0.0,0.0,0.0,0.0,0.0,0.0,0.0,0.0,0.0,0.0,0.0,0.0,0.0,0.0,0.0,0.0,0.0,0.0,0.0,0.0,0.0,0.0,0.0,0.0,0.0,0.0,0.0,0.0,0.0,0.0,0.0,0.0,0.0,0.0,0.0,0.0,0.0,0.0,0.0,0.0,0.0,0.0,0.0,0.0,0.0,0.0,0.0,0.0,0.0,0.0,0.0,0.0,0.0,0.0887,0.1262,0.1317,0.0939,0.0353,0.006,0.0,0.0,0.0,0.0,0.0,0.0,0.0,0.0,0.0,0.0,0.0,0.0,0.0,0.0,0.0,0.0,0.0,0.0,0.0,0.0,0.0,0.0,0.0,0.0,0.0,0.0,0.0,0.0,0.0,0.0,0.0,0.0,0.0,0.0,0.0,0.0,0.0,0.0,0.0,0.0,0.0,0.0,0.0,0.0,0.0,0.0,0.0,0.0,0.0,0.0,0.0,0.0,0.0,0.0,0.0,0.0,0.0,0.0,0.0,0.0,0.0,0.0,0.0,0.0,0.0,0.0,0.0,0.0,0.0,0.0,0.0,0.0,0.0,0.0,0.0,0.0,0.0,0.0,0.0,0.0,0.0,0.0,0.0,0.0,0.0,0.0,0.0,0.0,0.0,0.0,0.0,0.0,0.0,0.0,0.0,0.0,0.0,0.0,0.0,0.0,0.0,0.0,0.0,0.0,0.0,0.0,0.0,0.0,0.0,0.0976,0.109,0.1066,0.0911,0.0739,0.0519,0.0,0.0,0.0,0.0,0.0,0.0,0.0,0.0,0.0,0.0,0.0,0.0,0.0,0.0,0.0,0.0,0.0,0.0,0.0,0.0,0.0,0.0,0.0,0.0,0.0,0.0,0.0,0.0,0.0,0.0,0.0,0.0,0.0,0.0,0.0,0.0,0.0,0.0,0.0,0.0,0.0,0.0,0.0,0.0,0.0,0.0,0.0,0.0,0.0,0.0,0.0,0.0,0.0,0.0,0.0,0.0,0.0,0.0,0.0,0.0,0.0,0.0,0.0,0.0,0.0,0.0,0.0,0.0,0.0,0.0,0.0,0.0,0.0,0.0,0.0,0.0,0.0,0.0,0.0,0.0,0.0,0.0,0.0,0.0,0.0,0.0,0.0,0.0,0.0,0.0,0.0,0.0,0.0,0.0,0.0,0.0,0.0,0.0,0.0,0.0,0.0,0.0,0.0,0.0,0.0,0.0,0.0,0.0,0.1019,0.1008,0.1007,0.0984,0.0937,0.0923,0.0809,0.0,0.0,0.0,0.0,0.0,0.0,0.0,0.0,0.0,0.0,0.0,0.0,0.0,0.0,0.0,0.0,0.0,0.0,0.0,0.0,0.0,0.0,0.0,0.0,0.0,0.0,0.0,0.0,0.0,0.0,0.0,0.0,0.0,0.0,0.0,0.0,0.0,0.0,0.0,0.0,0.0,0.0,0.0,0.0,0.0,0.0,0.0,0.0,0.0,0.0,0.0,0.0,0.0,0.0,0.0,0.0,0.0,0.0,0.0,0.0,0.0,0.0,0.0,0.0,0.0,0.0,0.0,0.0,0.0,0.0,0.0,0.0,0.0,0.0,0.0,0.0,0.0,0.0,0.0,0.0,0.0,0.0,0.0,0.0,0.0,0.0,0.0,0.0,0.0,0.0,0.0,0.0,0.0,0.0,0.0,0.0,0.0,0.0,0.0,0.0,0.0,0.0,0.0,0.0,0.0,0.0,0.0,0.0,0.1063,0.1039,0.1038,0.1089,0.0998,0.0965,0.0887,0.0,0.0,0.0,0.0,0.0,0.0,0.0,0.0,0.0,0.0,0.0,0.0,0.0,0.0,0.0,0.0,0.0,0.0,0.0,0.0,0.0,0.0,0.0,0.0,0.0,0.0,0.0,0.0,0.0,0.0,0.0,0.0,0.0,0.0,0.0,0.0,0.0,0.0,0.0,0.0,0.0,0.0,0.0,0.0,0.0,0.0,0.0,0.0,0.0,0.0,0.0,0.0,0.0,0.0,0.0,0.0,0.0,0.0,0.0,0.0,0.0,0.0,0.0,0.0,0.0,0.0,0.0,0.0,0.0,0.0,0.0,0.0,0.0,0.0,0.0,0.0,0.0,0.0,0.0,0.0,0.0,0.0,0.0,0.0,0.0,0.0,0.0,0.0,0.0,0.0,0.0,0.0,0.0,0.0,0.0,0.0,0.0,0.0,0.0,0.0,0.0,0.0,0.0,0.0,0.0,0.0,0.0,0.0,0.1073,0.1067,0.1067,0.113,0.1057,0.1006,0.0967,0.0,0.0,0.0,0.0,0.0,0.0,0.0,0.0,0.0,0.0,0.0,0.0,0.0,0.0,0.0,0.0,0.0,0.0,0.0,0.0,0.0,0.0,0.0,0.0,0.0,0.0,0.0,0.0,0.0,0.0,0.0,0.0,0.0,0.0,0.0,0.0,0.0,0.0,0.0,0.0,0.0,0.0,0.0,0.0,0.0,0.0,0.0,0.0,-0.1042,0.0,0.0,0.0,0.0,0.0,0.0,0.0,0.0,0.0,0.0,0.0,0.0,0.0,0.0,0.0,0.0,0.0,0.0,0.0,0.0,0.0,0.0,0.0,0.0,0.0,0.0,0.0,0.0,0.0,0.0,0.0,0.0,0.0,0.0,0.0,0.0,0.0,0.0,0.0,0.0,0.0,0.0,0.0,0.0,0.0,0.0,0.0,0.0,0.0,0.0,0.0,0.0,0.0,0.0,0.0,0.0,0.0,0.0,0.0,0.1008,0.0739,0.0941,0.1008,0.0739,0.0915,0.1015,0.0,0.0,0.0,0.0,0.0,0.0,0.0,0.0,0.0,0.0,0.0,0.0,0.0,0.0,0.0,0.0,0.0,0.0,0.0,0.0,0.0,0.0,0.0,0.0,0.0,0.0,0.0,0.0,0.0,0.0,0.0,0.0,0.0,0.0,0.0,0.0,0.0,0.0,0.0,0.0,0.0,0.0,0.0,0.0,0.0,0.0,0.0,0.0,0.0,0.0,0.0,0.0,0.0,0.0,0.0,0.0,0.0,0.0,0.0,0.0,0.0,0.0,0.0,0.0,0.0,0.0,0.0,0.0,0.0,0.0,0.0,0.0,0.0,0.0,0.0,0.0,0.0,0.0,0.0,0.0,0.0,0.0,0.0,0.0,0.0,0.0,0.0,0.0,0.0,0.0,0.0,0.0,0.0,0.0,0.0,0.0,0.0,0.0,0.0,0.0,0.0,0.0,0.0,0.0,0.0,0.0,0.0,0.1076,0.0806,0.0336,0.047,0.047,0.0336,0.0739,0.0932,0.091,0.0,0.0,0.0,0.0,0.0,0.0,0.0,0.0,0.0,0.0,0.0,0.0,0.0,0.0,0.0,0.0,0.0,0.0,0.0,0.0,0.0,0.0,0.0,0.0,0.0,0.0,0.0,0.0,0.0,0.0,0.0,0.0,0.0,0.0,0.0,0.0,0.0,0.0,-0.1658,-0.1516,0.0,0.0,0.0,0.0,0.0,0.0,0.0,0.0,-0.2837,0.0,0.0,0.0,0.0,0.0,0.0,0.0,0.0,0.0,0.0,0.0,0.0,0.0,0.0,0.0,0.0,0.0,0.0,0.0,0.0,0.0,0.0,0.0,0.0,0.0,0.0,0.0,0.0,0.0,0.0,0.0,0.0,0.0,0.0,0.0,0.0,0.0,0.0,0.0,0.0,0.0,0.0,0.0,0.0,0.0,0.0,0.0,0.0,0.0,0.0,0.0,0.0,0.0,0.0,0.0,0.0,0.1076,0.1076,0.0873,0.0269,-0.1008,-0.1008,0.0269,0.0403,0.0402,0.04,0.0,0.0,0.0,0.0,0.0,0.0,0.0,0.0,0.0,0.0,0.0,0.0,0.0,0.0,0.0,0.0,0.0,0.0,0.0,0.0,0.0,0.0,0.0,0.0,0.0,0.0,0.0,0.0,0.0,0.0,0.0,0.0,0.0,0.0,0.0,0.0,0.0,0.0,0.0,-0.278,-0.2905,0.0,0.0,0.0,0.0,0.0,0.0,0.0,0.0,-0.4081,0.0,0.0,0.0,0.0,0.0,0.0,0.0,0.0,0.0,0.0,0.0,0.0,0.0,0.0,0.0,0.0,0.0,0.0,0.0,0.0,0.0,0.0,0.0,0.0,0.0,0.0,0.0,0.0,0.0,0.0,0.0,0.0,0.0,0.0,0.0,0.0,0.0,0.0,0.0,0.0,0.0,0.0,0.0,0.0,0.0,0.0,0.0,0.0,0.0,0.0,0.0,0.0,0.0,0.0,0.0,0.1076,0.1076,0.0739,-0.0134,-0.1479,-0.1681,-0.0538,-0.0269,-0.0269,0.0,0.0,0.0,0.0,0.0,0.0,0.0,0.0,0.0,0.0,0.0,0.0,0.0,0.0,0.0,0.0,0.0,0.0,0.0,0.0,0.0,0.0,0.0,0.0,0.0,0.0,0.0,0.0,0.0,0.0,0.0,0.0,0.0,0.0,0.0,0.0,0.0,0.0,0.0,0.0,-0.3257,-0.3359,-0.3719,0.0,0.0,0.0,0.0,0.0,0.0,-0.4584,-0.4928,0.0,0.0,0.0,0.0,0.0,0.0,0.0,0.0,0.0,0.0,0.0,0.0,0.0,0.0,0.0,0.0,0.0,0.0,0.0,0.0,0.0,0.0,0.0,0.0,0.0,0.0,0.0,0.0,0.0,0.0,0.0,0.0,0.0,0.0,0.0,0.0,0.0,0.0,0.0,0.0,0.0,0.0,0.0,0.0,0.0,0.0,0.0,0.0,0.0,0.0,0.0,0.0,0.0,0.0,0.0,0.1076,0.1076,0.0605,-0.047,-0.1614,-0.1883,-0.1143,-0.0806,-0.0806,0.0,0.0,0.0,0.0,0.0,0.0,0.0,0.0,0.0,0.0,0.0,0.0,0.0,0.0,0.0,0.0,0.0,0.0,0.0,0.0,0.0,0.0,0.0,0.0,0.0,0.0,0.0,0.0,0.0,0.0,0.0,0.0,0.0,0.0,0.0,0.0,0.0,0.0,0.0,0.0,0.0,-0.3714,-0.3804,-0.3864,0.0,0.0,0.0,0.0,-0.4473,-0.5006,0.0,0.0,0.0,0.0,0.0,0.0,0.0,0.0,0.0,0.0,0.0,0.0,0.0,0.0,0.0,0.0,0.0,0.0,0.0,0.0,0.0,0.0,0.0,0.0,0.0,0.0,0.0,0.0,0.0,0.0,0.0,0.0,0.0,0.0,0.0,0.0,0.0,0.0,0.0,0.0,0.0,0.0,0.0,0.0,0.0,0.0,0.0,0.0,0.0,0.0,0.0,0.0,0.0,0.0,0.0,0.0,0.1076,0.1076,0.0605,-0.047,-0.1614,-0.1681,-0.0605,-0.0873,-0.0873,0.0,0.0,0.0,0.0,0.0,0.0,0.0,0.0,0.0,0.0,0.0,0.0,0.0,0.0,0.0,0.0,0.0,0.0,0.0,0.0,0.0,0.0,0.0,0.0,0.0,0.0,0.0,0.0,0.0,0.0,0.0,0.0,0.0,0.0,0.0,0.0,0.0,0.0,0.0,0.0,0.0,-0.4485,-0.4806,-0.4972,-0.5264,0.0,0.0,-0.5574,-0.5204,-0.5404,0.0,0.0,0.0,0.0,0.0,0.0,0.0,0.0,0.0,0.0,0.0,0.0,0.0,0.0,0.0,0.0,0.0,0.0,0.0,0.0,0.0,0.0,0.0,0.0,0.0,0.0,0.0,0.0,0.0,0.0,0.0,0.0,0.0,0.0,0.0,0.0,0.0,0.0,0.0,0.0,0.0,0.0,0.0,0.0,0.0,0.0,0.0,0.0,0.0,0.0,0.0,0.0,0.0,0.0,0.0,0.0941,0.0672,0.0941,0.0739,-0.0067,-0.0806,-0.1008,-0.0538,-0.0873,-0.1076,0.0,0.0,0.0,0.0,0.0,0.0,0.0,0.0,0.0,0.0,0.0,0.0,0.0,0.0,0.0,0.0,0.0,0.0,0.0,0.0,0.0,0.0,0.0,0.0,0.0,0.0,0.0,0.0,0.0,0.0,0.0,0.0,0.0,0.0,0.0,0.0,0.0,0.0,0.0,0.0,0.0,0.0,-0.472,-0.494,0.0,0.0,0.0,-0.5808,-0.5633,0.0,0.0,0.0,0.0,0.0,0.0,0.0,0.0,0.0,0.0,0.0,0.0,0.0,0.0,0.0,0.0,0.0,0.0,0.0,0.0,0.0,0.0,0.0,0.0,0.0,0.0,0.0,0.0,0.0,0.0,0.0,0.0,0.0,0.0,0.0,0.0,0.0,0.0,0.0,0.0,0.0,0.0,0.0,0.0,0.0,0.0,0.0,0.0,0.0,0.0,0.0,0.0,0.0,0.0,0.0,0.0,0.0,0.0336,0.0806,0.0806,0.0336,0.0067,-0.0134,-0.0336,-0.0739,0.0,0.0,0.0,0.0,0.0,0.0,0.0,0.0,0.0,0.0,0.0,0.0,0.0,0.0,0.0,0.0,0.0,0.0,0.0,0.0,0.0,0.0,0.0,0.0,0.0,0.0,0.0,-0.1806,0.0,0.0,0.0,0.0,0.0,0.0,0.0,0.0,0.0,0.0,0.0,0.0,0.0,0.0,-0.5083,-0.4798,-0.5012,-0.5298,0.0,0.0,-0.5987,-0.5875,-0.594,-0.6088,0.0,0.0,0.0,0.0,0.0,0.0,0.0,0.0,0.0,0.0,0.0,0.0,0.0,0.0,0.0,0.0,0.0,0.0,0.0,0.0,0.0,0.0,0.0,0.0,0.0,0.0,0.0,0.0,0.0,0.0,0.0,0.0,0.0,0.0,0.0,0.0,0.0,0.0,0.0,0.0,0.0,0.0,0.0,0.0,0.0,0.0,0.0,0.0,0.0,0.0,0.0,0.0,0.0,0.0,0.0,0.0336,0.0806,0.0873,0.0336,0.0739,0.0739,0.0269,-0.0269,-0.0538,0.0,0.0,0.0,0.0,0.0,0.0,0.0,0.0,0.0,0.0,0.0,0.0,0.0,0.0,0.0,0.0,0.0,0.0,0.0,0.0,0.0,0.0,0.0,0.0,0.0,0.0,0.0,0.0,0.0,0.0,0.0,0.0,0.0,0.0,0.0,0.0,0.0,0.0,0.0,0.0,0.0,-0.5859,-0.5584,-0.5832,-0.5944,0.0,-0.5973,-0.6083,-0.6079,-0.5972,-0.5988,-0.6353,0.0,0.0,0.0,0.0,0.0,0.0,0.0,0.0,0.0,0.0,0.0,0.0,0.0,0.0,0.0,0.0,0.0,0.0,0.0,0.0,0.0,0.0,0.0,0.0,0.0,0.0,0.0,0.0,0.0,0.0,0.0,0.0,0.0,0.0,0.0,0.0,0.0,0.0,0.0,0.0,0.0,0.0,0.0,0.0,0.0,0.0,0.0,0.0,0.0,0.0,0.0,0.0,0.0,0.0336,-0.0202,0.0672,0.1008,0.0806,0.1008,0.1008,0.0806,0.0605,0.0336,0.0,0.0,0.0,0.0,0.0,0.0,0.0,0.0,0.0,0.0,0.0,0.0,0.0,0.0,0.0,0.0,0.0,0.0,0.0,0.0,0.0,0.0,0.0,0.0,0.0,0.0,0.0,0.0,-0.2538,-0.3166,-0.4365,0.0,0.0,0.0,0.0,0.0,0.0,0.0,0.0,0.0,0.0,-0.6316,-0.6147,-0.6262,0.0,0.0,-0.6194,-0.6297,-0.6005,-0.613,-0.625,-0.6186,-0.6306,0.0,0.0,0.0,0.0,0.0,0.0,0.0,0.0,0.0,0.0,0.0,0.0,0.0,0.0,0.0,0.0,0.0,0.0,0.0,0.0,0.0,0.0,0.0,0.0,0.0,0.0,0.0,0.0,0.0,0.0,0.0,0.0,0.0,0.0,0.0,0.0,0.0,0.0,0.0,0.0,0.0,0.0,0.0,0.0,0.0,0.0,0.0,0.0,0.0,0.0,0.0,0.0,0.0067,-0.047,0.0538,0.1076,0.1076,0.1076,0.1076,0.1076,0.1076,0.0873,0.0,0.0,0.0,0.0,0.0,0.0,0.0,0.0,0.0,0.0,0.0,0.0,0.0,0.0,0.0,0.0,0.0,0.0,0.0,0.0,0.0,0.0,0.0,0.0,0.0,0.0,0.0,0.0,-0.333,-0.4216,-0.551,0.0,0.0,0.0,0.0,0.0,0.0,0.0,0.0,0.0,0.0,-0.6667,-0.6722,-0.6889,-0.6866,-0.6623,-0.6979,-0.7083,-0.6294,-0.6542,-0.6661,-0.6414,0.0,0.0,0.0,0.0,0.0,0.0,0.0,0.0,0.0,0.0,0.0,0.0,0.0,0.0,0.0,0.0,0.0,0.0,0.0,0.0,0.0,0.0,0.0,0.0,0.0,0.0,0.0,0.0,0.0,0.0,0.5292,0.0,0.0,0.0,0.0,0.0,0.0,0.0,0.0,0.0,0.0,0.0,0.0,0.0,0.0,0.0,0.0,0.0,0.0,0.0,0.0,0.0,0.0,-0.0,-0.047,0.0538,0.1076,0.1076,0.1076,0.1076,0.1076,0.1076,0.0873,0.0336,0.0,0.0,0.0,0.0,0.0,0.0,0.0,0.0,0.0,0.0,0.0,0.0,0.0,0.0,0.0,0.0,0.0,0.0,0.0,0.0,0.0,0.0,0.0,0.0,0.0,0.0,-0.3559,-0.4716,-0.5627,0.0,0.0,0.0,0.0,0.0,0.0,0.0,0.0,0.0,0.0,-0.6921,-0.6966,-0.731,-0.7669,-0.7752,-0.7633,-0.8312,-0.8398,-0.7046,-0.7307,-0.7507,0.0,0.0,0.0,0.0,0.0,0.0,0.0,0.0,0.0,0.0,0.0,0.0,0.0,0.0,0.0,0.0,0.0,0.0,0.0,0.0,0.0,0.0,0.0,0.0,0.0,0.0,0.0,0.5428,0.5428,0.0,0.0,0.0,0.0,0.0,0.0,0.0,0.0,0.0,0.0,0.0,0.1814,0.1745,0.0,0.0,0.0,0.0,0.0,0.0,0.0,0.0,0.0,0.0,0.0,0.0,-0.0336,-0.047,0.0538,0.1076,0.1076,0.1076,0.1076,0.1076,0.1076,0.1008,0.0806,0.0,0.0,0.0,0.0,0.0,0.0,0.0,0.0,0.0,0.0,0.0,0.0,0.0,0.0,0.0,0.0,0.0,0.0,0.0,0.0,0.0,0.0,0.0,0.0,0.0,-0.2663,0.0,0.0,0.0,0.0,0.0,0.0,0.0,0.0,0.0,0.0,0.0,-0.7358,-0.7116,-0.7235,-0.7316,-0.7433,-0.756,-0.7604,0.0,0.0,0.0,0.0,0.0,0.0,0.0,0.0,0.0,0.0,0.0,0.0,0.0,0.0,-0.6173,-0.6241,-0.6245,-0.625,-0.5981,0.0,0.0,0.0,0.0,0.0,0.0,0.0,0.0,0.0,0.0,0.0,0.0,0.0,0.0,0.5428,0.0,0.5428,0.0,0.0,0.0,0.0,0.0,0.0,0.0,0.0,0.1879,0.2014,0.1814,0.1746,0.1545,0.0,0.1076,0.1076,0.0,0.0,0.0,0.0,0.0,0.0,0.0,0.0,-0.0202,-0.0202,0.0672,0.1076,0.1076,0.1076,0.1076,0.1076,0.1076,0.1076,0.1076,0.1076,0.1076,0.0,0.0,0.0,0.0,0.0,0.0,0.0,0.0,0.0,0.0,0.0,0.0,0.0,0.0,0.0,0.0,0.0,0.0,0.0,0.0,0.0,0.0,0.0,-0.3454,0.0,0.0,0.0,0.0,0.0,0.0,0.0,0.0,0.0,-0.7026,-0.7366,-0.7706,-0.7911,-0.7896,-0.8037,-0.849,0.0,0.0,0.0,0.0,0.0,0.0,0.0,-0.7456,-0.7269,-0.7138,-0.7007,-0.6741,-0.6613,-0.6613,-0.6548,0.0,0.0,-0.6416,-0.6486,-0.6548,-0.6482,-0.6416,-0.6284,-0.642,-0.6424,-0.6432,0.0,0.0,0.0,0.0,0.0,0.0,0.0,0.0,0.5432,0.5359,0.0,0.5226,0.0,0.0,0.0,0.0,0.0,0.1745,0.0,0.0,0.2012,0.2417,0.2956,0.1747,0.1076,0.1076,0.1076,0.1076,0.1076,0.1076,0.0,0.0,0.0,0.0,0.0,0.0,0.0336,0.0336,0.0806,0.1076,0.1076,0.1076,0.1076,0.1076,0.1076,0.1076,0.1076,0.1076,0.1076,0.1076,0.1076,0.0,0.0,0.0,0.0,0.0,0.0,0.0,0.0,0.0,0.0,0.0,0.0,0.0,0.0,0.0,0.0,0.0,0.0,0.0,0.0,-0.3818,0.0,0.0,0.0,0.0,0.0,0.0,0.0,0.0,0.0,0.0,-0.7507,-0.8032,-0.87,-0.9397,0.0,0.0,0.0,0.0,-1.0421,-1.0358,-1.0421,-0.9907,-0.8619,-0.8296,-0.7977,-0.7335,0.0,0.0,-0.6465,-0.6671,-0.6881,-0.6946,-0.6671,-0.64,-0.6416,-0.6613,-0.6745,-0.6675,-0.6342,-0.6148,-0.6288,-0.6304,-0.6254,0.4154,0.0,0.0,0.0,0.0,0.4553,0.5229,0.5432,0.5428,0.5024,0.4281,0.2933,0.0,0.0,0.0,0.0,0.0,0.0,0.1411,0.1411,0.1411,0.1478,0.168,0.1277,0.1076,0.1076,0.1076,0.1076,0.1076,0.1076,0.0806,0.0336,0.0,0.0,0.0,0.0,0.0336,0.0336,0.0806,0.1076,0.1076,0.1076,0.1076,0.1076,0.1076,0.1076,0.1076,0.1076,0.1076,0.1076,0.1076,0.0,0.0,0.0,0.0,0.0,0.0,0.0,0.0,0.0,0.0,0.0,0.0,0.0,0.0,0.0,0.0,0.0,0.0,0.0,-0.3088,-0.4151,-0.508,0.0,0.0,0.0,0.0,0.0,0.0,0.0,0.0,0.0,-0.7526,-0.7652,-0.8182,0.0,0.0,-0.8807,-0.9652,-0.939,-0.9069,-0.9069,-0.8683,0.0,-0.7847,-0.7717,-0.7652,-0.7461,-0.7265,-0.7007,-0.6806,-0.6876,-0.7016,-0.7292,-0.7016,-0.6745,-0.6745,-0.6207,-0.5997,-0.6141,-0.5885,-0.5624,-0.569,-0.5697,-0.5229,0.4891,0.4154,0.4556,0.4483,0.4146,0.5024,0.5428,0.5428,0.5428,0.4818,0.3811,0.2531,0.2268,0.2681,0.1609,0.0,0.0,0.0,0.1076,0.1076,0.1076,0.1076,0.1076,0.1076,0.1076,0.1076,0.1088,0.1093,0.1094,0.1106,0.0973,0.0624,0.0,0.0,0.0134,0.047,0.0605,0.0672,0.0941,0.1076,0.1076,0.1076,0.1076,0.1076,0.1076,0.1076,0.1076,0.1076,0.1076,0.1077,0.1076,0.1076,0.0,0.0,0.0,0.0,0.0,0.0,0.0,0.0,0.0,0.0,0.0,-0.2351,-0.2557,0.0,0.0,0.0,-0.2889,-0.322,-0.3954,-0.4815,0.0,0.0,0.0,0.0,0.0,0.0,0.0,-0.7526,-0.7526,-0.7526,-0.7526,-0.7526,-0.7787,-0.8635,-0.9075,-0.9454,-0.9837,0.0,-0.9703,-0.9703,-0.9128,-0.8619,-0.8355,-0.8037,-0.7777,-0.7526,-0.7396,-0.7265,-0.7138,-0.7138,-0.7209,-0.7414,-0.7279,-0.7138,-0.7138,-0.6601,-0.6272,-0.6474,-0.6017,-0.5627,-0.5627,-0.5024,-0.4082,0.5428,0.5428,0.5362,0.5428,0.5428,0.5428,0.5428,0.5428,0.5428,0.4818,0.388,0.34,0.2804,0.208,0.1411,0.0,0.1076,0.1076,0.1076,0.1076,0.1076,0.1076,0.1079,0.1079,0.108,0.1084,0.1111,0.1125,0.1126,0.1153,0.1166,0.1091,0.111,0.1083,0.1082,0.1083,0.1083,0.1083,0.1084,0.1082,0.1079,0.1078,0.1076,0.1076,0.1076,0.1076,0.1076,0.1076,0.1077,0.1078,0.1077,0.1077,0.1079,0.0,0.0,0.0,0.0,0.0,0.0,0.0,0.0,0.0,0.0,0.0,0.0,0.0,0.0,0.0,-0.3687,0.0,-0.4815,-0.5543,0.0,0.0,0.0,-0.7526,-0.7526,-0.7526,-0.7526,-0.7526,0.0,0.0,-0.7526,-0.754,-0.7596,-0.7553,-0.9175,-1.0421,-1.0485,-1.0989,-1.1505,-1.131,-1.0863,-1.0168,-0.9454,-0.8877,-0.8236,-0.7587,-0.7526,-0.7461,-0.7461,-0.7461,-0.7526,-0.7526,-0.7526,-0.7526,-0.7526,-0.7414,-0.7424,-0.7209,-0.6482,-0.5888,-0.5686,-0.4483,-0.3284,0.5428,0.5428,0.5428,0.5428,0.5428,0.5428,0.5428,0.5428,0.5428,0.4957,0.4148,0.354,0.2809,0.208,0.1411,0.1076,0.1076,0.1076,0.1076,0.1076,0.1076,0.1088,0.111,0.111,0.1123,0.1144,0.1152,0.1155,0.1156,0.1163,0.1166,0.1092,0.1151,0.1145,0.1073,0.1145,0.1144,0.1145,0.1144,0.1134,0.1111,0.1089,0.1078,0.1078,0.1078,0.1078,0.1078,0.1078,0.1078,0.1078,0.0809,0.0809,0.1078,0.0742,0.0,0.0,0.0,0.0,0.0,0.0,0.0,0.0,0.0,-0.2753,-0.3159,0.0,-0.3689,0.0,-0.3756,-0.4217,-0.5077,-0.5345,0.0,0.0,-0.7391,-0.7526,-0.7526,-0.7526,-0.7526,-0.7526,-0.7526,-0.7526,-0.7526,-0.8062,-0.8369,-0.8033,-0.9,-0.9901,-1.0421,-1.0611,-1.0737,-1.0688,-1.0187,-0.9709,-0.9478,-0.8941,-0.8242,-0.7587,-0.7531,-0.7526,-0.7526,-0.7526,-0.7526,-0.7526,-0.7526,-0.7526,-0.7526,-0.7531,-0.747,-0.7396,-0.6609,-0.5617,-0.4869,-0.4342,-0.3951,0.549,0.5555,0.549,0.5421,0.5415,0.542,0.5428,0.5428,0.5428,0.4957,0.4284,0.3544,0.3147,0.3015,0.2013,0.1555,0.1573,0.1233,0.1103,0.1116,0.1186,0.1125,0.107,0.1141,0.115,0.124,0.1254,0.1187,0.1187,0.12,0.1206,0.1207,0.1206,0.1207,0.1205,0.1181,0.1166,0.1166,0.1166,0.1158,0.1142,0.1126,0.1118,0.1118,0.0908,0.0764,0.0618,0.0755,0.096,0.1097,0.0755,0.0548,0.0617,0.0686,0.0546,0.0,0.0,0.0,0.0,0.0,0.0,0.0,0.0,0.0,0.0,0.0,-0.4161,-0.4359,-0.4556,-0.502,-0.5877,-0.6133,-0.663,-0.7522,-0.7531,-0.7559,-0.7721,-0.7735,-0.7803,-0.7735,-0.7735,-0.7662,-0.7518,-0.8103,-0.8467,-0.8349,-0.8904,-0.9475,-0.9802,-1.0139,-1.0337,-1.0271,-1.0007,-0.9675,-0.9403,-0.8735,-0.8203,-0.787,-0.7803,-0.773,-0.7581,-0.7588,-0.7603,-0.7527,-0.7522,-0.7526,-0.7526,-0.7526,-0.7526,-0.7396,-0.7064,-0.6474,-0.587,-0.5348,-0.4891,0.5591,0.5659,0.5519,0.5447,0.5428,0.5391,0.542,0.5416,0.5416,0.5078,0.4467,0.3792,0.3792,0.4266,0.2845,0.2199,0.2179,0.1478,0.1141,0.1166,0.1166,0.1169,0.1099,0.1172,0.1248,0.1327,0.128,0.1217,0.1219,0.1244,0.1336,0.1336,0.1336,0.1336,0.1334,0.1204,0.1251,0.1252,0.1174,0.1172,0.1172,0.1095,0.102,0.102,0.0729,0.0433,-0.0,0.0282,0.0633,0.0986,0.0775,0.0422,0.007,0.063,0.0693,0.0,-0.0,0.0,0.0,0.0,0.0,0.0,0.0,0.0,0.0,-0.4303,-0.4503,-0.5116,-0.5586,-0.6125,-0.6743,-0.7206,-0.7612,-0.7792,-0.7674,-0.7739,-0.8051,-0.8155,-0.8155,-0.808,-0.808,-0.7929,-0.769,-0.7948,-0.8274,-0.8649,-0.8872,-0.908,-0.914,-0.9706,-1.0128,-1.0101,-1.0101,-0.9835,-0.9216,-0.8614,-0.8267,-0.8136,-0.8051,-0.8004,-0.7681,-0.7702,-0.782,-0.766,-0.7534,-0.7489,-0.7541,-0.7527,-0.7503,-0.7513,-0.7489,-0.74,-0.7288,-0.67,-0.5701,0.5372,0.5153,0.5225,0.53,0.5294,0.5244,0.5364,0.5438,0.5432,0.5429,0.5503,0.5151,0.4864,0.4501,0.3151,0.2445,0.2311,0.1518,0.1161,0.1166,0.1166,0.1179,0.1202,0.1203,0.1216,0.1317,0.1245,0.1249,0.1249,0.1254,0.1336,0.1336,0.1336,0.1336,0.1335,0.0,0.0,0.0,0.1216,0.1203,0.1202,0.0811,0.0656,0.0656,0.0947,0.0,0.0072,0.0072,0.0145,0.0217,0.0796,0.0,0.0,0.0,0.0,0.0,0.0,0.0,0.0,0.0,0.0,0.0,-0.4303,-0.4303,-0.4303,-0.4303,-0.4607,-0.5254,-0.5473,-0.5931,-0.704,-0.7263,-0.7486,-0.7948,-0.8023,-0.8037,-0.808,-0.8387,-0.8457,-0.8155,-0.8085,-0.8085,-0.8032,-0.8226,-0.8422,-0.8661,-0.8709,-0.8801,-0.8796,-0.9515,-1.0049,-1.0107,-1.0003,-0.9834,-0.92,-0.8931,-0.8685,-0.8292,-0.808,-0.8089,-0.8023,-0.7995,-0.8028,-0.7948,-0.7692,-0.7655,-0.7873,-0.7761,-0.7576,-0.7721,-0.765,-0.7526,-0.7531,-0.7363,-0.6911,0.5277,0.0,0.5199,0.5277,0.0,0.5429,0.5432,0.5417,0.5729,0.5953,0.6022,0.5731,0.5444,0.5219,0.4576,0.381,0.289,0.2152,0.1645,0.1287,0.1287,0.1219,0.1234,0.1234,0.1243,0.1335,0.1336,0.1336,0.1258,0.1022,0.11,0.1258,0.11,0.0943,0.0943,0.0943,0.11,0.1336,0.1242,0.1234,0.1234,0.099,0.0681,0.0303,0.053,0.0,0.0,0.0,0.0,0.0,0.0,0.0,0.0,0.0219,0.0,-0.0,-0.0,-0.0,-0.0,-0.2086,-0.3695,-0.4404,-0.4444,-0.4378,-0.4387,-0.4439,-0.4568,-0.4909,-0.5476,-0.6291,-0.7162,-0.7517,-0.7838,-0.8222,-0.824,-0.8269,-0.8368,-0.8543,-0.8621,-0.8465,-0.8382,-0.8387,-0.8387,-0.8472,-0.8548,-0.8711,-0.8713,-0.8703,-0.8761,-0.9114,-0.9405,-0.9405,-0.9405,-0.9259,-0.8968,-0.889,-0.8817,-0.846,-0.8387,-0.8387,-0.8387,-0.8307,-0.8313,-0.8308,-0.8079,-0.7858,-0.807,-0.8065,-0.8077,-0.7979,-0.7763,-0.7621,-0.7679,-0.756,-0.7231,0.5323,0.5323,0.5243,0.5243,0.5243,0.5559,0.5494,0.526,0.0,0.0,0.0,0.6033,0.5884,0.5884,0.5895,0.5146,0.3722,0.289,0.2155,0.1492,0.1335,0.1335,0.1336,0.1336,0.1258,0.11,0.11,0.1179,0.1258,0.0943,0.0864,0.1022,0.0707,0.055,0.0629,0.0629,0.0786,0.1179,0.1179,0.1179,0.1179,0.1258,0.0943,0.0236,0.0079,-0.0,-0.0,-0.0,-0.0,-0.0,-0.0,0.0304,0.0985,0.0379,-0.0,-0.0,-0.0,-0.0,-0.0,-0.2673,-0.4426,-0.468,-0.4624,-0.4557,-0.4512,-0.4522,-0.4659,-0.4751,-0.5696,-0.6584,-0.7356,-0.7776,-0.8187,-0.8439,-0.8379,-0.844,-0.8666,-0.8703,-0.8685,-0.8703,-0.8685,-0.8703,-0.8685,-0.8689,-0.8703,-0.8703,-0.8699,-0.8703,-0.8703,-0.8761,-0.8812,-0.8812,-0.8798,-0.8761,-0.8699,-0.868,-0.8703,-0.867,-0.868,-0.8703,-0.8675,-0.8562,-0.8546,-0.8611,-0.8379,-0.8231,-0.8265,-0.8475,-0.8517,-0.8212,-0.7901,-0.7692,-0.7678,-0.7576,-0.7189,0.5249,0.5096,0.5015,0.5015,0.5015,0.5093,0.5072,0.5146,0.5967,0.6287,0.6276,0.6283,0.6207,0.6196,0.5822,0.5366,0.4668,0.3191,0.2421,0.2276,0.1647,0.1334,0.1336,0.1336,0.0943,0.0236,0.055,0.0943,0.1258,0.118,0.0864,0.0236,0.0079,0.0236,0.055,0.0629,0.0629,0.0707,0.0707,0.0707,0.0707,0.11,0.1258,0.11,0.0393,-0.0,-0.0,-0.0,-0.0,-0.0,-0.0,0.0077,-0.0,-0.0,-0.0,-0.0,-0.0,-0.0,-0.0,-0.1747,-0.3354,-0.4654,-0.4743,-0.4683,-0.4643,-0.4715,-0.5061,-0.5683,-0.5845,-0.6578,-0.817,-0.8094,-0.8009,-0.8585,-0.8666,-0.8675,-0.8722,-0.8727,-0.8732,-0.8737,-0.8703,-0.8718,-0.866,-0.8732,-0.8741,-0.8718,-0.877,-0.8722,-0.8727,-0.8703,-0.8703,-0.8703,-0.8703,-0.8703,-0.8703,-0.8703,-0.8703,-0.8703,-0.8703,-0.8703,-0.8703,-0.8666,-0.8633,-0.8656,-0.86,-0.8585,-0.8581,-0.8625,-0.8612,-0.8344,-0.7897,-0.7407,-0.7398,-0.7451,-0.7142,0.5286,0.5208,0.5208,0.5211,0.5208,0.5208,0.5154,0.5028,0.556,0.5773,0.5848,0.6183,0.6263,0.6089,0.6023,0.5512,0.4708,0.3985,0.3192,0.2481,0.17,0.1305,0.1306,0.1307,0.0816,0.0082,0.0163,0.0408,0.0571,0.0571,0.0405,-0.0,-0.0,0.0079,0.0236,0.0236,0.0314,0.0314,0.0314,0.0236,0.0236,0.0471,0.0629,0.055,0.0236,-0.0,-0.0,-0.0,-0.0,-0.0,-0.0,-0.0,-0.0,-0.0,-0.0,-0.0,-0.0,-0.0,-0.0,-0.1561,-0.3216,-0.4707,-0.4906,-0.4836,-0.4857,-0.4852,-0.5025,-0.546,-0.5692,-0.6126,-0.682,-0.7152,-0.7659,-0.8387,-0.848,-0.8555,-0.8709,-0.8955,-0.9044,-0.9039,-0.9039,-0.8955,-0.8704,-0.8876,-0.9039,-0.9039,-0.9039,-0.8996,-0.8897,-0.8878,-0.8831,-0.8732,-0.8703,-0.8703,-0.8703,-0.8703,-0.8703,-0.8703,-0.8703,-0.8703,-0.8703,-0.8703,-0.8703,-0.8703,-0.8703,-0.8703,-0.8703,-0.8713,-0.8656,-0.8548,-0.8249,-0.7911,-0.7816,-0.7394,-0.6545,0.5371,0.5371,0.5371,0.5371,0.5371,0.5371,0.5299,0.5152,0.5323,0.542,0.5521,0.5981,0.6124,0.6022,0.6094,0.5719,0.4984,0.4732,0.4082,0.3033,0.2499,0.1932,0.1179,0.1094,0.0674,-0.0,-0.0,-0.0,-0.0,-0.0,-0.0,-0.0,-0.0,-0.0,-0.0,-0.0,-0.0,-0.0,-0.0,-0.0,-0.0,-0.0,-0.0,-0.0,-0.0,-0.0,-0.0,-0.0,-0.0,-0.0,-0.0,-0.0,-0.0,-0.0,-0.0,-0.0,-0.0,-0.0,-0.0,-0.1598,-0.3224,-0.4862,-0.4967,-0.5053,-0.5059,-0.508,-0.5083,-0.5059,-0.5442,-0.5644,-0.5675,-0.627,-0.713,-0.7906,-0.8254,-0.8479,-0.8819,-0.9155,-0.9322,-0.9322,-0.9322,-0.9141,-0.8978,-0.9145,-0.9304,-0.9294,-0.9322,-0.9256,-0.9119,-0.9091,-0.9001,-0.8836,-0.8737,-0.8703,-0.8703,-0.8703,-0.8703,-0.8703,-0.8703,-0.8703,-0.8703,-0.8703,-0.8703,-0.8703,-0.8703,-0.8703,-0.8703,-0.8699,-0.8689,-0.867,-0.8407,-0.8175,-0.7878,-0.6896,-0.5871,0.5374,0.5371,0.5379,0.5371,0.5379,0.5377,0.5526,0.5615,0.5448,0.551,0.5662,0.5726,0.588,0.5951,0.5862,0.577,0.5767,0.5264,0.4763,0.4596,0.5027,0.3692,0.1011,0.0421,0.0084,-0.0,-0.0,-0.0,-0.0,-0.0,-0.0,-0.0,-0.0,-0.0,-0.0,-0.0,-0.0,-0.0,-0.0,-0.0,-0.0,-0.0,-0.0,-0.0,-0.0,-0.0,-0.0,-0.0,-0.0,-0.0,-0.0,-0.0,-0.0,-0.0,-0.0,-0.0,-0.0,-0.0,-0.0,-0.1562,-0.3205,-0.4797,-0.5042,-0.509,-0.5175,-0.5271,-0.5287,-0.5122,-0.5173,-0.5297,-0.5394,-0.6001,-0.6599,-0.7296,-0.7875,-0.8591,-0.922,-0.9341,-0.9322,-0.9495,-0.9456,-0.9241,-0.9283,-0.9292,-0.9351,-0.9389,-0.9398,-0.9374,-0.9308,-0.9294,-0.9223,-0.9025,-0.8845,-0.8727,-0.8713,-0.8703,-0.8703,-0.8703,-0.8703,-0.8703,-0.8703,-0.8703,-0.8703,-0.8703,-0.8703,-0.8703,-0.8703,-0.8703,-0.8703,-0.8627,-0.8291,-0.7757,-0.7092,-0.6207,-0.5266,0.593,0.6356,0.5843,0.5583,0.5583,0.5586,0.5613,0.5657,0.5659,0.5598,0.5719,0.5714,0.5759,0.5837,0.5763,0.5726,0.5732,0.5642,0.5472,0.5232,0.5556,0.4896,0.3585,0.227,0.1746,0.1573,0.0612,-0.0,-0.0,-0.0,-0.0,-0.0,-0.0,-0.0,-0.0,-0.0,-0.0,-0.0,-0.0,0.0956,0.2518,0.1021,-0.0,-0.0,-0.0,-0.0,-0.0,-0.0,-0.0,-0.0,-0.0,-0.0,-0.0,-0.0,-0.0,-0.0,-0.0,-0.0,-0.0,-0.1666,-0.3441,-0.514,-0.5235,-0.521,-0.5295,-0.5424,-0.5371,-0.5307,-0.5339,-0.5424,-0.5532,-0.5724,-0.6093,-0.684,-0.7204,-0.7982,-0.9653,-0.937,-0.9266,-0.9696,-0.9781,-0.9691,-0.9696,-0.9696,-0.9691,-0.9696,-0.9686,-0.9639,-0.9545,-0.9511,-0.9426,-0.9252,-0.9119,-0.8959,-0.8779,-0.8703,-0.8708,-0.8703,-0.8703,-0.8703,-0.8703,-0.8703,-0.8703,-0.8703,-0.8703,-0.8703,-0.8703,-0.8703,-0.8703,-0.8551,-0.8246,-0.7714,-0.735,-0.6419,-0.565,0.6438,0.6877,0.6086,0.5733,0.5733,0.5733,0.5733,0.5733,0.5733,0.5733,0.5733,0.5733,0.5733,0.5719,0.572,0.5681,0.5602,0.5773,0.5776,0.5619,0.5617,0.5657,0.5576,0.4397,0.3674,0.3496,0.2329,-0.0,-0.0,-0.0,-0.0,-0.0,-0.0,-0.0,-0.0,-0.0,0.0588,-0.0,0.0657,0.1465,0.3692,0.2466,0.0948,-0.0,-0.0,-0.0,-0.0,-0.0,-0.0,-0.0,-0.0,-0.0,-0.0,-0.0,-0.0,-0.0,-0.0,-0.0,-0.0,-0.1286,-0.3092,-0.5102,-0.5363,-0.5336,-0.5426,-0.5535,-0.5593,-0.5575,-0.5521,-0.5515,-0.567,-0.5602,-0.59,-0.6419,-0.6691,-0.7489,-0.8819,-0.8903,-0.9139,-0.9598,-0.9822,-1.0038,-1.0033,-1.0019,-1.0005,-1.0005,-1.0019,-0.9913,-0.9771,-0.9724,-0.9653,-0.9455,-0.9412,-0.9237,-0.8883,-0.8807,-0.8784,-0.8708,-0.8703,-0.8703,-0.8703,-0.8703,-0.8703,-0.8703,-0.8703,-0.8703,-0.8703,-0.8703,-0.8703,-0.8546,-0.8089,-0.7553,-0.7246,-0.6483,-0.5712,0.7051,0.6962,0.6086,0.5733,0.5733,0.5733,0.5733,0.5733,0.5733,0.5733,0.5733,0.5733,0.5733,0.5733,0.5719,0.5722,0.5722,0.5716,0.5714,0.5716,0.573,0.5738,0.5746,0.5568,0.5481,0.5305,0.5034,0.3409,-0.0,-0.0,-0.0,-0.0,-0.0,-0.0,-0.0,-0.0,-0.0,0.4221,0.1931,0.1171,0.3002,0.4183,0.3132,-0.0,-0.0,-0.0,-0.0,-0.0,-0.0,-0.0,-0.0,-0.0,-0.0,-0.0,-0.0,-0.0,-0.0,-0.0,-0.0,-0.0,-0.1643,-0.4787,-0.5318,-0.5464,-0.5551,-0.5627,-0.5687,-0.5719,-0.5695,-0.57,-0.5708,-0.5703,-0.5714,-0.5813,-0.6432,-0.6779,-0.7044,-0.8189,-0.8803,-0.9069,-0.9598,-0.9946,-1.0038,-1.0038,-1.0038,-1.0038,-1.0038,-1.0024,-1.0005,-0.9918,-0.9828,-0.9696,-0.9606,-0.9488,-0.9115,-0.9011,-0.8916,-0.8817,-0.8774,-0.8718,-0.8708,-0.8703,-0.8703,-0.8703,-0.8703,-0.8703,-0.8703,-0.8703,-0.8703,-0.8399,-0.7629,-0.7165,-0.7076,-0.5935,-0.5318,0.7665,0.7051,0.6086,0.5733,0.5733,0.5733,0.5733,0.5733,0.5733,0.5733,0.5733,0.5733,0.5733,0.5733,0.5733,0.5733,0.5733,0.5733,0.5733,0.5733,0.5733,0.5735,0.5741,0.5738,0.5738,0.5744,0.5662,0.5032,0.3499,0.1254,0.0627,0.1973,0.3053,0.3129,0.2042,0.1861,0.2633,0.3705,0.3523,0.401,0.4464,0.5181,0.4639,0.3195,0.1113,-0.0,-0.0,-0.0,-0.0,-0.0,-0.0,-0.0,-0.0,-0.0,-0.0,-0.0,-0.0,-0.0,-0.0,-0.0,-0.051,-0.1973,-0.4293,-0.5585,-0.5596,-0.5711,-0.5733,-0.5733,-0.5733,-0.5733,-0.5733,-0.5733,-0.5733,-0.5733,-0.5908,-0.6346,-0.6779,-0.7305,-0.7834,-0.8715,-0.951,-0.9951,-1.0038,-1.0038,-1.0038,-1.0038,-1.0038,-1.0038,-1.0038,-1.0038,-0.9913,-0.9866,-0.9833,-0.9743,-0.9483,-0.9289,-0.9157,-0.9001,-0.8902,-0.8822,-0.8784,-0.8718,-0.8703,-0.8703,-0.8703,-0.8703,-0.8703,-0.8703,-0.8703,-0.847,-0.7706,-0.7157,-0.6908,-0.624,-0.5699,0.7753,0.6612,0.5997,0.5733,0.5733,0.5733,0.5733,0.5733,0.5733,0.5733,0.5733,0.5733,0.5733,0.5733,0.5733,0.5733,0.5733,0.5733,0.5733,0.5733,0.5733,0.5733,0.5733,0.5733,0.5733,0.5733,0.5738,0.5749,0.5481,0.3135,0.2597,0.3857,0.5124,0.5124,0.3946,0.3765,0.3826,0.4047,0.51,0.5673,0.559,0.5636,0.5532,0.4818,0.2288,0.0481,-0.0,-0.0,-0.0,-0.0,-0.0,-0.0,-0.0,-0.0,-0.0,-0.0,-0.0,-0.0,-0.0,-0.0,-0.0,-0.0,-0.2841,-0.4935,-0.5565,-0.5741,-0.5735,-0.5733,-0.5733,-0.5733,-0.5733,-0.5733,-0.5733,-0.5733,-0.5733,-0.5908,-0.6343,-0.6691,-0.7485,-0.8623,-0.9244,-0.9685,-0.9951,-1.0038,-1.0038,-1.0038,-1.0038,-1.0038,-1.0038,-1.0038,-1.0038,-1.0033,-1.0024,-0.988,-0.9748,-0.9611,-0.9393,-0.9228,-0.9044,-0.8949,-0.8845,-0.877,-0.8713,-0.8708,-0.8703,-0.8703,-0.8703,-0.8703,-0.8703,-0.8623,-0.8008,-0.731,-0.7084,-0.6865,-0.6234,0.7401,0.5911,0.5733,0.5733,0.5733,0.5733,0.5733,0.5733,0.5733,0.5733,0.5733,0.5733,0.5733,0.5733,0.5733,0.5733,0.5733,0.5733,0.5733,0.5733,0.5733,0.5733,0.5733,0.5733,0.5733,0.5733,0.5733,0.5738,0.5657,0.5295,0.5297,0.5576,0.5578,0.5576,0.5578,0.5394,0.557,0.5552,0.5636,0.5725,0.5716,0.5697,0.5645,0.5284,0.3565,0.1849,-0.0,-0.0,-0.0,-0.0,-0.0,-0.0,-0.0,-0.0,-0.0,-0.0,-0.0,-0.0,-0.0,-0.0,-0.0,-0.0,-0.1792,-0.3674,-0.5387,-0.5741,-0.5735,-0.5733,-0.5733,-0.5733,-0.5733,-0.5733,-0.5733,-0.5733,-0.5733,-0.5733,-0.5908,-0.6343,-0.7305,-0.8536,-0.8978,-0.9244,-0.9772,-1.0038,-1.0038,-1.0038,-1.0038,-1.0038,-1.0038,-1.0038,-1.0038,-1.0038,-1.0038,-1.0005,-1.0014,-1.0,-0.9672,-0.9445,-0.9247,-0.9011,-0.8885,-0.8791,-0.8765,-0.8737,-0.8708,-0.8703,-0.8703,-0.8703,-0.8703,-0.8551,-0.8008,-0.7621,-0.7544,-0.7314,-0.6681,0.7753,0.6612,0.5997,0.5733,0.5733,0.5733,0.5733,0.5735,0.5733,0.5733,0.5733,0.5733,0.5733,0.5735,0.5733,0.5733,0.5733,0.5733,0.5733,0.5733,0.5733,0.5733,0.5733,0.5733,0.5733,0.5733,0.5733,0.5735,0.5738,0.5738,0.5741,0.5741,0.5744,0.5744,0.5744,0.5744,0.5738,0.5738,0.5735,0.5735,0.5733,0.5703,0.5689,0.5604,0.4953,0.3793,0.1849,0.0599,-0.0,-0.0,-0.0,-0.0,-0.0,-0.0,-0.0,-0.0,-0.0,-0.0,-0.0,-0.0,-0.0,-0.0,-0.0,-0.2511,-0.5124,-0.566,-0.5741,-0.5735,-0.5733,-0.5733,-0.5733,-0.5733,-0.5733,-0.5733,-0.5733,-0.5733,-0.5733,-0.6343,-0.7132,-0.8009,-0.8536,-0.9152,-0.9772,-0.9951,-1.0038,-1.0038,-1.0038,-1.0038,-1.0038,-1.0038,-1.0038,-1.0038,-1.0038,-1.0038,-1.0038,-1.0038,-0.9914,-0.9649,-0.9478,-0.9203,-0.9058,-0.8876,-0.885,-0.8751,-0.8718,-0.8703,-0.8703,-0.8703,-0.8703,-0.8551,-0.8165,-0.8003,-0.7995,-0.7677,-0.7057,0.7934,0.6675,0.6133,0.5769,0.5681,0.5772,0.5772,0.5678,0.5681,0.5769,0.586,0.5724,0.5705,0.5787,0.5754,0.5733,0.5733,0.5733,0.5733,0.5733,0.5733,0.5733,0.5733,0.5733,0.5733,0.5733,0.5733,0.5733,0.5733,0.5733,0.5733,0.5733,0.5733,0.5735,0.5733,0.5733,0.5733,0.5733,0.5733,0.5733,0.5733,0.5738,0.5744,0.557,0.5034,0.4045,0.2601,-0.0,-0.0,-0.0,-0.0,-0.0,-0.0,-0.0,-0.0,-0.0,-0.0,-0.0,-0.0,-0.0,-0.0,-0.0,-0.0,-0.0,-0.332,-0.4486,-0.5654,-0.5738,-0.5738,-0.5733,-0.5733,-0.5733,-0.5733,-0.5733,-0.5733,-0.5733,-0.5733,-0.608,-0.6691,-0.7305,-0.8009,-0.8803,-0.9331,-0.9951,-0.9951,-1.0038,-1.0038,-1.0038,-1.0038,-1.0038,-1.0038,-1.0038,-1.0038,-1.0038,-1.0038,-1.0038,-1.0038,-0.9842,-0.9715,-0.9535,-0.9288,-0.903,-0.8935,-0.8779,-0.8703,-0.8703,-0.8703,-0.8703,-0.8703,-0.8475,-0.8322,-0.8394,-0.8385,-0.8156,-0.7766,0.7951,0.6275,0.6083,0.597,0.5779,0.597,0.5962,0.5784,0.5779,0.5868,0.6043,0.5863,0.582,0.589,0.5828,0.5782,0.5746,0.5668,0.5746,0.5738,0.5733,0.5733,0.5733,0.5733,0.5733,0.5733,0.5733,0.5733,0.5733,0.5733,0.5733,0.5733,0.5733,0.5733,0.5733,0.5733,0.5733,0.5733,0.5733,0.5733,0.5733,0.5733,0.5735,0.5649,0.4297,0.3403,0.3136,-0.0,-0.0,-0.0,-0.0,-0.0,-0.0,-0.0,-0.0,-0.0,-0.0,-0.0,-0.0,-0.0,-0.0,-0.0,-0.0,-0.0,-0.0,-0.3047,-0.5025,-0.5565,-0.5738,-0.5735,-0.5733,-0.5733,-0.5733,-0.5733,-0.5733,-0.5733,-0.5733,-0.5733,-0.6169,-0.6779,-0.7394,-0.8097,-0.889,-0.951,-0.9772,-1.0038,-1.0038,-1.0038,-1.0038,-1.0038,-1.0038,-1.0038,-1.0038,-1.0038,-1.0038,-1.0038,-1.0038,-1.0005,-0.9823,-0.97,-0.9424,-0.9237,-0.8936,-0.8777,-0.8722,-0.8718,-0.8703,-0.8703,-0.8703,-0.8627,-0.8627,-0.8703,-0.8627,-0.8394,-0.8318,0.8426,0.7211,0.6461,0.6086,0.5989,0.6086,0.6186,0.6183,0.6092,0.6105,0.6272,0.6244,0.6134,0.6034,0.6005,0.5945,0.5874,0.5761,0.5713,0.5741,0.5733,0.5733,0.5733,0.5733,0.5733,0.5733,0.5733,0.5733,0.5733,0.5733,0.5733,0.5733,0.5733,0.5733,0.5733,0.5733,0.5733,0.5733,0.5733,0.5733,0.5733,0.5733,0.5738,0.5652,0.5201,0.4848,0.4589,0.1706,-0.0,-0.0,-0.0,-0.0,-0.0,-0.0,-0.0,-0.0,-0.0,-0.0,-0.0,-0.0,-0.0,-0.0,-0.0,-0.0,-0.0,-0.0,-0.0,-0.4755,-0.5744,-0.5741,-0.5735,-0.5733,-0.5733,-0.5733,-0.5733,-0.5733,-0.5733,-0.5733,-0.5994,-0.6694,-0.6956,-0.7658,-0.854,-0.9065,-0.9419,-0.9859,-1.0038,-1.0038,-1.0038,-1.0038,-1.0038,-1.0038,-1.0038,-1.0038,-1.0038,-1.0038,-1.0038,-1.0038,-0.9889,-0.9819,-0.9578,-0.9217,-0.895,-0.8709,-0.8812,-0.8774,-0.8732,-0.8703,-0.8703,-0.8703,-0.8703,-0.8703,-0.8703,-0.8551,-0.8551,0.9104,0.7767,0.7193,0.6617,0.6233,0.6233,0.633,0.6332,0.6233,0.6236,0.6421,0.6376,0.6359,0.6159,0.6203,0.6145,0.598,0.5831,0.5772,0.5812,0.5757,0.5735,0.5733,0.5733,0.5733,0.5733,0.5733,0.5733,0.5733,0.5733,0.5733,0.5733,0.5733,0.5733,0.5733,0.5733,0.5733,0.5733,0.5733,0.5733,0.5733,0.5733,0.5735,0.5741,0.5652,0.5206,0.332,0.1077,-0.0,-0.0,-0.0,-0.0,-0.0,-0.0,-0.0,-0.0,-0.0,-0.0,-0.0,-0.0,-0.0,-0.0,-0.0,-0.0,-0.0,-0.0,-0.1344,-0.2688,-0.4576,-0.5565,-0.5741,-0.5735,-0.5733,-0.5733,-0.5733,-0.5733,-0.5733,-0.5733,-0.5908,-0.6257,-0.6694,-0.7221,-0.8364,-0.8623,-0.924,-0.9772,-1.0038,-1.0038,-1.0038,-1.0038,-1.0038,-1.0038,-1.0038,-1.0038,-1.0038,-1.0038,-1.0038,-1.0038,-1.0024,-0.9871,-0.9686,-0.9325,-0.9071,-0.8918,-0.8857,-0.8807,-0.8746,-0.8703,-0.8703,-0.8703,-0.8703,-0.8703,-0.8703,-0.8703,-0.8703,1.0087,0.8315,0.812,0.7425,0.652,0.6431,0.641,0.6429,0.6415,0.6415,0.6399,0.6423,0.6385,0.6276,0.6302,0.6317,0.61,0.5898,0.5815,0.5844,0.5779,0.5733,0.5733,0.5733,0.5733,0.5733,0.5733,0.5733,0.5733,0.5733,0.5733,0.5733,0.5733,0.5733,0.5733,0.5733,0.5733,0.5733,0.5733,0.5733,0.5733,0.5733,0.5733,0.5735,0.5738,0.4387,0.2237,0.0627,-0.0,-0.0,-0.0,-0.0,-0.0,-0.0,-0.0,-0.0,-0.0,-0.0,-0.0,-0.0,-0.0,-0.0,-0.0,-0.0,-0.0,-0.0,-0.0,-0.0,-0.0,-0.5389,-0.5746,-0.5738,-0.5733,-0.5733,-0.5733,-0.5733,-0.5733,-0.5733,-0.5733,-0.5733,-0.6343,-0.6956,-0.7746,-0.836,-0.9065,-0.9859,-1.0038,-1.0038,-1.0038,-1.0038,-1.0038,-1.0038,-1.0038,-1.0038,-1.0038,-1.0038,-1.0038,-1.0038,-1.0038,-0.9899,-0.9795,-0.9489,-0.9224,-0.9052,-0.9044,-0.8869,-0.8727,-0.8703,-0.8703,-0.8703,-0.8703,-0.8703,-0.8703,-0.8703,-0.8703,1.0974,1.0386,0.8715,0.7412,0.6509,0.6426,0.6437,0.6437,0.6437,0.6437,0.6431,0.641,0.6396,0.6393,0.6352,0.6317,0.6217,0.6189,0.6051,0.5771,0.5752,0.5733,0.5733,0.5733,0.5733,0.5733,0.5733,0.5733,0.5733,0.5733,0.5733,0.5733,0.5733,0.5733,0.5733,0.5733,0.5733,0.5733,0.5733,0.5733,0.5733,0.5733,0.5733,0.5735,0.5741,0.5382,0.4482,0.3045,0.1613,-0.0,-0.0,-0.0,-0.0,-0.0,-0.0,-0.0,-0.0,-0.0,-0.0,-0.0,-0.0,-0.0,-0.0,-0.0,-0.0,-0.0,-0.0,-0.0,-0.3413,-0.5216,-0.5749,-0.5738,-0.5733,-0.5733,-0.5733,-0.5733,-0.5733,-0.5733,-0.5733,-0.5733,-0.5908,-0.6435,-0.757,-0.7834,-0.8627,-0.9685,-1.0038,-1.0038,-1.0038,-1.0038,-1.0038,-1.0038,-1.0038,-1.0038,-1.0038,-1.0038,-1.0038,-1.0038,-1.0038,-1.0033,-0.9838,-0.9743,-0.9475,-0.9264,-0.9133,-0.8968,-0.8812,-0.8703,-0.8703,-0.8703,-0.8703,-0.8703,-0.8703,-0.8703,-0.8703,1.1668,1.1072,0.9989,0.8297,0.6697,0.6918,0.6833,0.6437,0.6437,0.6437,0.6437,0.6437,0.6437,0.6437,0.6434,0.6396,0.6317,0.6258,0.6054,0.5782,0.5733,0.5733,0.5733,0.5733,0.5733,0.5733,0.5733,0.5733,0.5733,0.5733,0.5733,0.5733,0.5733,0.5733,0.5733,0.5733,0.5733,0.5733,0.5733,0.5733,0.5733,0.5733,0.5733,0.5733,0.5738,0.5741,0.5476,0.4755,0.3765,0.251,-0.0,-0.0,-0.0,-0.0,-0.0,-0.0,-0.0,-0.0,-0.0,-0.0,-0.0,-0.0,-0.0,-0.0,-0.0,-0.0,-0.0,-0.0,-0.1795,-0.3502,-0.5387,-0.5744,-0.5738,-0.5733,-0.5733,-0.5733,-0.5733,-0.5733,-0.5733,-0.5733,-0.5733,-0.6349,-0.7048,-0.7573,-0.8548,-0.9703,-1.0038,-1.0038,-1.0038,-1.0038,-1.0038,-1.0038,-1.0038,-1.0038,-1.0038,-1.0038,-1.0038,-1.0038,-1.0038,-1.0038,-0.9908,-0.9823,-0.9729,-0.9595,-0.9375,-0.9105,-0.8959,-0.8841,-0.8718,-0.8703,-0.8703,-0.8703,-0.8703,-0.8703,-0.8703,1.2268,1.1468,1.1268,0.9678,0.7694,0.7813,0.7322,0.6528,0.6437,0.6437,0.6437,0.6437,0.6437,0.6437,0.6437,0.6423,0.6317,0.6154,0.5918,0.5757,0.5735,0.5733,0.5733,0.5733,0.5733,0.5733,0.5733,0.5733,0.5733,0.5733,0.5733,0.5733,0.5733,0.5733,0.5733,0.5733,0.5733,0.5733,0.5733,0.5733,0.5733,0.5733,0.5733,0.5733,0.5735,0.5738,0.5741,0.5563,0.5476,0.5486,0.2601,0.0807,-0.0,-0.0,-0.0,-0.0,-0.0,-0.0,-0.0,-0.0,-0.0,-0.0,-0.0,-0.0,-0.0,-0.0,-0.0,-0.0,-0.0,-0.1792,-0.4755,-0.5565,-0.5652,-0.5735,-0.5733,-0.5733,-0.5733,-0.5733,-0.5733,-0.5733,-0.5733,-0.6174,-0.6874,-0.7577,-0.8648,-0.9538,-0.9786,-1.0038,-1.0038,-1.0038,-1.0038,-1.0038,-1.0038,-1.0038,-1.0038,-1.0038,-1.0038,-1.0038,-1.0038,-1.0038,-1.0038,-0.9986,-0.9895,-0.9841,-0.9639,-0.9361,-0.9077,-0.8838,-0.8735,-0.8746,-0.8703,-0.8703,-0.8703,-0.8703,-0.8703,1.2662,1.2462,1.157,1.1389,1.1315,0.9118,0.7512,0.6506,0.6423,0.6437,0.6437,0.6437,0.6437,0.6431,0.6434,0.6333,0.6162,0.6007,0.5874,0.5752,0.5733,0.5733,0.5733,0.5733,0.5733,0.5733,0.5733,0.5733,0.5733,0.5733,0.5733,0.5733,0.5733,0.5733,0.5733,0.5733,0.5733,0.5733,0.5733,0.5733,0.5733,0.5733,0.5733,0.5733,0.5733,0.5735,0.5735,0.5735,0.5738,0.5657,0.5025,0.3047,-0.0,-0.0,-0.0,-0.0,-0.0,-0.0,-0.0,-0.0,-0.0,-0.0,-0.0,-0.0,-0.0,-0.0,-0.0,-0.0,-0.0,-0.0986,-0.3136,-0.4755,-0.5565,-0.5738,-0.5733,-0.5733,-0.5733,-0.5733,-0.5733,-0.5733,-0.5822,-0.5911,-0.6612,-0.7404,-0.8472,-0.927,-0.9699,-0.9864,-1.0038,-1.0038,-1.0038,-1.0038,-1.0038,-1.0038,-1.0038,-1.0038,-1.0038,-1.0038,-1.0038,-1.0038,-1.0038,-1.0038,-0.9957,-0.9923,-0.9863,-0.9591,-0.9309,-0.8936,-0.8777,-0.8674,-0.8722,-0.8703,-0.8703,-0.8703,-0.8703,1.2759,1.2764,1.2262,1.2294,1.2428,1.0605,0.8393,0.6594,0.6407,0.6423,0.6434,0.6434,0.6399,0.6363,0.635,0.6217,0.6024,0.5939,0.5839,0.5754,0.5733,0.5733,0.5733,0.5733,0.5733,0.5733,0.5733,0.5733,0.5733,0.5733,0.5733,0.5733,0.5733,0.5733,0.5733,0.5733,0.5733,0.5733,0.5733,0.5733,0.5733,0.5733,0.5733,0.5733,0.5733,0.5733,0.5733,0.5733,0.5735,0.5741,0.5657,0.4665,0.3048,-0.0,-0.0,-0.0,-0.0,-0.0,-0.0,-0.0,-0.0,-0.0,-0.0,-0.0,-0.0,-0.0,-0.0,-0.0,-0.0,-0.0359,-0.1433,-0.3946,-0.5479,-0.5744,-0.5738,-0.5733,-0.5733,-0.5733,-0.5733,-0.5733,-0.5733,-0.5911,-0.6171,-0.7058,-0.8212,-0.8915,-0.9437,-0.9694,-0.9859,-0.9859,-0.9859,-1.0038,-1.0038,-1.0038,-1.0038,-1.0038,-1.0038,-1.0038,-1.0038,-1.0038,-1.0038,-1.0038,-1.0019,-0.9952,-0.988,-0.9731,-0.9404,-0.8936,-0.8847,-0.8684,-0.8727,-0.8703,-0.8703,-0.8703,-0.8703,1.2689,1.2689,1.2635,1.2748,1.2582,1.1554,0.9761,0.7707,0.6712,0.6524,0.6558,0.6451,0.6306,0.6244,0.6184,0.6081,0.5901,0.5882,0.5806,0.5752,0.5733,0.5733,0.5733,0.5733,0.5733,0.5733,0.5733,0.5733,0.5733,0.5733,0.5733,0.5733,0.5733,0.5733,0.5733,0.5733,0.5733,0.5733,0.5733,0.5733,0.5733,0.5733,0.5733,0.5733,0.5733,0.5733,0.5733,0.5733,0.5733,0.5735,0.5741,0.5657,0.5206,0.2777,-0.0,-0.0,-0.0,-0.0,-0.0,-0.0,-0.0,-0.0,-0.0,-0.0,-0.0,-0.0,-0.0,-0.0,-0.0,-0.0,-0.0,-0.305,-0.494,-0.5749,-0.5741,-0.5733,-0.5733,-0.5733,-0.5733,-0.5733,-0.5733,-0.5822,-0.5997,-0.6432,-0.7492,-0.7753,-0.8273,-0.8807,-0.9065,-0.9506,-0.9593,-0.9859,-1.0038,-1.0038,-1.0038,-1.0038,-1.0038,-1.0038,-1.0038,-1.0038,-1.0038,-1.0038,-1.0014,-0.9995,-1.0024,-0.9861,-0.9431,-0.9015,-0.8839,-0.8695,-0.8679,-0.8703,-0.8703,-0.8703,-0.8703,1.2452,1.2336,1.2226,1.2433,1.257,1.1238,1.0959,1.0796,0.7921,0.6856,0.7289,0.651,0.6132,0.6181,0.6177,0.6023,0.5968,0.5896,0.5849,0.5733,0.5733,0.5733,0.5733,0.5733,0.5733,0.5733,0.5733,0.5733,0.5733,0.5733,0.5733,0.5733,0.5733,0.5733,0.5733,0.5733,0.5733,0.5733,0.5733,0.5733,0.5733,0.5733,0.5733,0.5733,0.5733,0.5733,0.5733,0.5733,0.5733,0.5735,0.5735,0.5741,0.5568,0.5476,0.3047,-0.0,-0.0,-0.0,-0.0,-0.0,-0.0,-0.0,-0.0,-0.0,-0.0,-0.0,-0.0,-0.0,-0.0,-0.0,-0.0,-0.0,-0.3765,-0.5025,-0.5741,-0.5735,-0.5733,-0.5733,-0.5733,-0.5733,-0.5733,-0.5733,-0.5822,-0.6254,-0.6776,-0.6858,-0.7119,-0.7742,-0.8273,-0.8803,-0.9244,-0.9598,-0.9772,-0.9772,-1.0038,-1.0038,-0.9951,-0.9951,-1.0038,-1.0038,-1.0038,-1.0038,-1.0038,-1.0014,-0.9971,-0.9823,-0.9422,-0.9034,-0.8811,-0.8663,-0.8669,-0.8703,-0.8703,-0.8703,-0.8703,1.1989,1.1992,1.2091,1.214,1.2145,1.1589,1.1129,1.0672,1.0027,0.908,0.8041,0.6529,0.6216,0.6697,0.7115,0.7055,0.6687,0.6462,0.6174,0.573,0.5733,0.5733,0.5733,0.5733,0.5733,0.5733,0.5733,0.5733,0.5733,0.5733,0.5733,0.5733,0.5733,0.5733,0.5733,0.5733,0.5733,0.5733,0.5733,0.5733,0.5733,0.5733,0.5733,0.5733,0.5733,0.5733,0.5733,0.5733,0.5733,0.5733,0.5733,0.5735,0.5738,0.5652,0.4663,-0.0,-0.0,-0.0,-0.0,-0.0,-0.0,-0.0,-0.0,-0.0,-0.0,-0.0,-0.0,-0.0,-0.0,-0.0,-0.0,-0.0,-0.2869,-0.4484,-0.5384,-0.5738,-0.5735,-0.5733,-0.5733,-0.5733,-0.5733,-0.5733,-0.5733,-0.5905,-0.6248,-0.6328,-0.6681,-0.7302,-0.7746,-0.8097,-0.8715,-0.9244,-0.9331,-0.9419,-0.9772,-1.0038,-0.9951,-0.9951,-0.9951,-0.9951,-1.0038,-1.0038,-0.9772,-0.9864,-1.0014,-0.9715,-0.9321,-0.8999,-0.872,-0.8686,-0.8708,-0.8703,-0.8703,-0.8703,-0.8703,1.1615,1.1674,1.1865,1.1775,1.1679,1.1871,1.1212,1.0386,1.1268,1.0721,0.8834,0.686,0.635,0.7566,0.8267,0.822,0.7496,0.7228,0.67,0.6171,0.5819,0.5733,0.5733,0.5733,0.5733,0.5733,0.5733,0.5733,0.5733,0.5733,0.5733,0.5733,0.5733,0.5733,0.5733,0.5733,0.5733,0.5733,0.5733,0.5733,0.5733,0.5733,0.5733,0.5733,0.5733,0.5733,0.5733,0.5733,0.5733,0.5733,0.5733,0.5733,0.5735,0.5649,0.5652,0.4933,0.4036,0.3139,0.1795,-0.0,-0.0,-0.0,-0.0,-0.0,-0.0,-0.0,-0.0,-0.0,-0.0,-0.0,-0.0,-0.0,-0.1255,-0.3317,-0.4935,-0.5382,-0.5738,-0.5735,-0.5733,-0.5733,-0.5733,-0.5733,-0.5733,-0.5733,-0.5813,-0.58,-0.6239,-0.6776,-0.7217,-0.7482,-0.8009,-0.854,-0.8627,-0.889,-0.9331,-0.9685,-0.9685,-0.9685,-0.9772,-0.9873,-0.9883,-0.9515,-0.9065,-0.9331,-0.9598,-0.9464,-0.9009,-0.8819,-0.8698,-0.8682,-0.8703,-0.8703,-0.8703,-0.8703,-0.8703,1.1294,1.131,1.1326,1.1337,1.1332,1.1316,1.1321,1.1014,1.1314,1.069,0.9328,0.721,0.7149,0.8292,0.9112,0.9091,0.8368,0.7492,0.7139,0.67,0.6174,0.5822,0.5733,0.5733,0.5733,0.5733,0.5733,0.5733,0.5733,0.5733,0.5733,0.5733,0.5733,0.5733,0.5733,0.5733,0.5733,0.5733,0.5733,0.5733,0.5733,0.5733,0.5733,0.5733,0.5733,0.5733,0.5733,0.5733,0.5733,0.5733,0.5733,0.5733,0.5735,0.5735,0.5738,0.5563,0.5384,0.4757,0.4041,-0.0,-0.0,-0.0,-0.0,-0.0,-0.0,-0.0,-0.0,-0.0,-0.0,-0.0,-0.0,-0.0,-0.0,-0.1792,-0.3767,-0.5387,-0.5741,-0.5735,-0.5733,-0.5733,-0.5733,-0.5733,-0.5733,-0.5733,-0.5733,-0.5722,-0.5808,-0.6343,-0.6605,-0.6871,-0.7305,-0.7658,-0.7834,-0.8185,-0.8807,-0.8982,-0.8982,-0.8978,-0.8978,-0.927,-0.9565,-0.9099,-0.8448,-0.836,-0.8515,-0.8658,-0.8721,-0.8353,-0.8269,-0.8549,-0.8703,-0.8556,-0.8632,-0.8708,-0.8708,1.1267,1.1267,1.1267,1.1267,1.1267,1.1267,1.1267,1.1267,1.1283,1.1126,1.0502,0.957,0.9209,0.9593,1.013,1.0135,0.9423,0.9069,0.8193,0.7316,0.67,0.6263,0.6,0.5733,0.5733,0.5733,0.5733,0.5733,0.5733,0.5733,0.5733,0.5733,0.5733,0.5733,0.5733,0.5733,0.5733,0.5733,0.5733,0.5733,0.5733,0.5733,0.5733,0.5733,0.5733,0.5733,0.5733,0.5733,0.5733,0.5733,0.5733,0.5733,0.5733,0.5733,0.5735,0.5741,0.5741,0.5746,0.5029,-0.0,-0.0,-0.0,-0.0,-0.0,-0.0,-0.0,-0.0,-0.0,-0.0,-0.0,-0.0,-0.0,-0.0,-0.0,-0.251,-0.4576,-0.5749,-0.5741,-0.5733,-0.5733,-0.5733,-0.5733,-0.5733,-0.5733,-0.5733,-0.5733,-0.5733,-0.5819,-0.6083,-0.6257,-0.6694,-0.6956,-0.7132,-0.7482,-0.8101,-0.8189,-0.8185,-0.8273,-0.8273,-0.838,-0.8668,-0.8564,-0.7921,-0.7742,-0.753,-0.7815,-0.7838,-0.7714,-0.7841,-0.8203,-0.8336,-0.825,-0.8403,-0.8637,-0.8708,1.1267,1.1267,1.1267,1.1267,1.1267,1.1267,1.1267,1.1267,1.1267,1.1278,1.1316,1.1278,1.0997,1.0646,1.0911,1.1003,1.0299,0.9859,0.8807,0.7929,0.7139,0.6615,0.5997,0.5733,0.5733,0.5733,0.5733,0.5733,0.5733,0.5733,0.5733,0.5733,0.5733,0.5733,0.5733,0.5733,0.5733,0.5733,0.5733,0.5733,0.5733,0.5733,0.5733,0.5733,0.5733,0.5733,0.5733,0.5733,0.5733,0.5733,0.5733,0.5733,0.5733,0.5733,0.5733,0.5733,0.5735,0.5738,0.475,-0.0,-0.0,-0.0,-0.0,-0.0,-0.0,-0.0,-0.0,-0.0,-0.0,-0.0,-0.0,-0.0,-0.0,-0.0,-0.0,-0.3138,-0.5029,-0.5746,-0.5738,-0.5733,-0.5733,-0.5733,-0.5733,-0.5733,-0.5733,-0.5733,-0.5733,-0.5733,-0.5822,-0.5997,-0.6083,-0.6254,-0.6432,-0.6868,-0.7394,-0.7394,-0.7482,-0.757,-0.7482,-0.7221,-0.7316,-0.7309,-0.7132,-0.6691,-0.6637,-0.7056,-0.7007,-0.6695,-0.7224,-0.7846,-0.7961,-0.8021,-0.8493,-0.8722,-0.8708,1.1267,1.1267,1.1267,1.1267,1.1267,1.1267,1.1267,1.1267,1.1267,1.1267,1.1273,1.1267,1.1267,1.1176,1.1267,1.1089,1.0829,1.0217,0.9248,0.8193,0.7404,0.6612,0.5997,0.5733,0.5733,0.5733,0.5733,0.5733,0.5733,0.5733,0.5733,0.5733,0.5733,0.5733,0.5733,0.5733,0.5733,0.5733,0.5733,0.5733,0.5733,0.5733,0.5733,0.5733,0.5733,0.5733,0.5733,0.5733,0.5733,0.5733,0.5733,0.5733,0.5733,0.5733,0.5733,0.5733,0.5733,0.5735,0.5466,0.2059,-0.0,-0.0,-0.0,-0.0,-0.0,-0.0,-0.0,-0.0,-0.0,-0.0,-0.0,-0.0,-0.0,-0.0,-0.0,-0.1613,-0.3496,-0.5749,-0.5741,-0.5735,-0.5733,-0.5733,-0.5733,-0.5733,-0.5733,-0.5733,-0.5733,-0.5733,-0.5733,-0.5733,-0.5819,-0.5908,-0.6083,-0.6257,-0.6694,-0.6779,-0.6779,-0.6864,-0.6779,-0.6609,-0.6346,-0.6346,-0.6083,-0.5727,-0.5954,-0.6409,-0.6078,-0.5667,-0.6374,-0.7049,-0.7642,-0.794,-0.8417,-0.8651,-0.8632,1.1267,1.1267,1.1267,1.1267,1.1267,1.1267,1.1267,1.1267,1.1267,1.1267,1.1267,1.1267,1.1267,1.1267,1.1176,1.0997,1.0477,1.0952,0.9984,0.7669,0.7411,0.6707,0.6,0.5733,0.5733,0.5733,0.5733,0.5733,0.5733,0.5733,0.5733,0.5733,0.5733,0.5733,0.5733,0.5733,0.5733,0.5733,0.5733,0.5733,0.5733,0.5733,0.5733,0.5733,0.5733,0.5733,0.5733,0.5733,0.5733,0.5733,0.5733,0.5733,0.5733,0.5733,0.5733,0.5733,0.5733,0.5733,0.5644,0.403,0.2509,-0.0,-0.0,-0.0,-0.0,-0.0,-0.0,-0.0,-0.0,-0.0,-0.0,-0.0,-0.0,-0.0,-0.0,-0.0,-0.188,-0.4482,-0.5744,-0.5738,-0.5733,-0.5733,-0.5733,-0.5733,-0.5733,-0.5733,-0.5733,-0.5733,-0.5733,-0.5733,-0.5733,-0.5733,-0.5819,-0.5908,-0.5994,-0.6257,-0.6254,-0.6257,-0.6169,-0.5997,-0.5822,-0.5733,-0.5733,-0.573,-0.5703,-0.5662,-0.5554,-0.5445,-0.5615,-0.6119,-0.6872,-0.748,-0.7799,-0.8183,-0.8399,1.1267,1.1267,1.1267,1.1267,1.1267,1.1267,1.1267,1.1267,1.1267,1.1267,1.1267,1.1267,1.1267,1.1267,1.1176,1.0819,1.0038,1.0784,0.9814,0.7496,0.7415,0.6799,0.6088,0.5733,0.5733,0.5733,0.5733,0.5733,0.5733,0.5733,0.5733,0.5733,0.5733,0.5733,0.5733,0.5733,0.5733,0.5733,0.5733,0.5733,0.5733,0.5733,0.5733,0.5733,0.5733,0.5733,0.5733,0.5733,0.5733,0.5733,0.5733,0.5733,0.5733,0.5733,0.5733,0.5733,0.5733,0.5733,0.5644,0.5563,0.4036,-0.0,0.0987,-0.0,-0.0,-0.0,-0.0,-0.0,-0.0,-0.0,-0.0,-0.0,-0.0,-0.0,-0.0,-0.0,-0.0896,-0.3496,-0.5749,-0.5741,-0.5733,-0.5733,-0.5733,-0.5733,-0.5733,-0.5733,-0.5733,-0.5733,-0.5733,-0.5733,-0.5733,-0.5733,-0.5733,-0.5733,-0.5822,-0.5819,-0.5822,-0.5733,-0.5733,-0.5733,-0.5733,-0.5733,-0.5733,-0.573,-0.5708,-0.5627,-0.5323,-0.5227,-0.5407,-0.5724,-0.6251,-0.6791,-0.7188,-0.7565,-0.8012,1.1235,1.1246,1.1251,1.1327,1.1246,1.1251,1.1267,1.1267,1.1267,1.1267,1.1267,1.1267,1.1267,1.1267,1.1267,1.0738,1.0038,1.0691,0.9275,0.7768,0.7238,0.6529,0.6,0.5733,0.5733,0.5733,0.5733,0.5733,0.5733,0.5733,0.5733,0.5733,0.5733,0.5733,0.5733,0.5733,0.5733,0.5733,0.5733,0.5733,0.5733,0.5733,0.5733,0.5733,0.5733,0.5733,0.5733,0.5733,0.5733,0.5733,0.5733,0.5733,0.5733,0.5733,0.5733,0.5733,0.5733,0.5733,0.5735,0.5744,0.5662,0.422,0.1882,-0.0,-0.0,-0.0,-0.0,-0.0,-0.0,-0.0,-0.0,-0.0,-0.0,-0.0,-0.0,-0.0,-0.0,-0.2599,-0.494,-0.5749,-0.5738,-0.5733,-0.5733,-0.5733,-0.5733,-0.5733,-0.5733,-0.5733,-0.5733,-0.5733,-0.5733,-0.5733,-0.5733,-0.5733,-0.5733,-0.5733,-0.5733,-0.5733,-0.5733,-0.5733,-0.5733,-0.5733,-0.5733,-0.5727,-0.5711,-0.5513,-0.5309,-0.5133,-0.5129,-0.5476,-0.5938,-0.617,-0.6641,-0.7107,-0.7407,1.076,1.0859,1.102,1.1085,1.1117,1.1187,1.1267,1.1267,1.1267,1.1267,1.1267,1.1267,1.1267,1.1267,1.1267,1.0738,1.0038,0.934,0.8464,0.7408,0.6612,0.6086,0.5822,0.5733,0.5733,0.5733,0.5733,0.5733,0.5733,0.5733,0.5733,0.5733,0.5733,0.5733,0.5733,0.5733,0.5733,0.5733,0.5733,0.5733,0.5733,0.5733,0.5733,0.5733,0.5733,0.5733,0.5733,0.5733,0.5733,0.5733,0.5733,0.5733,0.5733,0.5733,0.5733,0.5733,0.5733,0.5733,0.5733,0.5735,0.5746,0.5124,0.2686,0.0986,-0.0,-0.0,-0.0,-0.0,-0.0,-0.0,-0.0,-0.0,-0.0,-0.0,-0.0,-0.0,-0.0,-0.2153,-0.4401,-0.5752,-0.5741,-0.5738,-0.5735,-0.5733,-0.5733,-0.5733,-0.5733,-0.5733,-0.5733,-0.5733,-0.5733,-0.5733,-0.5733,-0.5733,-0.5733,-0.5733,-0.5733,-0.5733,-0.5733,-0.5733,-0.5733,-0.5733,-0.5733,-0.5695,-0.5627,-0.5443,-0.5312,-0.5214,-0.5026,-0.5246,-0.5709,-0.5786,-0.6018,-0.6486,-0.6718,1.0557,1.0573,1.0783,1.0936,1.1051,1.1009,1.1074,1.1281,1.1273,1.1267,1.1267,1.1267,1.1267,1.1267,1.1262,1.0824,0.9951,0.9975,0.9007,0.7139,0.6251,0.5902,0.573,0.5733,0.5733,0.5733,0.5733,0.5733,0.5733,0.5733,0.5733,0.5733,0.5733,0.5733,0.5733,0.5733,0.5733,0.5733,0.5733,0.5733,0.5733,0.5733,0.5733,0.5733,0.5733,0.5733,0.5733,0.5733,0.5733,0.5733,0.5733,0.5733,0.5733,0.5733,0.5733,0.5733,0.5733,0.5733,0.5733,0.5733,0.5746,0.5027,0.3042,0.0985,-0.0,-0.0,-0.0,-0.0,-0.0,-0.0,-0.0,-0.0,-0.0,-0.0,-0.0,-0.0,-0.0,-0.0,-0.368,-0.53,-0.5746,-0.5744,-0.5741,-0.5735,-0.5733,-0.5733,-0.5733,-0.5733,-0.5733,-0.5733,-0.5733,-0.5733,-0.5733,-0.5733,-0.5733,-0.5733,-0.5733,-0.5733,-0.5733,-0.5733,-0.5733,-0.5725,-0.5714,-0.5619,-0.5504,-0.5325,-0.5237,-0.5167,-0.5096,-0.5249,-0.5323,-0.5401,-0.5556,-0.5712,-0.587,1.0573,1.0562,1.0519,1.0805,1.1168,1.0762,1.0843,1.1131,1.118,1.13,1.1305,1.1262,1.1273,1.1267,1.1267,1.0911,1.0574,1.0604,0.9717,0.7316,0.677,0.6331,0.6083,0.5822,0.6,0.5822,0.5733,0.5733,0.5733,0.5733,0.5733,0.5733,0.5733,0.5733,0.5733,0.5733,0.5733,0.5733,0.5733,0.5733,0.5733,0.5733,0.5733,0.5733,0.5733,0.5733,0.5733,0.5733,0.5733,0.5733,0.5733,0.5733,0.5733,0.5733,0.5733,0.5733,0.5733,0.5733,0.5733,0.5733,0.5471,0.4572,0.3041,0.0895,-0.0269,-0.0628,-0.0449,-0.0359,-0.0,-0.0,-0.0,-0.0,-0.0,-0.0,-0.0,-0.0,-0.0,-0.0,-0.1973,-0.3496,-0.4484,-0.4663,-0.5749,-0.5746,-0.5738,-0.5735,-0.5733,-0.5733,-0.5735,-0.5735,-0.5735,-0.5735,-0.5733,-0.5733,-0.5733,-0.5733,-0.5733,-0.5733,-0.5733,-0.5733,-0.5733,-0.5714,-0.5689,-0.5586,-0.5474,-0.5344,-0.5149,-0.5102,-0.5026,-0.5096,-0.5093,-0.5018,-0.5096,-0.5251,-0.5329,1.0089,1.0116,1.0299,1.0561,1.0713,1.0643,1.0455,1.0293,1.0653,1.0918,1.127,1.1284,1.1289,1.1235,1.1322,1.1058,1.1008,1.0963,1.0338,0.9082,0.7914,0.6864,0.6786,0.6529,0.6444,0.5911,0.5733,0.5733,0.5733,0.5733,0.5733,0.5733,0.5733,0.5733,0.5733,0.5733,0.5733,0.5733,0.5733,0.5733,0.5733,0.5733,0.5733,0.5733,0.5733,0.5733,0.5733,0.5733,0.5733,0.5733,0.5733,0.5733,0.5733,0.5733,0.5733,0.5733,0.5733,0.5733,0.5733,0.5555,0.5196,0.4117,0.2503,0.0805,-0.0358,-0.0628,-0.0718,-0.0718,-0.0,-0.0,-0.0,-0.0,-0.0,-0.0,-0.0,-0.0,-0.0,-0.0,-0.0,-0.1613,-0.2868,-0.3857,-0.494,-0.557,-0.5654,-0.5741,-0.5735,-0.5735,-0.5735,-0.5738,-0.5735,-0.5735,-0.5735,-0.5733,-0.5733,-0.5733,-0.5733,-0.5733,-0.5733,-0.5733,-0.5733,-0.5695,-0.5654,-0.5564,-0.554,-0.5309,-0.5184,-0.5097,-0.5037,-0.5023,-0.5018,-0.5018,-0.5018,-0.5096,-0.5096,0.9922,0.9933,1.0073,1.0202,1.0304,1.032,1.0147,1.0001,1.0205,1.0402,1.0784,1.1044,1.1212,1.1171,1.1277,1.0919,1.0788,1.1142,0.9805,0.8815,0.8456,0.7503,0.7153,0.6884,0.6263,0.5733,0.5733,0.5733,0.5733,0.5733,0.5733,0.5733,0.5733,0.5733,0.5733,0.5733,0.5733,0.5733,0.5733,0.5733,0.5733,0.5733,0.5733,0.5733,0.5733,0.5733,0.5733,0.5733,0.5733,0.5733,0.5733,0.5733,0.5733,0.5733,0.5733,0.5733,0.5733,0.5733,0.5644,0.5463,0.4835,0.3666,0.2503,0.0895,-0.0807,-0.1077,-0.1076,-0.1076,-0.1076,-0.0,-0.0,-0.0,-0.0,-0.0,-0.0,-0.0,-0.0,-0.0,-0.0,-0.0539,-0.1345,-0.1613,-0.269,-0.3767,-0.4212,-0.5662,-0.5657,-0.5563,-0.5563,-0.5471,-0.5471,-0.5738,-0.5738,-0.5735,-0.5733,-0.5733,-0.5733,-0.5733,-0.5733,-0.5727,-0.5719,-0.567,-0.561,-0.5576,-0.5455,-0.5325,-0.5129,-0.5061,-0.5037,-0.5021,-0.5018,-0.5018,-0.5018,-0.5018,-0.5018,0.9922,0.9922,0.9927,0.9927,0.9922,0.9927,0.9862,0.99,0.987,0.9948,1.0037,1.0732,1.0952,1.088,1.0783,1.0244,1.0076,1.0206,0.9018,0.8249,0.7837,0.7228,0.6707,0.6269,0.618,0.5911,0.5733,0.5733,0.5733,0.5733,0.5733,0.5733,0.5733,0.5733,0.5733,0.5733,0.5733,0.5733,0.5733,0.5733,0.5733,0.5733,0.5733,0.5733,0.5733,0.5733,0.5733,0.5733,0.5733,0.5733,0.5733,0.5733,0.5733,0.5733,0.5733,0.5733,0.5733,0.5733,0.5644,0.5463,0.4652,0.3576,0.2505,0.1164,-0.0448,-0.1166,-0.1166,-0.1346,-0.1346,-0.0,-0.0,-0.0,-0.0,-0.0,-0.0,-0.0,-0.0,-0.0,-0.0,-0.0,-0.0,-0.0,-0.0,-0.0,-0.0,-0.0,-0.5305,-0.5305,-0.5213,-0.4938,-0.4844,-0.5292,-0.5744,-0.5741,-0.5735,-0.5733,-0.5733,-0.5733,-0.5733,-0.5725,-0.57,-0.5635,-0.5534,-0.5546,-0.542,-0.5253,-0.5102,-0.5037,-0.5021,-0.5018,-0.5018,-0.5018,-0.5018,-0.5018,-0.5018,0.9922,0.9922,0.9922,0.9922,0.9922,0.9922,0.9922,0.9852,0.9894,0.9916,0.9948,0.998,1.0032,0.9692,0.8959,0.8617,0.8782,0.9137,0.9016,0.8247,0.7037,0.6653,0.6688,0.6612,0.6713,0.6269,0.5733,0.5733,0.5733,0.5733,0.5733,0.5733,0.5733,0.5733,0.5733,0.5733,0.5733,0.5733,0.5733,0.5733,0.5733,0.5733,0.5733,0.5733,0.5733,0.5733,0.5733,0.5733,0.5733,0.5733,0.5733,0.5733,0.5733,0.5733,0.5733,0.5733,0.5733,0.5733,0.5644,0.5463,0.4652,0.3667,0.2773,0.2148,0.0806,-0.0179,-0.0538,-0.1256,-0.1166,-0.0718,-0.0,-0.0,-0.0,-0.0,-0.0,-0.0,-0.0,-0.0,-0.0,-0.0,-0.0,-0.0,-0.0,-0.0,-0.0,-0.0,-0.0,-0.3141,-0.3409,-0.3678,-0.0,-0.4846,-0.5479,-0.5741,-0.5733,-0.5733,-0.5733,-0.5733,-0.5722,-0.5697,-0.5654,-0.5589,-0.5557,-0.5561,-0.5381,-0.5146,-0.5078,-0.5018,-0.5018,-0.5018,-0.5018,-0.5018,-0.5018,-0.5018,-0.5018]},{"header":{"parameterUnit":"m.s-1","parameterCategory":1,"la1":31.0,"la2":29.5877,"lo1":-88.7671,"lo2":-86.6584,"dy":0.0162,"dx":0.0185,"nx":115,"ny":88,"refTime":"2023-06-20T06:00:00:Z","depth":0,"parameterNumber":3,"parameterNumberName":"V-component_of_WINDS"},"data":[0.0,0.0,0.0,0.0,0.0,0.0,0.0,0.0,0.0,0.0,0.0,0.0,0.0,0.0,0.0,0.0,0.0,0.0,0.0,0.0,0.0,0.0,0.0,0.0,0.0,0.0,0.0,0.0,0.0,0.0,0.0,0.0,0.0,0.0,0.0,0.0,0.0,0.0,0.0,0.0,0.0,0.0,0.0,0.0,0.0,0.0,0.0,0.0,0.0,0.0,0.0,0.0,0.0,0.0,0.0,0.0,0.0,0.0,0.0,0.0,0.0,0.0,0.0,0.0,0.0,0.0,0.0,0.0,0.0,0.0,0.0,0.0,0.0,0.0,0.0,0.0,0.0,0.0,0.0,0.0,0.0,0.0,0.0,0.0,0.0,0.0,0.0,0.0,0.0,0.0,0.0,0.0,0.0,0.0,0.0,0.0,0.0,0.0,0.0,0.0,0.0,0.0,0.0,0.0,0.0,0.0,0.0,0.0,0.0,0.0,0.0,0.0,0.0,0.0,0.0,0.0,0.0,0.0,0.0,0.0,0.0,0.0,0.0,0.0,0.0,0.0,0.0,0.0,0.0,0.0,0.0,0.0,0.0,0.0,0.0,0.0,0.0,0.0,0.0,0.0,0.0,0.0,0.0,0.0,0.0,0.0,0.0,0.0,0.0,0.0,0.0,0.0,0.0,0.0,0.0,0.0,0.0,0.0,0.0,0.0,0.0,0.0,0.0,0.0,0.0,0.0,0.0,0.0,0.0,0.0,0.0,0.0,0.0,0.0,0.0,0.0,0.0,0.0,0.0,0.0,0.0,0.0,0.0,0.0,0.0,0.0,0.0,0.0,0.0,0.0,0.0,0.0,0.0,0.0,0.0,0.0,0.0,0.0,0.0,0.0,0.0,0.0,0.0,0.0,0.0,0.0,0.0,0.0,0.0,0.0,0.0,0.0,0.0,0.0,0.0,0.0,0.0,0.0,0.0,0.0,0.0,0.0,0.0,0.0,0.0,0.0,0.0,0.0,0.0,0.0,0.0,0.0,0.0,0.0,0.0,0.0,0.0,0.0,0.0,0.0,0.0,0.0,0.0,0.0,0.0,0.0,0.0,0.0,0.0,0.0,0.0,0.0,0.0,0.0,0.0,0.0,0.0,0.0,0.0,0.0,0.0,0.0,0.0,0.0,0.0,0.0,0.0,0.0,0.0,0.0,0.0,0.0,0.0,0.0,0.0,0.0,0.0,0.0,0.0,0.0,0.0,0.0,0.0,0.0,0.0,0.0,0.0,0.0,0.0,0.0,0.0,0.0,0.0,0.0,0.0,0.0,0.0,0.0,0.0,0.0,0.0,0.0,0.0,0.0,0.0,0.0,0.0,0.0,0.0,0.0,0.0,0.0,0.0,0.0,0.0,0.0,0.0,0.0,0.0,0.0,0.0,0.0,0.0,0.0,0.0,0.0,0.0,0.0,0.0,0.0,0.0,0.0,0.0,0.0,0.0,0.0,0.0,0.0,0.0,0.0,0.0,0.0,0.0,0.0,0.0,0.0,0.0,0.0,0.0,0.0,0.0,0.0,0.0,0.0,0.0,0.0,0.0,0.0,0.0,0.0,0.0,0.0,0.0,0.0,0.0,0.0,0.0,0.0,0.0,0.0,0.0,0.0,0.0,0.0,0.0,0.0,0.0,0.0,0.0,0.0,0.0,0.0,0.0,0.0,0.0,0.0,0.0,0.0,0.0,0.0,0.0,0.0,0.0,0.0,0.0,0.0,0.0,0.0,0.0,0.0,0.0,0.0,0.0,0.0,0.0,0.0,0.0,0.0,0.0,0.0,0.0,0.0,0.0,0.0,0.0,0.0,0.0,0.0,0.0,0.0,0.0,0.0,0.0,0.0,0.0,0.0,0.0,0.0,0.0,0.0,0.0,0.0,0.0,0.0,0.0,0.0,0.0,0.0,0.0,0.0,0.0,0.0,0.0,0.0,0.0,0.0,0.0,0.0,0.0,0.0,0.0,0.0,0.0,0.0,0.0,0.0,0.0,0.0,0.0,0.0,0.0,0.0,0.0,0.0,0.0,0.0,0.0,0.0,0.0,0.0,0.0,0.0,0.0,0.0,0.0,0.0,0.0,0.0,0.0,0.0,0.0,0.0,0.0,0.0,0.0,0.0,0.0,0.0,0.0,0.0,0.0,0.0,0.0,0.0,0.0,0.0,0.0,0.0,0.0,0.0,0.0,0.0,0.0,0.0,0.0,0.0,0.0,0.0,0.0,0.0,0.0,0.0,0.0,0.0,0.0,0.0,0.0,0.0,0.0,0.0,0.0,0.0,0.0,0.0,0.0,0.0,0.0,0.0,0.0,0.0,0.0,0.0,0.0,0.0,0.0,0.0,0.0,0.0,0.0,0.0,0.0,0.0,0.0,0.0,0.0,0.0,0.0,0.0,0.0,0.0,0.0,0.0,0.0,0.0,0.0,0.0,0.0,0.0,0.0,0.0,0.0,0.0,0.0,0.0,0.0,0.0,0.0,0.0,0.0,0.0,0.0,0.0,0.0,0.0,0.0,0.0,0.0,0.0,0.0,0.0,0.0,0.0,0.0,0.0,0.0,0.0,0.0,0.0,0.0,0.0,0.0,0.0,0.0,0.0,0.0,0.0,0.0,0.0,0.0,0.0,0.0,0.0,0.0,0.0,0.0,0.0,0.0,0.0,0.0,0.0,0.0,0.0,0.0,0.0,0.0,0.0,0.0,0.0,0.0,0.0,0.0,0.0,0.0,0.0,0.0,0.0,0.0,0.0,0.0,0.0,0.0,0.0,0.0,0.0,0.0,0.0,0.0,0.0,0.0,0.0,0.0,0.0,0.0,0.0,0.0,0.0,0.0,0.0,0.0,0.0,0.0,0.0,0.0,0.0,0.0,0.0,0.0,0.0,0.0,0.0,0.0,0.0,0.0,0.0,0.0,0.0,0.0,0.0,0.0,0.0,0.0,0.0,0.0,0.0,0.0,0.0,0.0,0.0,0.0,0.0,0.0,0.0,0.0,0.0,0.0,0.0,0.0,0.0,0.0,0.0,0.0,0.0,0.0,0.0,0.0,0.0,0.0,0.0,0.0,0.0,0.0,0.0,0.0,0.0,0.0,0.0,0.0,0.0,0.0,0.0,0.0,0.0,0.0,0.0,0.0,0.0,0.0,0.0,0.0,0.0,0.0,0.0,0.0,0.0,0.0,0.0,0.0,0.0,0.0,0.0,0.0,0.0,0.0,0.0,0.0,0.0,0.0,0.0,0.0,0.0,0.0,0.0,0.0,0.0,0.0,0.0,0.0,0.0,0.0,0.0,0.0,0.0,0.0,0.0,0.0,0.0,0.0,0.0,0.0,0.0,0.0,0.0,0.0,0.0,0.0,0.0,0.0,0.0,0.0,0.0,0.0,0.0,0.0,0.0,0.0,0.0,0.0,0.0,0.0,0.0,0.0,0.0,0.0,0.0,0.0,0.0,0.0,0.0,0.0,0.0,0.0,0.0,0.0,0.0,0.0,0.0,0.0,0.0,0.0,0.0,0.0,0.0,0.0,0.0,0.0,0.0,0.0,0.0,0.0,0.0,0.0,0.0,0.0,0.0,0.0,0.0,0.0,0.0,0.0,0.0,0.0,0.0,0.0,0.0,0.0,0.0,0.0,0.0,0.0,0.0,0.0,0.0,0.0,0.0,0.0,0.0,0.0,0.0,0.0,0.0,0.0,0.0,0.0,0.0,0.0,0.0,0.0,0.0,0.0,0.0,0.0,0.0,0.0,0.0,0.0,0.0,0.0,0.0,0.0,0.0,0.0,0.0,0.0,0.0,0.0,0.0,0.0,0.0,0.0,0.0,0.0,0.0,0.0,0.0,0.0,0.0,0.0,0.0,0.0,0.0,0.0,0.0,0.0,0.0,0.0,0.0,0.0,0.0,0.0,0.0,0.0,0.0,0.0,0.0,0.0,0.0,0.0,0.0,0.0,0.0,0.0,0.0,0.0,0.0,0.0,0.0,0.0,0.0,0.0,0.0,0.0,0.0,0.0,0.0,0.0,0.0,0.0,0.0,0.0,0.0,0.0,0.0,0.0,0.0,0.0,0.0,0.0,0.0,0.0,0.0,0.0,0.0,0.0,0.0,0.0,0.0,0.0,0.0,0.0,0.0,0.0,0.0,0.0,0.0,0.0,0.0,0.0,0.0,0.0,0.0,0.0,0.0,0.0,0.0,0.0,0.0,0.0,0.0,0.0,0.0,0.0,0.0,0.0,0.0,0.0,0.0,-3.019,0.0,0.0,0.0,0.0,0.0,0.0,0.0,0.0,0.0,0.0,0.0,0.0,0.0,0.0,0.0,0.0,0.0,0.0,0.0,0.0,0.0,0.0,0.0,0.0,0.0,0.0,0.0,0.0,0.0,0.0,0.0,0.0,0.0,0.0,0.0,0.0,0.0,0.0,0.0,0.0,0.0,0.0,0.0,0.0,0.0,0.0,0.0,0.0,0.0,0.0,0.0,0.0,0.0,0.0,0.0,0.0,0.0,0.0,0.0,0.0,0.0,0.0,0.0,0.0,0.0,0.0,0.0,0.0,0.0,0.0,0.0,0.0,0.0,0.0,0.0,0.0,0.0,0.0,0.0,0.0,0.0,0.0,0.0,0.0,0.0,0.0,0.0,0.0,0.0,0.0,0.0,0.0,0.0,0.0,0.0,0.0,0.0,0.0,0.0,0.0,0.0,0.0,0.0,0.0,0.0,0.0,0.0,0.0,0.0,0.0,-3.0079,-3.0104,-3.0195,-3.0256,-3.0241,0.0,0.0,0.0,0.0,0.0,0.0,0.0,0.0,0.0,0.0,0.0,0.0,0.0,0.0,0.0,0.0,0.0,0.0,0.0,0.0,0.0,0.0,0.0,0.0,0.0,0.0,0.0,0.0,0.0,0.0,0.0,0.0,0.0,0.0,0.0,0.0,0.0,0.0,0.0,0.0,0.0,0.0,0.0,0.0,0.0,0.0,0.0,0.0,0.0,0.0,0.0,0.0,0.0,0.0,0.0,0.0,0.0,0.0,0.0,0.0,0.0,0.0,0.0,0.0,0.0,0.0,0.0,0.0,0.0,0.0,0.0,0.0,0.0,0.0,0.0,0.0,0.0,0.0,0.0,0.0,0.0,0.0,0.0,0.0,0.0,0.0,0.0,0.0,0.0,0.0,0.0,0.0,0.0,0.0,0.0,0.0,0.0,0.0,0.0,0.0,0.0,0.0,0.0,0.0,0.0,0.0,0.0,0.0,0.0,0.0,0.0,0.0,-3.0286,-3.0362,-3.0337,0.0,0.0,0.0,0.0,0.0,0.0,0.0,0.0,0.0,0.0,0.0,0.0,0.0,0.0,0.0,0.0,0.0,0.0,0.0,0.0,0.0,0.0,0.0,0.0,0.0,0.0,0.0,0.0,0.0,0.0,0.0,0.0,0.0,0.0,0.0,0.0,0.0,0.0,0.0,0.0,0.0,0.0,0.0,0.0,0.0,0.0,0.0,0.0,0.0,0.0,0.0,0.0,0.0,0.0,0.0,0.0,0.0,0.0,0.0,0.0,0.0,0.0,0.0,0.0,0.0,0.0,0.0,0.0,0.0,0.0,0.0,0.0,0.0,0.0,0.0,0.0,0.0,0.0,0.0,0.0,0.0,0.0,0.0,0.0,0.0,0.0,0.0,0.0,0.0,0.0,0.0,0.0,0.0,0.0,0.0,0.0,0.0,0.0,0.0,0.0,0.0,0.0,0.0,0.0,0.0,0.0,0.0,0.0,0.0,0.0,-3.0139,-3.0184,-3.0221,0.0,-3.0384,0.0,0.0,0.0,0.0,0.0,0.0,0.0,0.0,0.0,0.0,0.0,0.0,0.0,0.0,0.0,0.0,0.0,0.0,0.0,0.0,0.0,0.0,0.0,0.0,0.0,0.0,0.0,0.0,0.0,0.0,0.0,0.0,0.0,0.0,0.0,0.0,0.0,0.0,0.0,0.0,0.0,0.0,0.0,0.0,0.0,0.0,0.0,0.0,0.0,0.0,0.0,0.0,0.0,0.0,0.0,0.0,0.0,0.0,0.0,0.0,0.0,0.0,0.0,0.0,0.0,0.0,0.0,0.0,0.0,0.0,0.0,0.0,0.0,0.0,0.0,0.0,0.0,0.0,0.0,0.0,0.0,0.0,0.0,0.0,0.0,0.0,0.0,0.0,0.0,0.0,0.0,0.0,0.0,0.0,0.0,0.0,0.0,0.0,0.0,0.0,0.0,0.0,0.0,0.0,0.0,0.0,0.0,0.0,0.0,0.0,-3.0411,-3.0419,-3.0439,-3.0462,0.0,0.0,0.0,0.0,0.0,0.0,0.0,0.0,0.0,0.0,0.0,0.0,0.0,0.0,0.0,0.0,0.0,0.0,0.0,0.0,0.0,0.0,0.0,0.0,0.0,0.0,0.0,0.0,0.0,0.0,0.0,0.0,0.0,0.0,0.0,0.0,0.0,0.0,0.0,0.0,0.0,0.0,0.0,0.0,0.0,0.0,0.0,0.0,0.0,0.0,0.0,0.0,0.0,0.0,0.0,0.0,0.0,0.0,0.0,0.0,0.0,0.0,0.0,0.0,0.0,0.0,0.0,0.0,0.0,0.0,0.0,0.0,0.0,0.0,0.0,0.0,0.0,0.0,0.0,0.0,0.0,0.0,0.0,0.0,0.0,0.0,0.0,0.0,0.0,0.0,0.0,0.0,0.0,0.0,0.0,0.0,0.0,0.0,0.0,0.0,0.0,0.0,0.0,0.0,0.0,0.0,0.0,0.0,0.0,0.0,-3.0617,-3.0617,-3.0617,-3.0616,-3.0616,-3.0617,0.0,0.0,0.0,0.0,0.0,0.0,0.0,0.0,0.0,0.0,0.0,0.0,0.0,0.0,0.0,0.0,0.0,0.0,0.0,0.0,0.0,0.0,0.0,0.0,0.0,0.0,0.0,0.0,0.0,0.0,0.0,0.0,0.0,0.0,0.0,0.0,0.0,0.0,0.0,0.0,0.0,0.0,0.0,0.0,0.0,0.0,0.0,0.0,0.0,0.0,0.0,0.0,0.0,0.0,0.0,0.0,0.0,0.0,0.0,0.0,0.0,0.0,0.0,0.0,0.0,0.0,0.0,0.0,0.0,0.0,0.0,0.0,0.0,0.0,0.0,0.0,0.0,0.0,0.0,0.0,0.0,0.0,0.0,0.0,0.0,0.0,0.0,0.0,0.0,0.0,0.0,0.0,0.0,0.0,0.0,0.0,0.0,0.0,0.0,0.0,0.0,0.0,0.0,0.0,0.0,0.0,0.0,0.0,-3.0598,-3.0598,-3.0617,-3.0617,-3.0617,-3.0617,0.0,0.0,0.0,0.0,0.0,0.0,0.0,0.0,0.0,0.0,0.0,0.0,0.0,0.0,0.0,0.0,0.0,0.0,0.0,0.0,0.0,0.0,0.0,0.0,0.0,0.0,0.0,0.0,0.0,0.0,0.0,0.0,0.0,0.0,0.0,0.0,0.0,0.0,0.0,0.0,0.0,0.0,0.0,0.0,0.0,0.0,0.0,0.0,0.0,0.0,0.0,0.0,0.0,0.0,0.0,0.0,0.0,0.0,0.0,0.0,0.0,0.0,0.0,0.0,0.0,0.0,0.0,0.0,0.0,0.0,0.0,0.0,0.0,0.0,0.0,0.0,0.0,0.0,0.0,0.0,0.0,0.0,0.0,0.0,0.0,0.0,0.0,0.0,0.0,0.0,0.0,0.0,0.0,0.0,0.0,0.0,0.0,0.0,0.0,0.0,0.0,0.0,0.0,0.0,0.0,0.0,0.0,0.0,0.0,-2.9766,-3.0308,-3.0617,-3.0617,-3.0636,-3.0636,0.0,0.0,0.0,0.0,0.0,0.0,0.0,0.0,0.0,0.0,0.0,0.0,0.0,0.0,0.0,0.0,0.0,0.0,0.0,0.0,0.0,0.0,0.0,0.0,0.0,0.0,0.0,0.0,0.0,0.0,0.0,0.0,0.0,0.0,0.0,0.0,0.0,0.0,0.0,0.0,0.0,0.0,0.0,0.0,0.0,0.0,0.0,0.0,0.0,0.0,0.0,0.0,0.0,0.0,0.0,0.0,0.0,0.0,0.0,0.0,0.0,0.0,0.0,0.0,0.0,0.0,0.0,0.0,0.0,0.0,0.0,0.0,0.0,0.0,0.0,0.0,0.0,0.0,0.0,0.0,0.0,0.0,0.0,0.0,0.0,0.0,0.0,0.0,0.0,0.0,0.0,0.0,0.0,0.0,0.0,0.0,0.0,0.0,0.0,0.0,0.0,0.0,0.0,0.0,0.0,0.0,0.0,0.0,0.0,-2.8896,0.0,-2.9911,-3.0202,-3.026,-3.038,0.0,0.0,0.0,0.0,0.0,0.0,0.0,0.0,0.0,0.0,0.0,0.0,0.0,0.0,0.0,0.0,0.0,0.0,0.0,0.0,0.0,0.0,0.0,0.0,0.0,0.0,0.0,0.0,0.0,0.0,0.0,0.0,0.0,0.0,0.0,0.0,0.0,0.0,0.0,0.0,0.0,0.0,0.0,0.0,0.0,0.0,0.0,0.0,0.0,0.0,0.0,0.0,0.0,0.0,0.0,0.0,0.0,0.0,0.0,0.0,0.0,0.0,0.0,0.0,0.0,0.0,0.0,0.0,0.0,0.0,0.0,0.0,0.0,0.0,0.0,0.0,0.0,0.0,0.0,0.0,0.0,0.0,0.0,0.0,0.0,0.0,0.0,0.0,0.0,0.0,0.0,0.0,0.0,0.0,0.0,0.0,0.0,0.0,0.0,0.0,0.0,0.0,0.0,0.0,0.0,0.0,0.0,0.0,-2.8006,-2.8085,-2.8124,-2.8577,-2.9361,-2.9389,-2.9797,0.0,0.0,0.0,0.0,0.0,0.0,0.0,0.0,0.0,0.0,0.0,0.0,0.0,0.0,0.0,0.0,0.0,0.0,0.0,0.0,0.0,0.0,0.0,0.0,0.0,0.0,0.0,0.0,0.0,0.0,0.0,0.0,0.0,0.0,0.0,0.0,0.0,0.0,0.0,0.0,0.0,0.0,0.0,0.0,0.0,0.0,0.0,0.0,0.0,0.0,0.0,0.0,0.0,0.0,0.0,0.0,0.0,0.0,0.0,0.0,0.0,0.0,0.0,0.0,0.0,0.0,0.0,0.0,0.0,0.0,0.0,0.0,0.0,0.0,0.0,0.0,0.0,0.0,0.0,0.0,0.0,0.0,0.0,0.0,0.0,0.0,0.0,0.0,0.0,0.0,0.0,0.0,0.0,0.0,0.0,0.0,0.0,0.0,0.0,0.0,0.0,0.0,0.0,0.0,0.0,0.0,0.0,0.0,0.0,-2.7268,-2.7852,-2.8282,-2.8501,-2.8595,-2.9043,0.0,0.0,0.0,0.0,0.0,0.0,0.0,0.0,0.0,0.0,0.0,0.0,0.0,0.0,0.0,0.0,0.0,0.0,0.0,0.0,0.0,0.0,0.0,0.0,0.0,0.0,0.0,0.0,0.0,0.0,0.0,0.0,0.0,0.0,0.0,0.0,0.0,0.0,0.0,0.0,0.0,0.0,0.0,0.0,0.0,0.0,0.0,0.0,0.0,0.0,0.0,0.0,0.0,0.0,0.0,0.0,0.0,0.0,0.0,0.0,0.0,0.0,0.0,0.0,0.0,0.0,0.0,0.0,0.0,0.0,0.0,0.0,0.0,0.0,0.0,0.0,0.0,0.0,0.0,0.0,0.0,0.0,0.0,0.0,0.0,0.0,0.0,0.0,0.0,0.0,0.0,0.0,0.0,0.0,0.0,0.0,0.0,0.0,0.0,0.0,0.0,0.0,0.0,0.0,0.0,0.0,0.0,0.0,0.0,-2.6932,-2.7147,-2.7405,-2.7686,-2.7768,-2.819,-2.901,0.0,0.0,0.0,0.0,0.0,0.0,0.0,0.0,0.0,0.0,0.0,0.0,0.0,0.0,0.0,0.0,0.0,0.0,0.0,0.0,0.0,0.0,0.0,0.0,0.0,0.0,0.0,0.0,0.0,0.0,0.0,0.0,0.0,0.0,0.0,0.0,0.0,0.0,0.0,0.0,0.0,0.0,0.0,0.0,0.0,0.0,0.0,0.0,0.0,0.0,0.0,0.0,0.0,0.0,0.0,0.0,0.0,0.0,0.0,0.0,0.0,0.0,0.0,0.0,0.0,0.0,0.0,0.0,0.0,0.0,0.0,0.0,0.0,0.0,0.0,0.0,0.0,0.0,0.0,0.0,0.0,0.0,0.0,0.0,0.0,0.0,0.0,0.0,0.0,0.0,0.0,0.0,0.0,0.0,0.0,0.0,0.0,0.0,0.0,0.0,0.0,0.0,0.0,0.0,0.0,0.0,0.0,0.0,-2.7095,-2.6278,-2.6217,-2.6898,-2.6931,-2.7344,0.0,0.0,0.0,0.0,0.0,0.0,0.0,0.0,0.0,0.0,0.0,0.0,0.0,0.0,0.0,0.0,0.0,0.0,0.0,0.0,0.0,0.0,0.0,0.0,0.0,0.0,0.0,0.0,0.0,0.0,0.0,0.0,0.0,0.0,0.0,0.0,0.0,0.0,0.0,0.0,0.0,0.0,0.0,0.0,0.0,0.0,0.0,0.0,0.0,0.0,0.0,0.0,0.0,0.0,0.0,0.0,0.0,0.0,0.0,0.0,0.0,0.0,0.0,0.0,0.0,0.0,0.0,0.0,0.0,0.0,0.0,0.0,0.0,0.0,0.0,0.0,0.0,0.0,0.0,0.0,0.0,0.0,0.0,0.0,0.0,0.0,0.0,0.0,0.0,0.0,0.0,0.0,0.0,0.0,0.0,0.0,0.0,0.0,0.0,0.0,0.0,0.0,0.0,0.0,0.0,0.0,0.0,0.0,0.0,-2.7952,-2.7732,-2.7127,-2.6097,-2.6044,-2.644,0.0,0.0,0.0,0.0,0.0,0.0,0.0,0.0,0.0,0.0,0.0,0.0,0.0,0.0,0.0,0.0,0.0,0.0,0.0,0.0,0.0,0.0,0.0,0.0,0.0,0.0,0.0,0.0,0.0,0.0,0.0,0.0,0.0,0.0,0.0,0.0,0.0,0.0,0.0,0.0,0.0,0.0,0.0,0.0,0.0,0.0,0.0,0.0,0.0,0.0,0.0,0.0,0.0,0.0,0.0,0.0,0.0,0.0,0.0,0.0,0.0,0.0,0.0,0.0,0.0,0.0,0.0,0.0,0.0,0.0,0.0,0.0,0.0,0.0,0.0,0.0,0.0,0.0,0.0,0.0,0.0,0.0,0.0,0.0,0.0,0.0,0.0,0.0,0.0,0.0,0.0,0.0,0.0,0.0,0.0,0.0,0.0,0.0,0.0,0.0,0.0,0.0,0.0,0.0,0.0,0.0,0.0,0.0,-2.9181,-2.8869,-2.885,-2.8186,-2.6839,-2.6429,-2.6472,0.0,0.0,0.0,0.0,0.0,0.0,0.0,0.0,0.0,0.0,0.0,0.0,0.0,0.0,0.0,0.0,0.0,0.0,0.0,0.0,0.0,0.0,0.0,0.0,0.0,0.0,0.0,0.0,0.0,0.0,0.0,0.0,0.0,0.0,0.0,0.0,0.0,0.0,0.0,0.0,0.0,0.0,0.0,0.0,0.0,0.0,0.0,0.0,0.0,0.0,0.0,0.0,0.0,0.0,0.0,0.0,0.0,0.0,0.0,0.0,0.0,0.0,0.0,0.0,0.0,0.0,0.0,0.0,0.0,0.0,0.0,0.0,0.0,0.0,0.0,0.0,0.0,0.0,0.0,0.0,0.0,0.0,0.0,0.0,0.0,0.0,0.0,0.0,0.0,0.0,0.0,0.0,0.0,0.0,0.0,0.0,0.0,0.0,0.0,0.0,0.0,0.0,0.0,0.0,0.0,0.0,0.0,0.0,-3.045,-2.9747,-2.9728,-2.9355,-2.8576,-2.7639,-2.7095,0.0,0.0,0.0,0.0,0.0,0.0,0.0,0.0,0.0,0.0,0.0,0.0,0.0,0.0,0.0,0.0,0.0,0.0,0.0,0.0,0.0,0.0,0.0,0.0,0.0,0.0,0.0,0.0,0.0,0.0,0.0,0.0,0.0,0.0,0.0,0.0,0.0,0.0,0.0,0.0,0.0,0.0,0.0,0.0,0.0,0.0,0.0,0.0,0.0,0.0,0.0,0.0,0.0,0.0,0.0,0.0,0.0,0.0,0.0,0.0,0.0,0.0,0.0,0.0,0.0,0.0,0.0,0.0,0.0,0.0,0.0,0.0,0.0,0.0,0.0,0.0,0.0,0.0,0.0,0.0,0.0,0.0,0.0,0.0,0.0,0.0,0.0,0.0,0.0,0.0,0.0,0.0,0.0,0.0,0.0,0.0,0.0,0.0,0.0,0.0,0.0,0.0,0.0,0.0,0.0,0.0,0.0,0.0,-3.0723,-3.0548,-3.0548,-3.0448,-3.0274,-2.881,-2.7698,0.0,0.0,0.0,0.0,0.0,0.0,0.0,0.0,0.0,0.0,0.0,0.0,0.0,0.0,0.0,0.0,0.0,0.0,0.0,0.0,0.0,0.0,0.0,0.0,0.0,0.0,0.0,0.0,0.0,0.0,0.0,0.0,0.0,0.0,0.0,0.0,0.0,0.0,0.0,0.0,0.0,0.0,0.0,0.0,0.0,0.0,0.0,0.0,-2.6522,0.0,0.0,0.0,0.0,0.0,0.0,0.0,0.0,0.0,0.0,0.0,0.0,0.0,0.0,0.0,0.0,0.0,0.0,0.0,0.0,0.0,0.0,0.0,0.0,0.0,0.0,0.0,0.0,0.0,0.0,0.0,0.0,0.0,0.0,0.0,0.0,0.0,0.0,0.0,0.0,0.0,0.0,0.0,0.0,0.0,0.0,0.0,0.0,0.0,0.0,0.0,0.0,0.0,0.0,0.0,0.0,0.0,0.0,0.0,-3.0784,-3.0792,-3.0786,-3.0784,-3.0772,-2.9947,-2.9064,0.0,0.0,0.0,0.0,0.0,0.0,0.0,0.0,0.0,0.0,0.0,0.0,0.0,0.0,0.0,0.0,0.0,0.0,0.0,0.0,0.0,0.0,0.0,0.0,0.0,0.0,0.0,0.0,0.0,0.0,0.0,0.0,0.0,0.0,0.0,0.0,0.0,0.0,0.0,0.0,0.0,0.0,0.0,0.0,0.0,0.0,0.0,0.0,0.0,0.0,0.0,0.0,0.0,0.0,0.0,0.0,0.0,0.0,0.0,0.0,0.0,0.0,0.0,0.0,0.0,0.0,0.0,0.0,0.0,0.0,0.0,0.0,0.0,0.0,0.0,0.0,0.0,0.0,0.0,0.0,0.0,0.0,0.0,0.0,0.0,0.0,0.0,0.0,0.0,0.0,0.0,0.0,0.0,0.0,0.0,0.0,0.0,0.0,0.0,0.0,0.0,0.0,0.0,0.0,0.0,0.0,0.0,-3.0801,-3.079,-3.0799,-3.0797,-3.0797,-3.0799,-3.0792,-3.0494,-2.9791,0.0,0.0,0.0,0.0,0.0,0.0,0.0,0.0,0.0,0.0,0.0,0.0,0.0,0.0,0.0,0.0,0.0,0.0,0.0,0.0,0.0,0.0,0.0,0.0,0.0,0.0,0.0,0.0,0.0,0.0,0.0,0.0,0.0,0.0,0.0,0.0,0.0,0.0,-2.6178,-2.6695,0.0,0.0,0.0,0.0,0.0,0.0,0.0,0.0,-2.8178,0.0,0.0,0.0,0.0,0.0,0.0,0.0,0.0,0.0,0.0,0.0,0.0,0.0,0.0,0.0,0.0,0.0,0.0,0.0,0.0,0.0,0.0,0.0,0.0,0.0,0.0,0.0,0.0,0.0,0.0,0.0,0.0,0.0,0.0,0.0,0.0,0.0,0.0,0.0,0.0,0.0,0.0,0.0,0.0,0.0,0.0,0.0,0.0,0.0,0.0,0.0,0.0,0.0,0.0,0.0,0.0,-3.0801,-3.0801,-3.0788,-3.08,-3.0784,-3.0784,-3.08,-3.0798,-3.0739,-3.0564,0.0,0.0,0.0,0.0,0.0,0.0,0.0,0.0,0.0,0.0,0.0,0.0,0.0,0.0,0.0,0.0,0.0,0.0,0.0,0.0,0.0,0.0,0.0,0.0,0.0,0.0,0.0,0.0,0.0,0.0,0.0,0.0,0.0,0.0,0.0,0.0,0.0,0.0,0.0,-2.8223,-2.823,0.0,0.0,0.0,0.0,0.0,0.0,0.0,0.0,-2.8143,0.0,0.0,0.0,0.0,0.0,0.0,0.0,0.0,0.0,0.0,0.0,0.0,0.0,0.0,0.0,0.0,0.0,0.0,0.0,0.0,0.0,0.0,0.0,0.0,0.0,0.0,0.0,0.0,0.0,0.0,0.0,0.0,0.0,0.0,0.0,0.0,0.0,0.0,0.0,0.0,0.0,0.0,0.0,0.0,0.0,0.0,0.0,0.0,0.0,0.0,0.0,0.0,0.0,0.0,0.0,-3.0801,-3.0801,-3.0792,-3.08,-3.0785,-3.0794,-3.0796,-3.08,-3.08,0.0,0.0,0.0,0.0,0.0,0.0,0.0,0.0,0.0,0.0,0.0,0.0,0.0,0.0,0.0,0.0,0.0,0.0,0.0,0.0,0.0,0.0,0.0,0.0,0.0,0.0,0.0,0.0,0.0,0.0,0.0,0.0,0.0,0.0,0.0,0.0,0.0,0.0,0.0,0.0,-2.8585,-2.8376,-2.9237,0.0,0.0,0.0,0.0,0.0,0.0,-2.854,-2.8681,0.0,0.0,0.0,0.0,0.0,0.0,0.0,0.0,0.0,0.0,0.0,0.0,0.0,0.0,0.0,0.0,0.0,0.0,0.0,0.0,0.0,0.0,0.0,0.0,0.0,0.0,0.0,0.0,0.0,0.0,0.0,0.0,0.0,0.0,0.0,0.0,0.0,0.0,0.0,0.0,0.0,0.0,0.0,0.0,0.0,0.0,0.0,0.0,0.0,0.0,0.0,0.0,0.0,0.0,0.0,-3.0801,-3.0801,-3.0795,-3.0797,-3.0798,-3.0782,-3.0799,-3.079,-3.079,0.0,0.0,0.0,0.0,0.0,0.0,0.0,0.0,0.0,0.0,0.0,0.0,0.0,0.0,0.0,0.0,0.0,0.0,0.0,0.0,0.0,0.0,0.0,0.0,0.0,0.0,0.0,0.0,0.0,0.0,0.0,0.0,0.0,0.0,0.0,0.0,0.0,0.0,0.0,0.0,0.0,-2.8214,-2.8891,-2.8391,0.0,0.0,0.0,0.0,-2.7846,-2.839,0.0,0.0,0.0,0.0,0.0,0.0,0.0,0.0,0.0,0.0,0.0,0.0,0.0,0.0,0.0,0.0,0.0,0.0,0.0,0.0,0.0,0.0,0.0,0.0,0.0,0.0,0.0,0.0,0.0,0.0,0.0,0.0,0.0,0.0,0.0,0.0,0.0,0.0,0.0,0.0,0.0,0.0,0.0,0.0,0.0,0.0,0.0,0.0,0.0,0.0,0.0,0.0,0.0,0.0,0.0,0.0,-3.0801,-3.0801,-3.0795,-3.0797,-3.0798,-3.0794,-3.0795,-3.0788,-3.0788,0.0,0.0,0.0,0.0,0.0,0.0,0.0,0.0,0.0,0.0,0.0,0.0,0.0,0.0,0.0,0.0,0.0,0.0,0.0,0.0,0.0,0.0,0.0,0.0,0.0,0.0,0.0,0.0,0.0,0.0,0.0,0.0,0.0,0.0,0.0,0.0,0.0,0.0,0.0,0.0,0.0,-2.7923,-2.7969,-2.7841,-2.7727,0.0,0.0,-2.7707,-2.7739,-2.78,0.0,0.0,0.0,0.0,0.0,0.0,0.0,0.0,0.0,0.0,0.0,0.0,0.0,0.0,0.0,0.0,0.0,0.0,0.0,0.0,0.0,0.0,0.0,0.0,0.0,0.0,0.0,0.0,0.0,0.0,0.0,0.0,0.0,0.0,0.0,0.0,0.0,0.0,0.0,0.0,0.0,0.0,0.0,0.0,0.0,0.0,0.0,0.0,0.0,0.0,0.0,0.0,0.0,0.0,0.0,-3.0786,-3.0793,-3.0786,-3.0792,-3.0801,-3.079,-3.0784,-3.0796,-3.0788,-3.0801,0.0,0.0,0.0,0.0,0.0,0.0,0.0,0.0,0.0,0.0,0.0,0.0,0.0,0.0,0.0,0.0,0.0,0.0,0.0,0.0,0.0,0.0,0.0,0.0,0.0,0.0,0.0,0.0,0.0,0.0,0.0,0.0,0.0,0.0,0.0,0.0,0.0,0.0,0.0,0.0,0.0,0.0,-2.7112,-2.6655,0.0,0.0,0.0,-2.62,-2.6218,0.0,0.0,0.0,0.0,0.0,0.0,0.0,0.0,0.0,0.0,0.0,0.0,0.0,0.0,0.0,0.0,0.0,0.0,0.0,0.0,0.0,0.0,0.0,0.0,0.0,0.0,0.0,0.0,0.0,0.0,0.0,0.0,0.0,0.0,0.0,0.0,0.0,0.0,0.0,0.0,0.0,0.0,0.0,0.0,0.0,0.0,0.0,0.0,0.0,0.0,0.0,0.0,0.0,0.0,0.0,0.0,0.0,-3.0799,-3.079,-3.079,-3.0799,-3.0801,-3.08,-3.0799,-3.0792,0.0,0.0,0.0,0.0,0.0,0.0,0.0,0.0,0.0,0.0,0.0,0.0,0.0,0.0,0.0,0.0,0.0,0.0,0.0,0.0,0.0,0.0,0.0,0.0,0.0,0.0,0.0,-2.7558,0.0,0.0,0.0,0.0,0.0,0.0,0.0,0.0,0.0,0.0,0.0,0.0,0.0,0.0,-2.6151,-2.6205,-2.5787,-2.547,0.0,0.0,-2.5678,-2.5704,-2.625,-2.6637,0.0,0.0,0.0,0.0,0.0,0.0,0.0,0.0,0.0,0.0,0.0,0.0,0.0,0.0,0.0,0.0,0.0,0.0,0.0,0.0,0.0,0.0,0.0,0.0,0.0,0.0,0.0,0.0,0.0,0.0,0.0,0.0,0.0,0.0,0.0,0.0,0.0,0.0,0.0,0.0,0.0,0.0,0.0,0.0,0.0,0.0,0.0,0.0,0.0,0.0,0.0,0.0,0.0,0.0,0.0,-3.0799,-3.079,-3.0788,-3.0799,-3.0792,-3.0792,-3.08,-3.08,-3.0796,0.0,0.0,0.0,0.0,0.0,0.0,0.0,0.0,0.0,0.0,0.0,0.0,0.0,0.0,0.0,0.0,0.0,0.0,0.0,0.0,0.0,0.0,0.0,0.0,0.0,0.0,0.0,0.0,0.0,0.0,0.0,0.0,0.0,0.0,0.0,0.0,0.0,0.0,0.0,0.0,0.0,-2.5127,-2.5189,-2.5774,-2.6269,0.0,-2.6943,-2.7439,-2.742,-2.7504,-2.758,-2.7518,0.0,0.0,0.0,0.0,0.0,0.0,0.0,0.0,0.0,0.0,0.0,0.0,0.0,0.0,0.0,0.0,0.0,0.0,0.0,0.0,0.0,0.0,0.0,0.0,0.0,0.0,0.0,0.0,0.0,0.0,0.0,0.0,0.0,0.0,0.0,0.0,0.0,0.0,0.0,0.0,0.0,0.0,0.0,0.0,0.0,0.0,0.0,0.0,0.0,0.0,0.0,0.0,0.0,-3.0799,-3.08,-3.0793,-3.0784,-3.079,-3.0784,-3.0784,-3.079,-3.0795,-3.0799,0.0,0.0,0.0,0.0,0.0,0.0,0.0,0.0,0.0,0.0,0.0,0.0,0.0,0.0,0.0,0.0,0.0,0.0,0.0,0.0,0.0,0.0,0.0,0.0,0.0,0.0,0.0,0.0,-2.6362,-2.6255,-2.6083,0.0,0.0,0.0,0.0,0.0,0.0,0.0,0.0,0.0,0.0,-2.6564,-2.6624,-2.6858,0.0,0.0,-2.7374,-2.7551,-2.7656,-2.7649,-2.7622,-2.7616,-2.7589,0.0,0.0,0.0,0.0,0.0,0.0,0.0,0.0,0.0,0.0,0.0,0.0,0.0,0.0,0.0,0.0,0.0,0.0,0.0,0.0,0.0,0.0,0.0,0.0,0.0,0.0,0.0,0.0,0.0,0.0,0.0,0.0,0.0,0.0,0.0,0.0,0.0,0.0,0.0,0.0,0.0,0.0,0.0,0.0,0.0,0.0,0.0,0.0,0.0,0.0,0.0,0.0,-3.0801,-3.0797,-3.0796,-3.0801,-3.0801,-3.0801,-3.0801,-3.0801,-3.0801,-3.0788,0.0,0.0,0.0,0.0,0.0,0.0,0.0,0.0,0.0,0.0,0.0,0.0,0.0,0.0,0.0,0.0,0.0,0.0,0.0,0.0,0.0,0.0,0.0,0.0,0.0,0.0,0.0,0.0,-2.712,-2.6997,-2.6783,0.0,0.0,0.0,0.0,0.0,0.0,0.0,0.0,0.0,0.0,-2.7504,-2.7471,-2.7631,-2.7797,-2.7856,-2.7991,-2.8146,-2.8393,-2.8337,-2.8289,-2.8346,0.0,0.0,0.0,0.0,0.0,0.0,0.0,0.0,0.0,0.0,0.0,0.0,0.0,0.0,0.0,0.0,0.0,0.0,0.0,0.0,0.0,0.0,0.0,0.0,0.0,0.0,0.0,0.0,0.0,0.0,-3.0402,0.0,0.0,0.0,0.0,0.0,0.0,0.0,0.0,0.0,0.0,0.0,0.0,0.0,0.0,0.0,0.0,0.0,0.0,0.0,0.0,0.0,0.0,-3.0801,-3.0797,-3.0796,-3.0801,-3.0801,-3.0801,-3.0801,-3.0801,-3.0801,-3.0788,-3.0799,0.0,0.0,0.0,0.0,0.0,0.0,0.0,0.0,0.0,0.0,0.0,0.0,0.0,0.0,0.0,0.0,0.0,0.0,0.0,0.0,0.0,0.0,0.0,0.0,0.0,0.0,-2.7978,-2.7806,-2.7656,0.0,0.0,0.0,0.0,0.0,0.0,0.0,0.0,0.0,0.0,-2.7502,-2.743,-2.728,-2.789,-2.8435,-2.8487,-2.8988,-2.9532,-2.9924,-2.9861,-2.9832,0.0,0.0,0.0,0.0,0.0,0.0,0.0,0.0,0.0,0.0,0.0,0.0,0.0,0.0,0.0,0.0,0.0,0.0,0.0,0.0,0.0,0.0,0.0,0.0,0.0,0.0,0.0,-3.0398,-3.0398,0.0,0.0,0.0,0.0,0.0,0.0,0.0,0.0,0.0,0.0,0.0,-3.0767,-3.0732,0.0,0.0,0.0,0.0,0.0,0.0,0.0,0.0,0.0,0.0,0.0,0.0,-3.0799,-3.0797,-3.0796,-3.0801,-3.0801,-3.0801,-3.0801,-3.0801,-3.0801,-3.0784,-3.079,0.0,0.0,0.0,0.0,0.0,0.0,0.0,0.0,0.0,0.0,0.0,0.0,0.0,0.0,0.0,0.0,0.0,0.0,0.0,0.0,0.0,0.0,0.0,0.0,0.0,-2.8979,0.0,0.0,0.0,0.0,0.0,0.0,0.0,0.0,0.0,0.0,0.0,-2.8196,-2.8278,-2.8752,-2.9074,-2.9004,-2.9233,-2.9404,0.0,0.0,0.0,0.0,0.0,0.0,0.0,0.0,0.0,0.0,0.0,0.0,0.0,0.0,-2.9358,-2.9363,-2.9383,-2.9402,-2.9398,0.0,0.0,0.0,0.0,0.0,0.0,0.0,0.0,0.0,0.0,0.0,0.0,0.0,0.0,-3.0398,0.0,-3.0398,0.0,0.0,0.0,0.0,0.0,0.0,0.0,0.0,-3.0724,-3.0735,-3.0767,-3.0751,-3.0762,0.0,-3.0801,-3.0801,0.0,0.0,0.0,0.0,0.0,0.0,0.0,0.0,-3.08,-3.08,-3.0793,-3.0801,-3.0801,-3.0801,-3.0801,-3.0801,-3.0801,-3.0801,-3.0801,-3.0801,-3.0801,0.0,0.0,0.0,0.0,0.0,0.0,0.0,0.0,0.0,0.0,0.0,0.0,0.0,0.0,0.0,0.0,0.0,0.0,0.0,0.0,0.0,0.0,0.0,-2.9741,0.0,0.0,0.0,0.0,0.0,0.0,0.0,0.0,0.0,-2.8442,-2.8739,-2.9013,-2.9019,-2.9468,-2.9734,-2.9608,0.0,0.0,0.0,0.0,0.0,0.0,0.0,-2.9905,-2.9991,-3.0022,-3.0053,-3.0094,-3.0142,-3.0142,-3.0157,0.0,0.0,-3.0185,-3.019,-3.0157,-3.0171,-3.0185,-3.0213,-3.0204,-3.0223,-3.0261,0.0,0.0,0.0,0.0,0.0,0.0,0.0,0.0,-3.0417,-3.039,0.0,-3.0414,0.0,0.0,0.0,0.0,0.0,-3.0732,0.0,0.0,-3.0696,-3.0706,-3.0698,-3.0771,-3.0801,-3.0801,-3.0801,-3.0801,-3.0801,-3.0801,0.0,0.0,0.0,0.0,0.0,0.0,-3.0799,-3.0799,-3.079,-3.0801,-3.0801,-3.0801,-3.0801,-3.0801,-3.0801,-3.0801,-3.0801,-3.0801,-3.0801,-3.0801,-3.0801,0.0,0.0,0.0,0.0,0.0,0.0,0.0,0.0,0.0,0.0,0.0,0.0,0.0,0.0,0.0,0.0,0.0,0.0,0.0,0.0,-3.0543,0.0,0.0,0.0,0.0,0.0,0.0,0.0,0.0,0.0,0.0,-2.9832,-2.9715,-2.9608,-2.9578,0.0,0.0,0.0,0.0,-2.9026,-2.9048,-2.9026,-2.9185,-2.957,-2.9662,-2.977,-2.9975,0.0,0.0,-3.0095,-3.009,-3.0102,-3.0087,-3.009,-3.0109,-3.0185,-3.0142,-3.0113,-3.0109,-3.0161,-3.0221,-3.0232,-3.0308,-3.0398,-3.0519,0.0,0.0,0.0,0.0,-3.0462,-3.0433,-3.0417,-3.0398,-3.0428,-3.0462,-3.0464,0.0,0.0,0.0,0.0,0.0,0.0,-3.0768,-3.0768,-3.0768,-3.0765,-3.0774,-3.0794,-3.0801,-3.0801,-3.0801,-3.0801,-3.0801,-3.0801,-3.079,-3.0799,0.0,0.0,0.0,0.0,-3.0799,-3.0799,-3.079,-3.0801,-3.0801,-3.0801,-3.0801,-3.0801,-3.0801,-3.0801,-3.0801,-3.0801,-3.0801,-3.0801,-3.0801,0.0,0.0,0.0,0.0,0.0,0.0,0.0,0.0,0.0,0.0,0.0,0.0,0.0,0.0,0.0,0.0,0.0,0.0,0.0,-3.0665,-3.05,-3.0359,0.0,0.0,0.0,0.0,0.0,0.0,0.0,0.0,0.0,-2.9907,-2.9855,-2.9755,0.0,0.0,-2.9494,-2.927,-2.9334,-2.9435,-2.9435,-2.9551,0.0,-2.9805,-2.9839,-2.9855,-2.9924,-2.9972,-3.0053,-3.0079,-3.0083,-3.0091,-3.0086,-3.0091,-3.0113,-3.0113,-3.0169,-3.0151,-3.0182,-3.0273,-3.0343,-3.033,-3.0369,-3.0433,-3.0449,-3.0519,-3.0482,-3.0453,-3.0461,-3.0428,-3.0398,-3.0398,-3.0398,-3.0422,-3.0485,-3.0461,-3.0521,-3.0645,-3.07,0.0,0.0,0.0,-3.0801,-3.0801,-3.0801,-3.0801,-3.0801,-3.0801,-3.0801,-3.0821,-3.1153,-3.1309,-3.1328,-3.166,-3.1841,-3.1791,0.0,0.0,-3.08,-3.0797,-3.0795,-3.0793,-3.0786,-3.0801,-3.0801,-3.0801,-3.0801,-3.0801,-3.0801,-3.0801,-3.0801,-3.0801,-3.0821,-3.0841,-3.0821,-3.0821,0.0,0.0,0.0,0.0,0.0,0.0,0.0,0.0,0.0,0.0,0.0,-3.073,-3.0773,0.0,0.0,0.0,-3.0704,-3.0632,-3.0546,-3.0402,0.0,0.0,0.0,0.0,0.0,0.0,0.0,-2.9907,-2.9907,-2.9907,-2.9907,-2.9907,-2.9841,-2.9626,-2.9454,-2.9314,-2.9188,0.0,-2.9212,-2.9212,-2.9397,-2.957,-2.9626,-2.9734,-2.9803,-2.9907,-2.994,-2.9972,-3.0022,-3.0022,-3.0026,-3.0016,-3.0029,-3.0022,-3.0022,-3.0085,-3.0155,-3.0133,-3.0247,-3.0362,-3.0362,-3.0428,-3.049,-3.0398,-3.0398,-3.041,-3.0398,-3.0398,-3.0398,-3.0398,-3.0398,-3.0398,-3.0422,-3.0496,-3.0436,-3.0516,-3.0711,-3.0768,0.0,-3.0801,-3.0801,-3.0801,-3.0801,-3.0801,-3.0821,-3.0899,-3.0899,-3.0938,-3.1036,-3.1816,-3.2207,-3.2246,-3.3007,-3.3378,-3.3341,-3.1797,-3.1016,-3.0997,-3.1016,-3.1016,-3.1016,-3.1036,-3.0997,-3.0899,-3.086,-3.0801,-3.0821,-3.0801,-3.0801,-3.0821,-3.0821,-3.0841,-3.088,-3.0841,-3.0841,-3.0899,0.0,0.0,0.0,0.0,0.0,0.0,0.0,0.0,0.0,0.0,0.0,0.0,0.0,0.0,0.0,-3.0579,0.0,-3.0402,-3.0278,0.0,0.0,0.0,-2.9907,-2.9907,-2.9907,-2.9907,-2.9907,0.0,0.0,-2.9907,-2.9964,-2.991,-2.9739,-2.9321,-2.9026,-2.9003,-2.8815,-2.8656,-2.8712,-2.8863,-2.9115,-2.9314,-2.9494,-2.9699,-2.9872,-2.9907,-2.9924,-2.9924,-2.9924,-2.9907,-2.9907,-2.9907,-2.9907,-2.9907,-3.0016,-3.0054,-3.0026,-3.0171,-3.0292,-3.0311,-3.0453,-3.0605,-3.0398,-3.0398,-3.0398,-3.0398,-3.0398,-3.0398,-3.0398,-3.0398,-3.0398,-3.0439,-3.0481,-3.0479,-3.0574,-3.0711,-3.0768,-3.0801,-3.0801,-3.0801,-3.0801,-3.0801,-3.0801,-3.1153,-3.1777,-3.1797,-3.2148,-3.2773,-3.2988,-3.3085,-3.3105,-3.33,-3.3378,-3.3361,-3.2968,-3.2792,-3.2775,-3.2792,-3.2773,-3.2792,-3.2773,-3.2461,-3.1816,-3.1192,-3.088,-3.088,-3.088,-3.088,-3.088,-3.088,-3.088,-3.088,-3.0888,-3.0888,-3.088,-3.0909,0.0,0.0,0.0,0.0,0.0,0.0,0.0,0.0,0.0,-3.0697,-3.0697,0.0,-3.0599,0.0,-3.0591,-3.0491,-3.034,-3.0314,0.0,0.0,-2.9921,-2.9907,-2.9907,-2.9907,-2.9907,-2.9907,-2.9907,-2.9907,-2.9907,-3.0354,-3.0696,-3.0785,-2.9905,-2.9166,-2.9026,-2.8957,-2.891,-2.897,-2.9171,-2.923,-2.9388,-2.9474,-2.9718,-2.9872,-2.9926,-2.9907,-2.9907,-2.9907,-2.9907,-2.9907,-2.9907,-2.9907,-2.9907,-2.9926,-2.9962,-2.994,-3.0123,-3.0304,-3.0314,-3.0414,-3.0527,-3.1537,-3.1506,-3.1537,-3.1549,-3.1511,-3.0737,-3.0398,-3.0398,-3.0398,-3.0439,-3.0482,-3.0517,-3.0581,-3.0614,-3.0715,-3.0957,-3.1328,-3.1382,-3.1582,-3.1953,-3.1951,-3.2226,-3.2678,-3.2675,-3.2929,-3.3414,-3.3805,-3.3983,-3.4003,-3.4374,-3.4549,-3.4569,-3.4549,-3.4569,-3.451,-3.3807,-3.3398,-3.3398,-3.3378,-3.3163,-3.2695,-3.2246,-3.2012,-3.2012,-3.2018,-3.1827,-3.1459,-3.1436,-3.1431,-3.1426,-3.1436,-3.1421,-3.1439,-3.1438,-3.1265,0.0,0.0,0.0,0.0,0.0,0.0,0.0,0.0,0.0,0.0,0.0,-3.0577,-3.053,-3.0482,-3.0409,-3.0235,-3.0144,-3.0219,-3.0452,-3.049,-3.0604,-3.0966,-3.1023,-3.1006,-3.1023,-3.1023,-3.1021,-3.1016,-3.1332,-3.16,-3.1712,-3.1053,-3.0516,-3.0392,-3.0302,-3.0235,-3.0257,-3.0346,-3.0453,-3.0518,-3.0716,-3.0882,-3.0989,-3.1006,-3.1004,-3.098,-3.0717,-3.0492,-3.0471,-3.017,-2.9907,-2.9907,-2.9907,-2.9907,-2.994,-3.0,-3.0133,-3.0196,-3.0333,-3.0449,-3.2967,-3.2935,-3.2979,-3.2991,-3.2875,-3.1376,-3.0737,-3.0717,-3.0717,-3.0755,-3.0811,-3.0881,-3.0881,-3.0839,-3.0963,-3.1447,-3.2172,-3.2232,-3.2675,-3.3378,-3.3398,-3.3476,-3.3556,-3.3554,-3.3629,-3.3763,-3.4488,-3.4861,-3.4901,-3.5623,-3.601,-3.601,-3.601,-3.601,-3.5952,-3.4491,-3.3727,-3.3746,-3.3612,-3.3573,-3.3554,-3.3459,-3.3383,-3.3383,-3.339,-3.3044,-3.2305,-3.2264,-3.2259,-3.227,-3.2276,-3.2224,-3.2129,-3.2103,-3.175,0.0,-3.0918,0.0,0.0,0.0,0.0,0.0,0.0,0.0,0.0,-3.0617,-3.0588,-3.0571,-3.0508,-3.0445,-3.0414,-3.0307,-3.053,-3.125,-3.136,-3.1625,-3.2293,-3.2408,-3.2408,-3.2406,-3.2406,-3.2403,-3.234,-3.2479,-3.2579,-3.2562,-3.2543,-3.2465,-3.2408,-3.1998,-3.1641,-3.1793,-3.1793,-3.1672,-3.1878,-3.2147,-3.2258,-3.2332,-3.2293,-3.2405,-3.2302,-3.1775,-3.1364,-3.1303,-3.0791,-3.0319,-3.0246,-3.0189,-3.0094,-3.0132,-3.0037,-2.9959,-3.0067,-3.0223,-3.0388,-3.2983,-3.2998,-3.2987,-3.2995,-3.2956,-3.2648,-3.249,-3.2497,-3.2459,-3.2439,-3.2447,-3.2524,-3.2549,-3.2542,-3.272,-3.2897,-3.3044,-3.311,-3.3241,-3.3398,-3.3398,-3.3768,-3.4432,-3.4452,-3.4822,-3.5503,-3.5662,-3.5759,-3.5759,-3.5916,-3.601,-3.601,-3.601,-3.601,-3.5991,0.0,0.0,0.0,-3.4822,-3.4452,-3.4432,-3.3779,-3.3392,-3.3392,-3.3385,0.0,-3.3164,-3.3164,-3.3164,-3.3144,-3.3154,0.0,0.0,0.0,0.0,0.0,0.0,0.0,0.0,0.0,0.0,0.0,-3.0617,-3.0617,-3.0617,-3.0617,-3.0829,-3.1399,-3.1441,-3.1616,-3.2088,-3.2099,-3.2107,-3.2177,-3.2179,-3.2236,-3.2406,-3.2429,-3.2411,-3.2408,-3.2425,-3.2425,-3.2519,-3.2994,-3.3468,-3.3488,-3.398,-3.4339,-3.432,-3.291,-3.1871,-3.1812,-3.1968,-3.1918,-3.2086,-3.2202,-3.2411,-3.2353,-3.2406,-3.2444,-3.2481,-3.2367,-3.2198,-3.2177,-3.2039,-3.1887,-3.1874,-3.1419,-3.0961,-3.0966,-3.04,-2.9907,-2.9926,-3.0089,-3.0236,-3.4284,0.0,-3.4276,-3.4284,0.0,-3.428,-3.4299,-3.4202,-3.3339,-3.2923,-3.2891,-3.2923,-3.2972,-3.2949,-3.3083,-3.3436,-3.3881,-3.3975,-3.4238,-3.4683,-3.4683,-3.4901,-3.5349,-3.5349,-3.5584,-3.5991,-3.601,-3.601,-3.6013,-3.6021,-3.6018,-3.6013,-3.6018,-3.6003,-3.6003,-3.6003,-3.6018,-3.601,-3.5564,-3.5349,-3.533,-3.4908,-3.4681,-3.4686,-3.4703,0.0,0.0,0.0,0.0,0.0,0.0,0.0,0.0,-3.3437,0.0,-3.2187,-3.2148,-3.1953,-3.1543,-3.1826,-3.1817,-3.1333,-3.1623,-3.1652,-3.1217,-3.1584,-3.2,-3.2364,-3.2293,-3.2363,-3.2641,-3.2561,-3.2646,-3.2975,-3.3051,-3.3164,-3.3562,-3.3639,-3.3639,-3.3639,-3.3619,-3.3638,-3.3638,-3.3979,-3.4282,-3.4302,-3.4624,-3.4908,-3.4813,-3.4015,-3.3347,-3.3347,-3.3347,-3.3388,-3.3468,-3.3468,-3.3488,-3.362,-3.3638,-3.3638,-3.3638,-3.3316,-3.3033,-3.3014,-3.2708,-3.2421,-3.2368,-3.2048,-3.1803,-3.1707,-3.1137,-3.0568,-3.0513,-3.0322,-3.0121,-3.562,-3.562,-3.5612,-3.5612,-3.5612,-3.5604,-3.5693,-3.5728,0.0,0.0,0.0,-3.3365,-3.3372,-3.3372,-3.343,-3.3928,-3.4684,-3.4782,-3.5227,-3.5985,-3.5991,-3.5971,-3.601,-3.601,-3.6013,-3.6018,-3.6018,-3.6016,-3.6013,-3.6003,-3.6005,-3.6021,-3.6009,-3.6011,-3.601,-3.601,-3.6007,-3.6016,-3.6016,-3.6016,-3.6016,-3.6013,-3.6003,-3.6015,-3.6015,-3.5644,-3.4961,-3.4922,-3.4941,-3.4941,-3.4941,-3.4862,-3.4713,-3.4705,-3.4297,-3.3476,-3.3379,-3.3125,-3.248,-3.3037,-3.3064,-3.228,-3.2899,-3.2948,-3.2106,-3.2696,-3.3151,-3.3276,-3.3147,-3.3101,-3.3179,-3.3023,-3.3144,-3.3847,-3.3922,-3.4168,-3.4756,-3.4908,-3.4832,-3.4908,-3.4832,-3.4908,-3.4832,-3.4851,-3.4908,-3.4908,-3.4889,-3.4908,-3.4908,-3.4813,-3.4699,-3.4699,-3.4642,-3.4813,-3.4889,-3.4813,-3.4908,-3.4775,-3.4813,-3.4908,-3.4794,-3.4339,-3.3961,-3.3904,-3.3298,-3.3013,-3.2843,-3.2769,-3.2637,-3.2635,-3.1988,-3.1436,-3.1379,-3.0961,-3.0532,-3.5651,-3.5693,-3.5684,-3.5684,-3.5684,-3.5673,-3.6091,-3.6613,-3.5656,-3.5205,-3.5147,-3.5185,-3.5199,-3.5141,-3.5265,-3.5377,-3.5456,-3.558,-3.5738,-3.5924,-3.5919,-3.5952,-3.601,-3.601,-3.6003,-3.6015,-3.6011,-3.6003,-3.6013,-3.6035,-3.6005,-3.6015,-3.6015,-3.6015,-3.6011,-3.601,-3.601,-3.6009,-3.6009,-3.6009,-3.6009,-3.6018,-3.6013,-3.6018,-3.6013,-3.5957,-3.582,-3.582,-3.5801,-3.5801,-3.582,-3.5488,-3.4766,-3.4707,-3.4316,-3.3476,-3.3398,-3.334,-3.3223,-3.3333,-3.3308,-3.3112,-3.375,-3.3857,-3.3035,-3.3024,-3.3368,-3.3961,-3.4013,-3.4237,-3.4696,-3.4713,-3.4693,-3.4756,-3.4756,-3.4794,-3.4984,-3.5003,-3.5022,-3.504,-3.4908,-3.4965,-3.5059,-3.5022,-3.5059,-3.4965,-3.5173,-3.4984,-3.5003,-3.4908,-3.4908,-3.4908,-3.4908,-3.4908,-3.4908,-3.4908,-3.4908,-3.4908,-3.4908,-3.4908,-3.4908,-3.4756,-3.4624,-3.4718,-3.4491,-3.4434,-3.4415,-3.3961,-3.3601,-3.3468,-3.2893,-3.2406,-3.2368,-3.2276,-3.1886,-3.7027,-3.7058,-3.7058,-3.7077,-3.7058,-3.7058,-3.7262,-3.7555,-3.7204,-3.6974,-3.6922,-3.6947,-3.6934,-3.6883,-3.6479,-3.6342,-3.6376,-3.6384,-3.6482,-3.6635,-3.709,-3.736,-3.7399,-3.7419,-3.7393,-3.7402,-3.7402,-3.74,-3.7417,-3.7398,-3.7166,-3.6699,-3.625,-3.6015,-3.6015,-3.6015,-3.6014,-3.6014,-3.6014,-3.6015,-3.6015,-3.6012,-3.601,-3.6011,-3.6015,-3.6016,-3.6016,-3.6016,-3.6016,-3.6016,-3.6016,-3.582,-3.543,-3.541,-3.5215,-3.4844,-3.4824,-3.459,-3.4121,-3.4046,-3.4185,-3.4583,-3.4911,-3.496,-3.4563,-3.4524,-3.4657,-3.4967,-3.495,-3.5193,-3.5921,-3.5956,-3.6031,-3.6329,-3.6368,-3.6331,-3.6274,-3.6254,-3.6272,-3.6253,-3.6253,-3.6254,-3.6255,-3.6273,-3.6253,-3.6253,-3.6253,-3.6083,-3.5685,-3.5609,-3.542,-3.5022,-3.4908,-3.4908,-3.4908,-3.4908,-3.4908,-3.4908,-3.4908,-3.4908,-3.4908,-3.4908,-3.4908,-3.4908,-3.4908,-3.4908,-3.4908,-3.4624,-3.4396,-3.4282,-3.3712,-3.3272,-3.3194,-3.301,-3.2532,-3.8218,-3.8218,-3.8218,-3.8218,-3.8218,-3.8218,-3.8307,-3.8485,-3.8481,-3.8566,-3.867,-3.8305,-3.8125,-3.8022,-3.7417,-3.716,-3.7226,-3.72,-3.7277,-3.7495,-3.8121,-3.8467,-3.8576,-3.8578,-3.8588,-3.8613,-3.8613,-3.8613,-3.8613,-3.8613,-3.8262,-3.7598,-3.6914,-3.6484,-3.6309,-3.6289,-3.6211,-3.6016,-3.6016,-3.6016,-3.6016,-3.6016,-3.6016,-3.6016,-3.6016,-3.6016,-3.6016,-3.6016,-3.6016,-3.6016,-3.6016,-3.6016,-3.6016,-3.6016,-3.6016,-3.6016,-3.6016,-3.5703,-3.5078,-3.4866,-3.5086,-3.5725,-3.5908,-3.5955,-3.5994,-3.6149,-3.6168,-3.5994,-3.5879,-3.6144,-3.687,-3.6972,-3.7114,-3.7596,-3.7621,-3.7471,-3.7452,-3.7412,-3.739,-3.739,-3.739,-3.7355,-3.7394,-3.7374,-3.7315,-3.7277,-3.739,-3.7125,-3.6576,-3.6462,-3.6102,-3.5438,-3.504,-3.4908,-3.4908,-3.4908,-3.4908,-3.4908,-3.4908,-3.4908,-3.4908,-3.4908,-3.4908,-3.4908,-3.4908,-3.4908,-3.4908,-3.4889,-3.4851,-3.4775,-3.4357,-3.4052,-3.4122,-3.3895,-3.3295,-3.8237,-3.8218,-3.8276,-3.8218,-3.8276,-3.8257,-3.8709,-3.9328,-3.9391,-3.9835,-4.0288,-3.8897,-3.8202,-3.8112,-3.8087,-3.8041,-3.8022,-3.8056,-3.8102,-3.8122,-3.8186,-3.8338,-3.86,-3.8572,-3.8535,-3.8652,-3.8672,-3.875,-3.875,-3.8672,-3.8574,-3.8476,-3.8398,-3.793,-3.7285,-3.7187,-3.6777,-3.6035,-3.6016,-3.6016,-3.6016,-3.6016,-3.6016,-3.6016,-3.6016,-3.6016,-3.6016,-3.6016,-3.6016,-3.6016,-3.6016,-3.6016,-3.6016,-3.6016,-3.6016,-3.6016,-3.6016,-3.5957,-3.5859,-3.5767,-3.5735,-3.5833,-3.645,-3.6798,-3.6826,-3.7502,-3.7618,-3.703,-3.6806,-3.7104,-3.7781,-3.7887,-3.7906,-3.7977,-3.7861,-3.7585,-3.7677,-3.7466,-3.739,-3.7387,-3.7578,-3.7411,-3.7581,-3.7619,-3.7504,-3.7656,-3.7694,-3.7599,-3.7334,-3.7277,-3.6992,-3.6196,-3.5476,-3.5003,-3.4946,-3.4908,-3.4908,-3.4908,-3.4908,-3.4908,-3.4908,-3.4908,-3.4908,-3.4908,-3.4908,-3.4908,-3.4908,-3.4908,-3.4908,-3.4927,-3.4868,-3.499,-3.5251,-3.5199,-3.472,-3.9676,-3.9571,-3.9689,-3.9727,-3.9727,-3.9746,-3.9939,-4.0249,-4.0268,-4.0474,-4.0694,-4.0024,-3.9721,-3.9651,-3.9148,-3.8897,-3.8936,-3.8909,-3.8934,-3.9085,-3.9533,-3.9876,-3.9976,-3.9975,-4.0001,-4.0028,-4.0054,-4.0078,-4.0,-3.959,-3.9375,-3.9297,-3.8867,-3.8418,-3.8086,-3.8066,-3.7637,-3.6816,-3.6777,-3.6491,-3.6006,-3.5982,-3.6016,-3.6016,-3.6016,-3.6016,-3.6016,-3.6016,-3.6016,-3.6016,-3.6016,-3.6016,-3.6016,-3.6016,-3.6016,-3.6016,-3.6016,-3.6016,-3.6016,-3.6348,-3.6577,-3.6574,-3.7251,-3.7669,-3.7677,-3.7994,-3.8218,-3.8365,-3.7986,-3.7994,-3.8748,-3.8878,-3.9019,-3.9292,-3.9346,-3.9235,-3.9079,-3.9028,-3.8972,-3.8888,-3.8866,-3.8869,-3.8888,-3.8888,-3.8869,-3.8888,-3.885,-3.866,-3.8281,-3.8148,-3.7807,-3.7106,-3.6576,-3.5931,-3.5211,-3.4908,-3.4927,-3.4908,-3.4908,-3.4908,-3.4908,-3.4908,-3.4908,-3.4908,-3.4908,-3.4908,-3.4908,-3.4908,-3.4908,-3.4945,-3.5019,-3.516,-3.5337,-3.5498,-3.5174,-4.0646,-4.0554,-4.072,-4.079,-4.079,-4.079,-4.079,-4.079,-4.079,-4.079,-4.079,-4.079,-4.079,-4.0694,-4.0062,-3.9792,-3.9862,-3.9818,-3.9837,-3.9978,-4.0609,-4.09,-4.097,-4.0976,-4.0968,-4.0984,-4.1008,-4.1055,-4.1035,-4.0547,-4.0234,-4.0156,-3.9609,-3.918,-3.8965,-3.8965,-3.8531,-3.7715,-3.7611,-3.7276,-3.667,-3.6401,-3.6198,-3.5996,-3.5976,-3.5976,-3.6016,-3.6016,-3.6016,-3.6016,-3.6016,-3.6016,-3.6016,-3.6016,-3.6016,-3.6016,-3.6016,-3.6113,-3.6328,-3.6833,-3.7215,-3.7486,-3.816,-3.8578,-3.8605,-3.8767,-3.9173,-3.9669,-3.9282,-3.9243,-3.9714,-3.9862,-4.0076,-4.053,-4.0526,-4.0406,-4.0196,-4.0158,-3.9984,-3.9977,-3.9762,-3.9889,-3.987,-3.9813,-3.9757,-3.9757,-3.9813,-3.9759,-3.9191,-3.9001,-3.8717,-3.7921,-3.775,-3.7049,-3.5628,-3.5325,-3.523,-3.4927,-3.4908,-3.4908,-3.4908,-3.4908,-3.4908,-3.4908,-3.4908,-3.4908,-3.4908,-3.4908,-3.4908,-3.4926,-3.5035,-3.5155,-3.5219,-3.5407,-3.556,-4.0504,-4.0519,-4.072,-4.079,-4.079,-4.079,-4.079,-4.079,-4.079,-4.079,-4.079,-4.079,-4.079,-4.079,-4.0694,-4.0713,-4.0713,-4.0674,-4.0655,-4.0674,-4.0771,-4.0829,-4.0887,-4.0912,-4.0943,-4.0986,-4.1001,-4.103,-4.1094,-4.1055,-4.1094,-4.1094,-4.0937,-4.0605,-3.9941,-3.9824,-3.9375,-3.8539,-3.8448,-3.8341,-3.8144,-3.7443,-3.6722,-3.6133,-3.5898,-3.5937,-3.5996,-3.6016,-3.6016,-3.6016,-3.6016,-3.6016,-3.6016,-3.6035,-3.6074,-3.6055,-3.6074,-3.6406,-3.7109,-3.7305,-3.762,-3.8296,-3.9073,-3.9507,-3.9495,-4.0036,-4.0462,-4.0694,-4.052,-4.0558,-4.0616,-4.0578,-4.0655,-4.072,-4.0607,-4.0511,-4.0466,-4.025,-4.012,-4.008,-3.9977,-3.9892,-3.9889,-3.9889,-3.9889,-3.9889,-3.9889,-3.9832,-3.9757,-3.9778,-3.9418,-3.8888,-3.8527,-3.8054,-3.6557,-3.614,-3.5761,-3.5363,-3.5192,-3.4965,-3.4927,-3.4908,-3.4908,-3.4908,-3.4908,-3.4908,-3.4908,-3.4908,-3.4908,-3.4982,-3.5138,-3.5216,-3.5174,-3.5464,-3.5581,-4.0372,-4.0504,-4.072,-4.079,-4.079,-4.079,-4.079,-4.079,-4.079,-4.079,-4.079,-4.079,-4.079,-4.079,-4.079,-4.079,-4.079,-4.079,-4.079,-4.079,-4.079,-4.081,-4.0848,-4.0829,-4.0829,-4.0868,-4.0938,-4.0981,-4.1023,-4.1035,-4.105,-4.1085,-4.1078,-4.0896,-4.0652,-4.0602,-4.0168,-3.9377,-3.9276,-3.8974,-3.8433,-3.8067,-3.7783,-3.7462,-3.6428,-3.5918,-3.5918,-3.5976,-3.6016,-3.6016,-3.6016,-3.6016,-3.6055,-3.6543,-3.6836,-3.6875,-3.7344,-3.7793,-3.8125,-3.8594,-3.8961,-3.9286,-4.0005,-4.0377,-4.0455,-4.0636,-4.079,-4.079,-4.079,-4.079,-4.079,-4.079,-4.079,-4.079,-4.0746,-4.064,-4.0511,-4.0399,-4.03,-4.0139,-3.9998,-3.9911,-3.9889,-3.9889,-3.9889,-3.9889,-3.9889,-3.9889,-3.9889,-3.9889,-3.9759,-3.957,-3.9437,-3.9077,-3.8035,-3.7258,-3.6727,-3.6102,-3.5704,-3.5382,-3.523,-3.4965,-3.4908,-3.4908,-3.4908,-3.4908,-3.4908,-3.4908,-3.4908,-3.4945,-3.5122,-3.5178,-3.5128,-3.5391,-3.5483,-4.0356,-4.0598,-4.0733,-4.079,-4.079,-4.079,-4.079,-4.079,-4.079,-4.079,-4.079,-4.079,-4.079,-4.079,-4.079,-4.079,-4.079,-4.079,-4.079,-4.079,-4.079,-4.079,-4.079,-4.079,-4.079,-4.079,-4.0829,-4.0906,-4.0943,-4.0974,-4.0992,-4.0991,-4.099,-4.099,-4.0982,-4.098,-4.066,-4.0187,-4.0087,-3.9734,-3.9154,-3.8871,-3.8748,-3.8548,-3.741,-3.6735,-3.6758,-3.6816,-3.6836,-3.6855,-3.6836,-3.6836,-3.6914,-3.7402,-3.7715,-3.7793,-3.8262,-3.875,-3.9023,-3.9531,-3.9922,-4.0215,-4.0623,-4.0934,-4.0892,-4.0848,-4.081,-4.079,-4.079,-4.079,-4.079,-4.079,-4.079,-4.079,-4.079,-4.0746,-4.0621,-4.0526,-4.0386,-4.0139,-4.004,-3.9956,-3.9911,-3.9889,-3.9889,-3.9889,-3.9889,-3.9889,-3.9889,-3.9889,-3.9889,-3.987,-3.9832,-3.9627,-3.9096,-3.8546,-3.7675,-3.7011,-3.6272,-3.5893,-3.5476,-3.5173,-3.4946,-3.4927,-3.4908,-3.4908,-3.4908,-3.4908,-3.4908,-3.4908,-3.5034,-3.5146,-3.5212,-3.5315,-3.5353,-4.0422,-4.0765,-4.079,-4.079,-4.079,-4.079,-4.079,-4.079,-4.079,-4.079,-4.079,-4.079,-4.079,-4.079,-4.079,-4.079,-4.079,-4.079,-4.079,-4.079,-4.079,-4.079,-4.079,-4.079,-4.079,-4.079,-4.079,-4.0829,-4.09,-4.0909,-4.0928,-4.097,-4.0989,-4.097,-4.0989,-4.0974,-4.0931,-4.0796,-4.0745,-4.0732,-4.0674,-3.9908,-3.954,-3.9472,-3.8801,-3.8491,-3.8594,-3.8496,-3.8379,-3.8418,-3.8457,-3.8555,-3.8398,-3.8535,-3.8613,-3.8613,-3.8672,-3.9101,-3.9766,-3.9961,-4.0351,-4.0801,-4.1035,-4.0968,-4.0916,-4.0848,-4.081,-4.079,-4.079,-4.079,-4.079,-4.079,-4.079,-4.079,-4.079,-4.079,-4.0746,-4.0621,-4.0399,-4.0157,-4.0081,-4.004,-3.9935,-3.9889,-3.9889,-3.9889,-3.9889,-3.9889,-3.9889,-3.9889,-3.9889,-3.9889,-3.9889,-3.9757,-3.9794,-3.9738,-3.8793,-3.7883,-3.7087,-3.6482,-3.597,-3.559,-3.5154,-3.504,-3.4927,-3.4908,-3.4908,-3.4908,-3.4908,-3.4945,-3.5034,-3.51,-3.5117,-3.5165,-3.5192,-4.0356,-4.0598,-4.0733,-4.079,-4.079,-4.079,-4.079,-4.081,-4.079,-4.079,-4.079,-4.079,-4.079,-4.081,-4.079,-4.079,-4.079,-4.079,-4.079,-4.079,-4.079,-4.079,-4.079,-4.079,-4.079,-4.079,-4.079,-4.081,-4.0829,-4.0829,-4.0848,-4.0848,-4.0868,-4.0868,-4.0868,-4.0868,-4.0829,-4.0829,-4.081,-4.081,-4.079,-4.0578,-4.0481,-4.0513,-4.0341,-4.031,-4.0329,-3.9234,-3.8633,-3.8652,-3.8613,-3.8613,-3.8711,-3.918,-3.9473,-3.9551,-4.0078,-4.0449,-4.0703,-4.0762,-4.0859,-4.1113,-4.1113,-4.1056,-4.099,-4.0919,-4.0848,-4.081,-4.079,-4.079,-4.079,-4.079,-4.079,-4.079,-4.079,-4.079,-4.079,-4.0621,-4.045,-4.0266,-4.0157,-4.0041,-3.9935,-3.9911,-3.9889,-3.9889,-3.9889,-3.9889,-3.9889,-3.9889,-3.9889,-3.9889,-3.9889,-3.9889,-3.9889,-3.9889,-3.9397,-3.8698,-3.8016,-3.7259,-3.6671,-3.5932,-3.5495,-3.5097,-3.4965,-3.4908,-3.4908,-3.4908,-3.4908,-3.4945,-3.5018,-3.5015,-3.4977,-3.4988,-3.5078,-4.1295,-4.1557,-4.166,-4.1712,-4.1744,-4.1732,-4.1732,-4.1725,-4.1744,-4.1712,-4.1699,-4.1383,-4.1248,-4.1177,-4.0945,-4.079,-4.079,-4.079,-4.079,-4.079,-4.079,-4.079,-4.079,-4.079,-4.079,-4.079,-4.079,-4.079,-4.079,-4.079,-4.079,-4.079,-4.079,-4.081,-4.079,-4.079,-4.079,-4.079,-4.079,-4.079,-4.079,-4.0829,-4.0868,-4.0931,-4.1001,-4.1071,-4.105,-4.0039,-3.9531,-3.9551,-3.957,-3.957,-3.9609,-4.0117,-4.0391,-4.0488,-4.082,-4.1172,-4.1191,-4.1152,-4.1191,-4.1191,-4.1152,-4.1094,-4.1038,-4.0966,-4.088,-4.0829,-4.0829,-4.079,-4.079,-4.079,-4.079,-4.079,-4.079,-4.079,-4.079,-4.0681,-4.0526,-4.0399,-4.0266,-4.012,-4.002,-3.9911,-3.9911,-3.9889,-3.9889,-3.9889,-3.9889,-3.9889,-3.9889,-3.9889,-3.9889,-3.9889,-3.9889,-3.9889,-3.9889,-3.9475,-3.8963,-3.8243,-3.76,-3.6557,-3.5836,-3.5211,-3.4908,-3.4908,-3.4908,-3.4908,-3.4908,-3.4964,-3.5001,-3.4963,-3.4925,-3.498,-3.5028,-4.2902,-4.3278,-4.3285,-4.3163,-4.3169,-4.3163,-4.3105,-4.3208,-4.3169,-4.3118,-4.2995,-4.2389,-4.208,-4.1912,-4.1467,-4.1139,-4.0887,-4.0977,-4.0887,-4.0829,-4.079,-4.079,-4.079,-4.079,-4.079,-4.079,-4.079,-4.079,-4.079,-4.079,-4.079,-4.079,-4.079,-4.079,-4.079,-4.079,-4.079,-4.079,-4.079,-4.079,-4.079,-4.079,-4.081,-4.0842,-4.0888,-4.0953,-4.0993,-4.0898,-4.0976,-4.1133,-4.0976,-4.0937,-4.1113,-4.1191,-4.1094,-4.1094,-4.1191,-4.1191,-4.1191,-4.1191,-4.1191,-4.1191,-4.1152,-4.1113,-4.1074,-4.1,-4.0923,-4.0892,-4.0829,-4.081,-4.079,-4.079,-4.079,-4.079,-4.079,-4.079,-4.079,-4.079,-4.0668,-4.0511,-4.0383,-4.0248,-4.0101,-3.9998,-3.9935,-3.9889,-3.9889,-3.9889,-3.9889,-3.9889,-3.9889,-3.9889,-3.9889,-3.9889,-3.9889,-3.9889,-3.9889,-3.9757,-3.9399,-3.8906,-3.815,-3.7049,-3.6178,-3.5533,-3.4984,-3.4965,-3.4908,-3.4908,-3.4908,-3.4927,-3.4927,-3.4908,-3.4927,-3.4963,-3.4982,-4.2851,-4.3092,-4.3231,-4.3305,-4.3299,-4.3305,-4.333,-4.3311,-4.3343,-4.344,-4.3258,-4.3065,-4.2963,-4.2937,-4.2725,-4.2299,-4.1796,-4.1654,-4.1306,-4.0848,-4.079,-4.079,-4.079,-4.079,-4.079,-4.079,-4.079,-4.079,-4.079,-4.079,-4.079,-4.079,-4.079,-4.079,-4.079,-4.079,-4.079,-4.079,-4.079,-4.079,-4.079,-4.079,-4.0829,-4.0861,-4.0881,-4.0964,-4.1072,-4.1136,-4.1172,-4.1191,-4.1191,-4.1191,-4.1191,-4.1191,-4.1191,-4.1191,-4.1191,-4.1191,-4.1191,-4.1191,-4.1191,-4.1191,-4.1172,-4.1133,-4.1113,-4.1074,-4.1016,-4.0936,-4.0868,-4.0848,-4.081,-4.079,-4.079,-4.079,-4.079,-4.079,-4.079,-4.079,-4.0713,-4.0545,-4.0481,-4.0334,-4.0177,-4.0061,-4.0,-3.9914,-3.9889,-3.9889,-3.9889,-3.9889,-3.9889,-3.9889,-3.9889,-3.9889,-3.9889,-3.9889,-3.9889,-3.9889,-3.9665,-3.938,-3.8414,-3.7316,-3.6577,-3.5932,-3.5344,-3.5192,-3.5022,-3.4908,-3.4908,-3.4908,-3.4908,-3.4908,-3.4908,-3.4945,-3.4945,-4.377,-4.4047,-4.4164,-4.4274,-4.4349,-4.4349,-4.4336,-4.4355,-4.4349,-4.4369,-4.4283,-4.3974,-4.3858,-4.3827,-4.3446,-4.304,-4.255,-4.2157,-4.1732,-4.1351,-4.0965,-4.081,-4.079,-4.079,-4.079,-4.079,-4.079,-4.079,-4.079,-4.079,-4.079,-4.079,-4.079,-4.079,-4.079,-4.079,-4.079,-4.079,-4.079,-4.079,-4.079,-4.079,-4.081,-4.0848,-4.0861,-4.092,-4.1038,-4.1119,-4.1172,-4.1191,-4.1191,-4.1191,-4.1191,-4.1191,-4.1191,-4.1191,-4.1191,-4.1191,-4.1191,-4.1191,-4.1191,-4.1191,-4.1191,-4.1172,-4.1152,-4.1113,-4.1052,-4.1006,-4.0956,-4.0892,-4.0848,-4.081,-4.079,-4.079,-4.079,-4.079,-4.079,-4.079,-4.0746,-4.0654,-4.0545,-4.0434,-4.0213,-4.0139,-4.0021,-3.9935,-3.9889,-3.9889,-3.9889,-3.9889,-3.9889,-3.9889,-3.9889,-3.9889,-3.9889,-3.9889,-3.9889,-3.9889,-3.9832,-3.9589,-3.885,-3.7752,-3.707,-3.6444,-3.5856,-3.5325,-3.5078,-3.4908,-3.4908,-3.4908,-3.4908,-3.4908,-3.4908,-3.4908,-3.4908,-4.5036,-4.5417,-4.5472,-4.5591,-4.567,-4.5761,-4.5606,-4.5742,-4.5645,-4.5645,-4.5529,-4.4993,-4.4722,-4.4659,-4.4142,-4.3568,-4.3401,-4.2641,-4.2041,-4.1583,-4.1119,-4.079,-4.079,-4.079,-4.079,-4.079,-4.079,-4.079,-4.079,-4.079,-4.079,-4.079,-4.079,-4.079,-4.079,-4.079,-4.079,-4.079,-4.079,-4.079,-4.079,-4.079,-4.079,-4.081,-4.0829,-4.0878,-4.0974,-4.105,-4.1113,-4.1191,-4.1191,-4.1191,-4.1191,-4.1191,-4.1191,-4.1191,-4.1191,-4.1191,-4.1191,-4.1191,-4.1191,-4.1191,-4.1191,-4.1191,-4.1191,-4.1152,-4.1113,-4.1094,-4.0996,-4.0936,-4.0887,-4.0829,-4.079,-4.079,-4.079,-4.079,-4.079,-4.079,-4.079,-4.079,-4.0621,-4.0481,-4.0317,-4.0194,-4.0061,-3.9914,-3.9889,-3.9889,-3.9889,-3.9889,-3.9889,-3.9889,-3.9889,-3.9889,-3.9889,-3.9889,-3.9889,-3.9889,-3.9889,-3.9702,-3.9286,-3.8416,-3.7696,-3.6994,-3.6272,-3.5571,-3.5003,-3.4908,-3.4908,-3.4908,-3.4908,-3.4908,-3.4908,-3.4908,-3.4908,-4.4849,-4.4988,-4.5362,-4.5514,-4.5592,-4.5722,-4.58,-4.58,-4.58,-4.58,-4.5761,-4.5606,-4.551,-4.549,-4.52,-4.4949,-4.4233,-4.3349,-4.2383,-4.1061,-4.0926,-4.079,-4.079,-4.079,-4.079,-4.079,-4.079,-4.079,-4.079,-4.079,-4.079,-4.079,-4.079,-4.079,-4.079,-4.079,-4.079,-4.079,-4.079,-4.079,-4.079,-4.079,-4.079,-4.081,-4.0848,-4.0878,-4.0927,-4.0981,-4.1062,-4.1133,-4.1172,-4.1191,-4.1191,-4.1191,-4.1191,-4.1191,-4.1191,-4.1191,-4.1191,-4.1191,-4.1191,-4.1191,-4.1191,-4.1191,-4.1191,-4.1191,-4.1152,-4.1113,-4.1069,-4.0998,-4.0906,-4.0829,-4.079,-4.079,-4.079,-4.079,-4.079,-4.079,-4.079,-4.079,-4.0746,-4.0626,-4.0351,-4.03,-4.0158,-3.9956,-3.9889,-3.9889,-3.9889,-3.9889,-3.9889,-3.9889,-3.9889,-3.9889,-3.9889,-3.9889,-3.9889,-3.9889,-3.9889,-3.987,-3.9456,-3.9077,-3.8359,-3.7505,-3.6632,-3.5969,-3.5344,-3.4908,-3.4908,-3.4908,-3.4908,-3.4908,-3.4908,-3.4908,-3.4908,-4.4714,-4.4825,-4.5058,-4.5321,-4.5486,-4.5611,-4.5723,-4.58,-4.58,-4.58,-4.58,-4.58,-4.58,-4.58,-4.578,-4.551,-4.4949,-4.3833,-4.2402,-4.1139,-4.079,-4.079,-4.079,-4.079,-4.079,-4.079,-4.079,-4.079,-4.079,-4.079,-4.079,-4.079,-4.079,-4.079,-4.079,-4.079,-4.079,-4.079,-4.079,-4.079,-4.079,-4.079,-4.079,-4.079,-4.0829,-4.0848,-4.0905,-4.0936,-4.098,-4.1037,-4.1113,-4.1172,-4.1191,-4.1191,-4.1191,-4.1191,-4.1191,-4.1191,-4.1191,-4.1191,-4.1191,-4.1191,-4.1191,-4.1191,-4.1191,-4.1191,-4.1191,-4.1152,-4.1113,-4.1062,-4.0916,-4.0868,-4.0829,-4.079,-4.079,-4.079,-4.079,-4.079,-4.079,-4.079,-4.079,-4.066,-4.0485,-4.037,-4.0215,-4.0032,-3.9889,-3.9889,-3.9889,-3.9889,-3.9889,-3.9889,-3.9889,-3.9889,-3.9889,-3.9889,-3.9889,-3.9889,-3.9889,-3.9889,-3.974,-3.9399,-3.902,-3.8128,-3.7256,-3.6519,-3.5931,-3.5457,-3.4965,-3.4908,-3.4908,-3.4908,-3.4908,-3.4908,-3.4908,-4.4613,-4.4745,-4.4776,-4.5046,-4.5368,-4.5466,-4.5587,-4.5728,-4.58,-4.58,-4.58,-4.58,-4.58,-4.58,-4.58,-4.5703,-4.4949,-4.3788,-4.2106,-4.0965,-4.081,-4.079,-4.079,-4.079,-4.079,-4.079,-4.079,-4.079,-4.079,-4.079,-4.079,-4.079,-4.079,-4.079,-4.079,-4.079,-4.079,-4.079,-4.079,-4.079,-4.079,-4.079,-4.079,-4.079,-4.081,-4.0829,-4.0848,-4.0873,-4.0905,-4.0982,-4.105,-4.1105,-4.1152,-4.1191,-4.1191,-4.1191,-4.1191,-4.1191,-4.1191,-4.1191,-4.1191,-4.1191,-4.1191,-4.1191,-4.1191,-4.1191,-4.1191,-4.1191,-4.1152,-4.1055,-4.0936,-4.0892,-4.0861,-4.081,-4.079,-4.079,-4.079,-4.079,-4.079,-4.079,-4.079,-4.0706,-4.0534,-4.0389,-4.0253,-4.0112,-3.9992,-3.9889,-3.9889,-3.9889,-3.9889,-3.9889,-3.9889,-3.9889,-3.9889,-3.9889,-3.9889,-3.9889,-3.9889,-3.9889,-3.9889,-3.9681,-3.9321,-3.875,-3.7955,-3.72,-3.6405,-3.578,-3.5363,-3.5078,-3.4908,-3.4908,-3.4908,-3.4908,-3.4908,-4.4524,-4.456,-4.4739,-4.4846,-4.4965,-4.5322,-4.5497,-4.5573,-4.5703,-4.58,-4.58,-4.58,-4.58,-4.5761,-4.578,-4.5065,-4.3846,-4.2744,-4.1796,-4.0926,-4.079,-4.079,-4.079,-4.079,-4.079,-4.079,-4.079,-4.079,-4.079,-4.079,-4.079,-4.079,-4.079,-4.079,-4.079,-4.079,-4.079,-4.079,-4.079,-4.079,-4.079,-4.079,-4.079,-4.079,-4.079,-4.081,-4.081,-4.081,-4.0829,-4.09,-4.0923,-4.1,-4.1094,-4.1172,-4.1191,-4.1191,-4.1191,-4.1191,-4.1191,-4.1191,-4.1191,-4.1191,-4.1191,-4.1191,-4.1191,-4.1191,-4.1191,-4.1172,-4.1133,-4.1062,-4.0993,-4.0936,-4.0892,-4.0829,-4.079,-4.079,-4.079,-4.079,-4.079,-4.079,-4.0778,-4.0765,-4.0598,-4.0441,-4.0291,-4.0155,-4.0013,-3.9933,-3.9889,-3.9889,-3.9889,-3.9889,-3.9889,-3.9889,-3.9889,-3.9889,-3.9889,-3.9889,-3.9889,-3.9889,-3.9889,-3.9889,-3.9567,-3.9072,-3.8483,-3.7766,-3.6991,-3.6178,-3.5533,-3.5116,-3.4984,-3.4908,-3.4908,-3.4908,-3.4908,-4.4496,-4.4515,-4.4595,-4.4708,-4.4812,-4.5038,-4.5283,-4.5481,-4.5587,-4.5703,-4.578,-4.578,-4.5529,-4.5278,-4.5181,-4.4233,-4.286,-4.226,-4.1545,-4.0945,-4.079,-4.079,-4.079,-4.079,-4.079,-4.079,-4.079,-4.079,-4.079,-4.079,-4.079,-4.079,-4.079,-4.079,-4.079,-4.079,-4.079,-4.079,-4.079,-4.079,-4.079,-4.079,-4.079,-4.079,-4.079,-4.079,-4.079,-4.079,-4.081,-4.0848,-4.09,-4.0946,-4.102,-4.1094,-4.1172,-4.1191,-4.1191,-4.1191,-4.1191,-4.1191,-4.1191,-4.1191,-4.1191,-4.1191,-4.1191,-4.1191,-4.1191,-4.1191,-4.1172,-4.1112,-4.1049,-4.0982,-4.0924,-4.0868,-4.0829,-4.079,-4.079,-4.079,-4.079,-4.079,-4.079,-4.0765,-4.0687,-4.0543,-4.0364,-4.0215,-4.0076,-3.9994,-3.9914,-3.9914,-3.9914,-3.9889,-3.9889,-3.9889,-3.9889,-3.9889,-3.9889,-3.9889,-3.9889,-3.9889,-3.9889,-3.9889,-3.9813,-3.9548,-3.8902,-3.8315,-3.737,-3.652,-3.5818,-3.5154,-3.5003,-3.4908,-3.4908,-3.4908,-3.4908,-4.4252,-4.4252,-4.4064,-4.4093,-4.4242,-4.4279,-4.4489,-4.485,-4.4911,-4.4998,-4.523,-4.5186,-4.4871,-4.4427,-4.4001,-4.3266,-4.199,-4.1854,-4.1313,-4.0926,-4.079,-4.079,-4.079,-4.079,-4.079,-4.079,-4.079,-4.079,-4.079,-4.079,-4.079,-4.079,-4.079,-4.079,-4.079,-4.079,-4.079,-4.079,-4.079,-4.079,-4.079,-4.079,-4.079,-4.079,-4.079,-4.079,-4.079,-4.079,-4.079,-4.081,-4.0848,-4.09,-4.092,-4.1,-4.1094,-4.1172,-4.1191,-4.1191,-4.1191,-4.1191,-4.1191,-4.1191,-4.1191,-4.1191,-4.1191,-4.1191,-4.1191,-4.1191,-4.1191,-4.1152,-4.1094,-4.1039,-4.0973,-4.0906,-4.0848,-4.079,-4.079,-4.079,-4.079,-4.079,-4.079,-4.0778,-4.0733,-4.0607,-4.0425,-4.0356,-4.0212,-4.0139,-4.0061,-3.9979,-3.9958,-3.9914,-3.9889,-3.9889,-3.9889,-3.9889,-3.9889,-3.9889,-3.9889,-3.9889,-3.9889,-3.9889,-3.9794,-3.9719,-3.947,-3.8826,-3.7826,-3.6843,-3.6122,-3.5534,-3.5135,-3.4908,-3.4908,-3.4908,-3.4908,-4.3426,-4.3378,-4.2637,-4.2313,-4.2435,-4.2686,-4.2759,-4.2901,-4.3265,-4.3288,-4.3554,-4.3559,-4.3634,-4.3291,-4.2601,-4.2189,-4.1803,-4.13,-4.0971,-4.079,-4.079,-4.079,-4.079,-4.079,-4.079,-4.079,-4.079,-4.079,-4.079,-4.079,-4.079,-4.079,-4.079,-4.079,-4.079,-4.079,-4.079,-4.079,-4.079,-4.079,-4.079,-4.079,-4.079,-4.079,-4.079,-4.079,-4.079,-4.079,-4.079,-4.081,-4.081,-4.0848,-4.0912,-4.0905,-4.1,-4.1094,-4.1152,-4.1191,-4.1191,-4.1191,-4.1191,-4.1191,-4.1191,-4.1191,-4.1191,-4.1191,-4.1191,-4.1191,-4.1191,-4.1172,-4.1113,-4.1055,-4.098,-4.0923,-4.0848,-4.081,-4.079,-4.079,-4.079,-4.079,-4.079,-4.079,-4.0778,-4.0635,-4.0492,-4.0438,-4.0373,-4.0298,-4.0212,-4.012,-4.004,-3.9977,-3.9935,-3.9935,-3.9889,-3.9889,-3.9911,-3.9911,-3.9889,-3.9889,-3.9889,-3.9889,-3.9889,-3.9794,-3.9624,-3.9037,-3.7788,-3.6919,-3.635,-3.5742,-3.5097,-3.4908,-3.4908,-3.4908,-3.4908,-4.2156,-4.2521,-4.2168,-4.1991,-4.201,-4.2146,-4.227,-4.2408,-4.2585,-4.2717,-4.2865,-4.3043,-4.2872,-4.2285,-4.1405,-4.1058,-4.106,-4.08,-4.0706,-4.0771,-4.079,-4.079,-4.079,-4.079,-4.079,-4.079,-4.079,-4.079,-4.079,-4.079,-4.079,-4.079,-4.079,-4.079,-4.079,-4.079,-4.079,-4.079,-4.079,-4.079,-4.079,-4.079,-4.079,-4.079,-4.079,-4.079,-4.079,-4.079,-4.079,-4.079,-4.079,-4.081,-4.0829,-4.0861,-4.0927,-4.0976,-4.1055,-4.1113,-4.1172,-4.1191,-4.1191,-4.1191,-4.1191,-4.1191,-4.1191,-4.1191,-4.1191,-4.1191,-4.1191,-4.1172,-4.1152,-4.1113,-4.1033,-4.0946,-4.0897,-4.0829,-4.081,-4.079,-4.079,-4.079,-4.079,-4.079,-4.079,-4.0726,-4.0596,-4.0524,-4.0468,-4.038,-4.0317,-4.0248,-4.0139,-4.004,-4.002,-4.0,-3.9935,-3.9889,-3.9911,-3.9911,-3.9911,-3.9911,-3.9889,-3.9889,-3.9935,-3.9933,-3.9794,-3.8963,-3.7733,-3.7128,-3.6673,-3.5837,-3.4927,-3.4908,-3.4908,-3.4908,-3.4908,-4.0841,-4.1393,-4.1379,-4.1405,-4.1412,-4.1398,-4.148,-4.1654,-4.1688,-4.1831,-4.2011,-4.2121,-4.1865,-4.1325,-4.0632,-4.0403,-4.0444,-4.0473,-4.0583,-4.0687,-4.0759,-4.079,-4.079,-4.079,-4.079,-4.079,-4.079,-4.079,-4.079,-4.079,-4.079,-4.079,-4.079,-4.079,-4.079,-4.079,-4.079,-4.079,-4.079,-4.079,-4.079,-4.079,-4.079,-4.079,-4.079,-4.079,-4.079,-4.079,-4.079,-4.079,-4.079,-4.079,-4.081,-4.0842,-4.0861,-4.0915,-4.0974,-4.1032,-4.1113,-4.1152,-4.1191,-4.1191,-4.1191,-4.1191,-4.1191,-4.1191,-4.1191,-4.1191,-4.1191,-4.1191,-4.1191,-4.1152,-4.1074,-4.0999,-4.0934,-4.0878,-4.0829,-4.081,-4.079,-4.079,-4.079,-4.079,-4.079,-4.079,-4.072,-4.0623,-4.0538,-4.0492,-4.0415,-4.0367,-4.0266,-4.0177,-4.0158,-4.0101,-4.002,-3.9956,-3.9956,-3.9956,-3.9935,-3.997,-4.0008,-4.0017,-4.0061,-4.002,-3.9977,-3.9045,-3.7889,-3.7452,-3.6939,-3.5818,-3.4908,-3.4908,-3.4908,-3.4908,-3.4908,-3.9714,-3.9771,-3.9827,-3.9865,-3.9846,-3.9789,-3.9808,-4.0056,-4.0115,-4.0245,-4.0402,-4.0377,-4.0546,-4.0308,-4.0271,-4.0176,-4.0233,-4.0425,-4.0489,-4.0583,-4.0706,-4.0778,-4.079,-4.079,-4.079,-4.079,-4.079,-4.079,-4.079,-4.079,-4.079,-4.079,-4.079,-4.079,-4.079,-4.079,-4.079,-4.079,-4.079,-4.079,-4.079,-4.079,-4.079,-4.079,-4.079,-4.079,-4.079,-4.079,-4.079,-4.079,-4.079,-4.079,-4.081,-4.081,-4.0829,-4.0873,-4.0897,-4.0955,-4.1032,-4.1094,-4.1152,-4.1172,-4.1191,-4.1191,-4.1191,-4.1191,-4.1191,-4.1191,-4.1191,-4.1191,-4.1191,-4.1152,-4.1113,-4.1055,-4.0999,-4.0916,-4.0848,-4.081,-4.079,-4.079,-4.079,-4.079,-4.079,-4.079,-4.079,-4.0713,-4.0681,-4.0621,-4.0559,-4.0515,-4.0399,-4.0334,-4.03,-4.023,-4.0139,-4.01,-4.01,-4.0081,-4.0081,-4.0155,-4.0226,-4.0214,-4.0176,-4.0194,-4.0062,-3.9052,-3.8156,-3.7679,-3.6917,-3.5609,-3.4908,-3.4964,-3.4946,-3.4927,-3.4927,-3.962,-3.962,-3.962,-3.962,-3.962,-3.962,-3.962,-3.962,-3.9677,-3.9782,-3.9891,-3.9863,-3.9888,-3.9958,-3.9886,-3.9905,-4.0019,-4.008,-4.0269,-4.0457,-4.0583,-4.0693,-4.0752,-4.079,-4.079,-4.079,-4.079,-4.079,-4.079,-4.079,-4.079,-4.079,-4.079,-4.079,-4.079,-4.079,-4.079,-4.079,-4.079,-4.079,-4.079,-4.079,-4.079,-4.079,-4.079,-4.079,-4.079,-4.079,-4.079,-4.079,-4.079,-4.079,-4.079,-4.079,-4.081,-4.0848,-4.0848,-4.0887,-4.0962,-4.1035,-4.1133,-4.1191,-4.1191,-4.1191,-4.1191,-4.1191,-4.1191,-4.1191,-4.1191,-4.1191,-4.1191,-4.1172,-4.1152,-4.1094,-4.1037,-4.0956,-4.0906,-4.0848,-4.079,-4.079,-4.079,-4.079,-4.079,-4.079,-4.079,-4.079,-4.079,-4.0759,-4.07,-4.0654,-4.0545,-4.0481,-4.045,-4.0367,-4.0267,-4.025,-4.023,-4.0212,-4.0212,-4.029,-4.0349,-4.0291,-4.0283,-4.0298,-4.014,-3.9289,-3.8527,-3.7915,-3.6891,-3.553,-3.5058,-3.5038,-3.5001,-3.4965,-3.4927,-3.962,-3.962,-3.962,-3.962,-3.962,-3.962,-3.962,-3.962,-3.962,-3.9658,-3.9789,-3.9658,-3.9656,-3.9731,-3.9679,-3.9674,-3.9823,-3.9914,-4.0139,-4.0321,-4.0489,-4.0617,-4.0733,-4.079,-4.079,-4.079,-4.079,-4.079,-4.079,-4.079,-4.079,-4.079,-4.079,-4.079,-4.079,-4.079,-4.079,-4.079,-4.079,-4.079,-4.079,-4.079,-4.079,-4.079,-4.079,-4.079,-4.079,-4.079,-4.079,-4.079,-4.079,-4.079,-4.079,-4.079,-4.079,-4.079,-4.081,-4.0829,-4.0897,-4.1016,-4.1113,-4.1152,-4.1191,-4.1191,-4.1191,-4.1191,-4.1191,-4.1191,-4.1191,-4.1191,-4.1191,-4.1191,-4.1191,-4.1152,-4.1094,-4.1013,-4.0962,-4.0887,-4.0829,-4.079,-4.079,-4.079,-4.079,-4.079,-4.079,-4.079,-4.079,-4.079,-4.0778,-4.0733,-4.07,-4.0635,-4.0607,-4.0496,-4.0383,-4.0383,-4.0367,-4.0351,-4.0367,-4.0434,-4.0457,-4.0419,-4.045,-4.0526,-4.0198,-3.9512,-3.8747,-3.7969,-3.6738,-3.5391,-3.5185,-3.5091,-3.504,-3.4984,-3.4927,-3.962,-3.962,-3.962,-3.962,-3.962,-3.962,-3.962,-3.962,-3.962,-3.962,-3.9639,-3.962,-3.962,-3.9626,-3.962,-3.965,-3.9722,-3.9864,-4.0059,-4.0269,-4.0441,-4.0598,-4.0733,-4.079,-4.079,-4.079,-4.079,-4.079,-4.079,-4.079,-4.079,-4.079,-4.079,-4.079,-4.079,-4.079,-4.079,-4.079,-4.079,-4.079,-4.079,-4.079,-4.079,-4.079,-4.079,-4.079,-4.079,-4.079,-4.079,-4.079,-4.079,-4.079,-4.079,-4.079,-4.079,-4.079,-4.079,-4.081,-4.0827,-4.1003,-4.1074,-4.1113,-4.1172,-4.1191,-4.1191,-4.1191,-4.1191,-4.1191,-4.1191,-4.1191,-4.1191,-4.1191,-4.1191,-4.1172,-4.1113,-4.1062,-4.0984,-4.0906,-4.0848,-4.081,-4.079,-4.079,-4.079,-4.079,-4.079,-4.079,-4.079,-4.079,-4.079,-4.079,-4.0759,-4.0746,-4.07,-4.0654,-4.0545,-4.0511,-4.0511,-4.0477,-4.0511,-4.0579,-4.064,-4.064,-4.07,-4.0752,-4.0443,-3.9899,-3.8923,-3.7919,-3.6617,-3.5438,-3.5196,-3.5089,-3.5058,-3.5022,-3.4946,-3.962,-3.962,-3.962,-3.962,-3.962,-3.962,-3.962,-3.962,-3.962,-3.962,-3.962,-3.962,-3.962,-3.962,-3.9626,-3.9656,-3.9796,-3.983,-4.0044,-4.0392,-4.0479,-4.0622,-4.0752,-4.079,-4.079,-4.079,-4.079,-4.079,-4.079,-4.079,-4.079,-4.079,-4.079,-4.079,-4.079,-4.079,-4.079,-4.079,-4.079,-4.079,-4.079,-4.079,-4.079,-4.079,-4.079,-4.079,-4.079,-4.079,-4.079,-4.079,-4.079,-4.079,-4.079,-4.079,-4.079,-4.079,-4.079,-4.079,-4.0803,-4.0915,-4.1017,-4.1094,-4.1152,-4.1191,-4.1191,-4.1191,-4.1191,-4.1191,-4.1191,-4.1191,-4.1191,-4.1191,-4.1191,-4.1172,-4.1133,-4.1074,-4.1012,-4.0927,-4.0868,-4.0829,-4.079,-4.079,-4.079,-4.079,-4.079,-4.079,-4.079,-4.079,-4.079,-4.079,-4.079,-4.079,-4.0759,-4.0746,-4.0713,-4.0654,-4.0635,-4.0654,-4.0668,-4.0733,-4.0778,-4.079,-4.079,-4.0771,-4.0578,-4.0288,-3.8902,-3.7556,-3.6484,-3.5611,-3.5354,-3.519,-3.5181,-3.5094,-3.4982,-3.962,-3.962,-3.962,-3.962,-3.962,-3.962,-3.962,-3.962,-3.962,-3.962,-3.962,-3.962,-3.962,-3.962,-3.9626,-3.9684,-3.9889,-3.9896,-4.0106,-4.0444,-4.0499,-4.0626,-4.0739,-4.079,-4.079,-4.079,-4.079,-4.079,-4.079,-4.079,-4.079,-4.079,-4.079,-4.079,-4.079,-4.079,-4.079,-4.079,-4.079,-4.079,-4.079,-4.079,-4.079,-4.079,-4.079,-4.079,-4.079,-4.079,-4.079,-4.079,-4.079,-4.079,-4.079,-4.079,-4.079,-4.079,-4.079,-4.079,-4.0803,-4.0873,-4.0974,-4.1055,-4.114,-4.1172,-4.1191,-4.1191,-4.1191,-4.1191,-4.1191,-4.1191,-4.1191,-4.1191,-4.1191,-4.1172,-4.1152,-4.1094,-4.1045,-4.0984,-4.0906,-4.0848,-4.079,-4.079,-4.079,-4.079,-4.079,-4.079,-4.079,-4.079,-4.079,-4.079,-4.079,-4.079,-4.079,-4.079,-4.0778,-4.0759,-4.0778,-4.079,-4.079,-4.079,-4.079,-4.079,-4.079,-4.0771,-4.0616,-4.0036,-3.8481,-3.7193,-3.618,-3.5637,-3.5449,-3.535,-3.5331,-3.5212,-3.5053,-3.9508,-3.9545,-3.9564,-3.9502,-3.9545,-3.9564,-3.962,-3.962,-3.962,-3.962,-3.962,-3.962,-3.962,-3.962,-3.962,-3.9727,-3.9889,-3.9901,-4.0174,-4.0432,-4.0531,-4.0651,-4.0752,-4.079,-4.079,-4.079,-4.079,-4.079,-4.079,-4.079,-4.079,-4.079,-4.079,-4.079,-4.079,-4.079,-4.079,-4.079,-4.079,-4.079,-4.079,-4.079,-4.079,-4.079,-4.079,-4.079,-4.079,-4.079,-4.079,-4.079,-4.079,-4.079,-4.079,-4.079,-4.079,-4.079,-4.079,-4.079,-4.081,-4.0868,-4.0938,-4.1014,-4.1051,-4.1133,-4.1172,-4.1191,-4.1191,-4.1191,-4.1191,-4.1191,-4.1191,-4.1191,-4.1191,-4.1191,-4.1191,-4.1152,-4.1094,-4.1031,-4.0973,-4.0906,-4.0829,-4.079,-4.079,-4.079,-4.079,-4.079,-4.079,-4.079,-4.079,-4.079,-4.079,-4.079,-4.079,-4.079,-4.079,-4.079,-4.079,-4.079,-4.079,-4.079,-4.079,-4.079,-4.079,-4.0752,-4.0636,-3.9855,-3.8384,-3.7108,-3.5925,-3.5577,-3.5483,-3.5443,-3.5398,-3.5327,-3.5226,-3.7836,-3.7868,-3.8432,-3.8657,-3.877,-3.9339,-3.962,-3.962,-3.962,-3.962,-3.962,-3.962,-3.962,-3.962,-3.962,-3.9727,-3.9889,-4.0058,-4.0252,-4.046,-4.0598,-4.072,-4.0778,-4.079,-4.079,-4.079,-4.079,-4.079,-4.079,-4.079,-4.079,-4.079,-4.079,-4.079,-4.079,-4.079,-4.079,-4.079,-4.079,-4.079,-4.079,-4.079,-4.079,-4.079,-4.079,-4.079,-4.079,-4.079,-4.079,-4.079,-4.079,-4.079,-4.079,-4.079,-4.079,-4.079,-4.079,-4.079,-4.079,-4.081,-4.0887,-4.099,-4.0986,-4.1062,-4.1133,-4.1191,-4.1191,-4.1191,-4.1191,-4.1191,-4.1191,-4.1191,-4.1191,-4.1191,-4.1191,-4.1172,-4.1113,-4.1076,-4.1014,-4.0926,-4.0848,-4.0829,-4.081,-4.079,-4.079,-4.079,-4.079,-4.079,-4.079,-4.079,-4.079,-4.079,-4.079,-4.079,-4.079,-4.079,-4.079,-4.079,-4.079,-4.079,-4.079,-4.079,-4.079,-4.052,-4.0036,-3.9352,-3.8404,-3.7096,-3.5762,-3.5631,-3.554,-3.5528,-3.5489,-3.5427,-3.5383,-3.7122,-3.7178,-3.7606,-3.7826,-3.7914,-3.8394,-3.8619,-3.8702,-3.9314,-3.962,-3.962,-3.962,-3.962,-3.962,-3.9602,-3.9703,-3.9911,-4.0006,-4.0214,-4.0489,-4.0615,-4.0707,-4.0771,-4.079,-4.079,-4.079,-4.079,-4.079,-4.079,-4.079,-4.079,-4.079,-4.079,-4.079,-4.079,-4.079,-4.079,-4.079,-4.079,-4.079,-4.079,-4.079,-4.079,-4.079,-4.079,-4.079,-4.079,-4.079,-4.079,-4.079,-4.079,-4.079,-4.079,-4.079,-4.079,-4.079,-4.079,-4.079,-4.079,-4.079,-4.0887,-4.0942,-4.0942,-4.1023,-4.1094,-4.1152,-4.1172,-4.1191,-4.1191,-4.1172,-4.1191,-4.1191,-4.1191,-4.1191,-4.1191,-4.1172,-4.1133,-4.1113,-4.1027,-4.0947,-4.0887,-4.0868,-4.0848,-4.081,-4.079,-4.079,-4.079,-4.079,-4.079,-4.079,-4.079,-4.079,-4.079,-4.079,-4.079,-4.079,-4.079,-4.079,-4.079,-4.079,-4.079,-4.0732,-4.0655,-3.9978,-3.9166,-3.8501,-3.7862,-3.6767,-3.5693,-3.5651,-3.562,-3.5608,-3.5584,-3.556,-3.5554,-3.6873,-3.6836,-3.699,-3.7071,-3.7106,-3.7225,-3.7202,-3.728,-3.867,-3.9408,-3.9427,-3.9602,-3.9639,-3.962,-3.962,-3.9679,-3.9811,-3.9924,-4.0089,-4.0457,-4.0453,-4.0544,-4.07,-4.0778,-4.0752,-4.0778,-4.079,-4.079,-4.079,-4.079,-4.079,-4.079,-4.079,-4.079,-4.079,-4.079,-4.079,-4.079,-4.079,-4.079,-4.079,-4.079,-4.079,-4.079,-4.079,-4.079,-4.079,-4.079,-4.079,-4.079,-4.079,-4.079,-4.079,-4.079,-4.079,-4.079,-4.079,-4.079,-4.079,-4.079,-4.0866,-4.0917,-4.0922,-4.1006,-4.1073,-4.1128,-4.115,-4.1151,-4.1133,-4.1133,-4.1152,-4.1191,-4.1191,-4.1191,-4.1191,-4.1191,-4.1172,-4.1133,-4.1066,-4.0984,-4.0946,-4.0927,-4.0906,-4.0887,-4.0829,-4.081,-4.079,-4.079,-4.081,-4.081,-4.081,-4.081,-4.079,-4.079,-4.079,-4.079,-4.079,-4.079,-4.079,-4.079,-4.079,-4.0655,-4.0481,-3.9746,-3.8953,-3.8025,-3.7224,-3.6303,-3.5762,-3.5693,-3.5673,-3.5704,-3.5693,-3.567,-3.5659,-3.5184,-3.5277,-3.5916,-3.6531,-3.7057,-3.7117,-3.7069,-3.7115,-3.746,-3.8075,-3.8664,-3.9352,-3.9695,-3.9508,-3.9483,-3.9537,-3.9693,-3.9868,-3.9974,-4.0138,-4.0245,-4.0477,-4.0549,-4.0651,-4.0684,-4.0765,-4.079,-4.079,-4.079,-4.079,-4.079,-4.079,-4.079,-4.079,-4.079,-4.079,-4.079,-4.079,-4.079,-4.079,-4.079,-4.079,-4.079,-4.079,-4.079,-4.079,-4.079,-4.079,-4.079,-4.079,-4.079,-4.079,-4.079,-4.079,-4.079,-4.079,-4.079,-4.079,-4.079,-4.0815,-4.0843,-4.0887,-4.092,-4.1008,-4.1053,-4.1089,-4.1107,-4.1107,-4.1113,-4.1113,-4.1133,-4.1172,-4.1191,-4.1191,-4.1191,-4.1191,-4.1191,-4.1152,-4.1094,-4.1042,-4.1013,-4.0991,-4.0973,-4.0931,-4.088,-4.0848,-4.081,-4.081,-4.081,-4.0829,-4.081,-4.081,-4.081,-4.079,-4.079,-4.079,-4.079,-4.079,-4.079,-4.079,-4.079,-4.052,-4.023,-3.9591,-3.8806,-3.7773,-3.6884,-3.6265,-3.5839,-3.5742,-3.5704,-3.5704,-3.5704,-3.5693,-3.5693,-3.4602,-3.4639,-3.5127,-3.5578,-3.5935,-3.5991,-3.5979,-3.6061,-3.649,-3.6881,-3.73,-3.8201,-3.8783,-3.8957,-3.9008,-3.9373,-3.9571,-3.9838,-4.0068,-4.0177,-4.0214,-4.0482,-4.0566,-4.0592,-4.0693,-4.079,-4.079,-4.079,-4.079,-4.079,-4.079,-4.079,-4.079,-4.079,-4.079,-4.079,-4.079,-4.079,-4.079,-4.079,-4.079,-4.079,-4.079,-4.079,-4.079,-4.079,-4.079,-4.079,-4.079,-4.079,-4.079,-4.079,-4.079,-4.079,-4.079,-4.079,-4.079,-4.079,-4.0803,-4.0808,-4.0848,-4.0871,-4.092,-4.1006,-4.1086,-4.1119,-4.1099,-4.1099,-4.1099,-4.1113,-4.1152,-4.1191,-4.1191,-4.1191,-4.1191,-4.1191,-4.1191,-4.1172,-4.1152,-4.1149,-4.1091,-4.1062,-4.1045,-4.0999,-4.0936,-4.0938,-4.09,-4.0873,-4.0873,-4.0866,-4.0866,-4.0829,-4.0829,-4.081,-4.079,-4.079,-4.079,-4.079,-4.079,-4.0752,-4.0694,-4.0346,-3.992,-3.9057,-3.8206,-3.7298,-3.6497,-3.6013,-3.5839,-3.5723,-3.5704,-3.5704,-3.5704,-3.5704,-3.5704,-3.4602,-3.4602,-3.462,-3.462,-3.4602,-3.462,-3.468,-3.4811,-3.559,-3.5873,-3.5888,-3.6522,-3.7272,-3.7943,-3.8235,-3.8908,-3.9315,-3.9463,-3.9852,-4.0098,-4.0319,-4.0473,-4.0622,-4.0731,-4.0745,-4.0765,-4.079,-4.079,-4.079,-4.079,-4.079,-4.079,-4.079,-4.079,-4.079,-4.079,-4.079,-4.079,-4.079,-4.079,-4.079,-4.079,-4.079,-4.079,-4.079,-4.079,-4.079,-4.079,-4.079,-4.079,-4.079,-4.079,-4.079,-4.079,-4.079,-4.079,-4.079,-4.079,-4.0803,-4.0808,-4.0829,-4.0879,-4.0959,-4.1019,-4.1072,-4.1097,-4.1097,-4.1111,-4.1111,-4.1113,-4.1172,-4.1191,-4.1191,-4.1191,-4.1191,-4.1191,-4.1191,-4.1191,-4.1191,-4.1191,-4.1172,-4.1133,-4.1094,-4.1055,-4.1016,-4.0996,-4.0986,-4.0986,-4.0978,-4.0953,-4.0925,-4.0889,-4.0868,-4.0848,-4.081,-4.079,-4.079,-4.079,-4.079,-4.0732,-4.0558,-4.0094,-3.9379,-3.8252,-3.7382,-3.6795,-3.6303,-3.5839,-3.5723,-3.5704,-3.5704,-3.5704,-3.5704,-3.5704,-3.5704,-3.4602,-3.4602,-3.4602,-3.4602,-3.4602,-3.4602,-3.4602,-3.4642,-3.4792,-3.4867,-3.498,-3.5093,-3.587,-3.7478,-3.768,-3.808,-3.8423,-3.8802,-3.9051,-3.922,-3.9912,-4.0294,-4.0506,-4.0598,-4.066,-4.0731,-4.079,-4.079,-4.079,-4.079,-4.079,-4.079,-4.079,-4.079,-4.079,-4.079,-4.079,-4.079,-4.079,-4.079,-4.079,-4.079,-4.079,-4.079,-4.079,-4.079,-4.079,-4.079,-4.079,-4.079,-4.079,-4.079,-4.079,-4.079,-4.079,-4.079,-4.079,-4.079,-4.0803,-4.0808,-4.0829,-4.089,-4.0941,-4.0979,-4.1027,-4.1093,-4.109,-4.1114,-4.1116,-4.1107,-4.1152,-4.1191,-4.1191,-4.1191,-4.1191,-4.1191,-4.1191,-4.1191,-4.1191,-4.1191,-4.1191,-4.1172,-4.1172,-4.1113,-4.1074,-4.1055,-4.1055,-4.1052,-4.103,-4.1007,-4.0996,-4.0945,-4.0924,-4.0848,-4.079,-4.079,-4.079,-4.079,-4.0713,-4.0539,-4.023,-3.9765,-3.8922,-3.7776,-3.7112,-3.6613,-3.6129,-3.5704,-3.5704,-3.5704,-3.5704,-3.5704,-3.5704,-3.5704,-3.5704]}]]